[[{"header":{"parameterUnit":"m.s-1","parameterCategory":1,"la1":30.6,"la2":28.766,"lo1":-90.7593,"lo2":-88.6598,"dy":0.0162,"dx":0.0183,"nx":116,"ny":114,"refTime":"2023-09-24T12:00:00:Z","depth":0,"parameterNumber":2,"parameterNumberName":"U-component_of_WINDS"},"data":[0.0,0.0,0.0,0.0,0.0,0.0,0.0,0.0,0.0,0.0,0.0,0.0,0.0,0.0,0.0,0.0,0.0,0.0,0.0,0.0,0.0,0.0,0.0,0.0,0.0,0.0,0.0,0.0,0.0,0.0,0.0,0.0,0.0,0.0,0.0,0.0,0.0,0.0,0.0,0.0,0.0,0.0,0.0,0.0,0.0,0.0,0.0,0.0,0.0,0.0,0.0,0.0,0.0,0.0,0.0,0.0,0.0,0.0,0.0,0.0,0.0,0.0,0.0,0.0,0.0,0.0,0.0,0.0,0.0,0.0,0.0,0.0,0.0,0.0,0.0,0.0,0.0,0.0,0.0,0.0,0.0,0.0,0.0,0.0,0.0,0.0,0.0,0.0,0.0,0.0,0.0,0.0,0.0,0.0,0.0,0.0,0.0,0.0,0.0,0.0,0.0,0.0,0.0,0.0,0.0,0.0,0.0,0.0,0.0,0.0,0.0,0.0,0.0,0.0,0.0,0.0,0.0,0.0,0.0,0.0,0.0,0.0,0.0,0.0,0.0,0.0,0.0,0.0,0.0,0.0,0.0,0.0,0.0,0.0,0.0,0.0,0.0,0.0,0.0,0.0,0.0,0.0,0.0,0.0,0.0,0.0,0.0,0.0,0.0,0.0,0.0,0.0,0.0,0.0,0.0,0.0,0.0,0.0,0.0,0.0,0.0,0.0,0.0,0.0,0.0,0.0,0.0,0.0,0.0,0.0,0.0,0.0,0.0,0.0,0.0,0.0,0.0,0.0,0.0,0.0,0.0,0.0,0.0,0.0,0.0,0.0,0.0,0.0,0.0,0.0,0.0,0.0,0.0,0.0,0.0,0.0,0.0,0.0,0.0,0.0,0.0,0.0,0.0,0.0,0.0,0.0,0.0,0.0,0.0,0.0,0.0,0.0,0.0,0.0,0.0,0.0,0.0,0.0,0.0,0.0,0.0,0.0,0.0,0.0,0.0,0.0,0.0,0.0,0.0,0.0,0.0,0.0,0.0,0.0,0.0,0.0,0.0,0.0,0.0,0.0,0.0,0.0,0.0,0.0,0.0,0.0,0.0,0.0,0.0,0.0,0.0,0.0,0.0,0.0,0.0,0.0,0.0,0.0,0.0,0.0,0.0,0.0,0.0,0.0,0.0,0.0,0.0,0.0,0.0,0.0,0.0,0.0,0.0,0.0,0.0,0.0,0.0,0.0,0.0,0.0,0.0,0.0,0.0,0.0,0.0,0.0,0.0,0.0,0.0,0.0,0.0,0.0,0.0,0.0,0.0,0.0,0.0,0.0,0.0,0.0,0.0,0.0,0.0,0.0,0.0,0.0,0.0,0.0,0.0,0.0,0.0,0.0,0.0,0.0,0.0,0.0,0.0,0.0,0.0,0.0,0.0,0.0,0.0,0.0,0.0,0.0,0.0,0.0,0.0,0.0,0.0,0.0,0.0,0.0,0.0,0.0,0.0,0.0,0.0,0.0,0.0,0.0,0.0,0.0,0.0,0.0,0.0,0.0,0.0,0.0,0.0,0.0,0.0,0.0,0.0,0.0,0.0,0.0,0.0,0.0,0.0,0.0,0.0,0.0,0.0,0.0,0.0,0.0,0.0,0.0,0.0,0.0,0.0,0.0,0.0,0.0,0.0,0.0,0.0,0.0,0.0,0.0,0.0,0.0,0.0,0.0,0.0,0.0,0.0,0.0,0.0,0.0,0.0,0.0,0.0,0.0,0.0,0.0,0.0,0.0,0.0,0.0,0.0,0.0,0.0,0.0,0.0,0.0,0.0,0.0,0.0,0.0,0.0,0.0,0.0,0.0,0.0,0.0,0.0,0.0,0.0,0.0,0.0,0.0,0.0,0.0,0.0,0.0,0.0,0.0,0.0,0.0,0.0,0.0,0.0,0.0,0.0,0.0,0.0,0.0,0.0,0.0,0.0,0.0,0.0,0.0,0.0,0.0,0.0,0.0,0.0,0.0,0.0,0.0,0.0,0.0,0.0,0.0,0.0,0.0,0.0,0.0,0.0,0.0,0.0,0.0,0.0,0.0,0.0,0.0,0.0,0.0,0.0,0.0,0.0,0.0,0.0,0.0,0.0,0.0,0.0,0.0,0.0,0.0,0.0,0.0,0.0,0.0,0.0,0.0,0.0,0.0,0.0,0.0,0.0,0.0,0.0,0.0,0.0,0.0,0.0,0.0,0.0,0.0,0.0,0.0,0.0,0.0,0.0,0.0,0.0,0.0,0.0,0.0,0.0,0.0,0.0,0.0,0.0,0.0,0.0,0.0,0.0,0.0,0.0,0.0,0.0,0.0,0.0,0.0,0.0,0.0,0.0,0.0,0.0,0.0,0.0,0.0,0.0,0.0,0.0,0.0,0.0,0.0,0.0,0.0,0.0,0.0,0.0,0.0,0.0,0.0,0.0,0.0,0.0,0.0,0.0,0.0,0.0,0.0,0.0,0.0,0.0,0.0,0.0,0.0,0.0,0.0,0.0,0.0,0.0,0.0,0.0,0.0,0.0,0.0,0.0,0.0,0.0,0.0,0.0,0.0,0.0,0.0,0.0,0.0,0.0,0.0,0.0,0.0,0.0,0.0,0.0,0.0,0.0,0.0,0.0,0.0,0.0,0.0,0.0,0.0,0.0,0.0,0.0,0.0,0.0,0.0,0.0,0.0,0.0,0.0,0.0,0.0,0.0,0.0,0.0,0.0,0.0,0.0,0.0,0.0,0.0,0.0,0.0,0.0,0.0,0.0,0.0,0.0,0.0,0.0,0.0,0.0,0.0,0.0,0.0,0.0,0.0,0.0,0.0,0.0,0.0,0.0,0.0,0.0,0.0,0.0,0.0,0.0,0.0,0.0,0.0,0.0,0.0,0.0,0.0,0.0,0.0,0.0,0.0,0.0,0.0,0.0,0.0,0.0,0.0,0.0,0.0,0.0,0.0,0.0,0.0,0.0,0.0,0.0,0.0,0.0,0.0,0.0,0.0,0.0,0.0,0.0,0.0,0.0,0.0,0.0,0.0,0.0,0.0,0.0,0.0,0.0,0.0,0.0,0.0,0.0,0.0,0.0,0.0,0.0,0.0,0.0,0.0,0.0,0.0,0.0,0.0,0.0,0.0,0.0,0.0,0.0,0.0,0.0,0.0,0.0,0.0,0.0,0.0,0.0,0.0,0.0,0.0,0.0,0.0,0.0,0.0,0.0,0.0,0.0,0.0,0.0,0.0,0.0,0.0,0.0,0.0,0.0,0.0,0.0,0.0,0.0,0.0,0.0,0.0,0.0,0.0,0.0,0.0,0.0,0.0,0.0,0.0,0.0,0.0,0.0,0.0,0.0,0.0,0.0,0.0,0.0,0.0,0.0,0.0,0.0,0.0,0.0,0.0,0.0,0.0,0.0,0.0,0.0,0.0,0.0,0.0,0.0,0.0,0.0,0.0,0.0,0.0,0.0,0.0,0.0,0.0,0.0,0.0,0.0,0.0,0.0,0.0,0.0,0.0,0.0,0.0,0.0,0.0,0.0,0.0,0.0,0.0,0.0,0.0,0.0,0.0,0.0,0.0,0.0,0.0,0.0,0.0,0.0,0.0,0.0,0.0,0.0,0.0,0.0,0.0,0.0,0.0,0.0,0.0,0.0,0.0,0.0,0.0,0.0,0.0,0.0,0.0,0.0,0.0,0.0,0.0,0.0,0.0,0.0,0.0,0.0,0.0,0.0,0.0,0.0,0.0,0.0,0.0,0.0,0.0,0.0,0.0,0.0,0.0,0.0,0.0,0.0,0.0,0.0,0.0,0.0,0.0,0.0,0.0,0.0,0.0,0.0,0.0,0.0,0.0,0.0,0.0,0.0,0.0,0.0,0.0,0.0,0.0,0.0,0.0,0.0,0.0,0.0,0.0,0.0,0.0,0.0,0.0,0.0,0.0,0.0,0.0,0.0,0.0,0.0,0.0,0.0,0.0,0.0,0.0,0.0,0.0,0.0,0.0,0.0,0.0,0.0,0.0,0.0,0.0,0.0,0.0,0.0,0.0,0.0,0.0,0.0,0.0,0.0,0.0,0.0,0.0,0.0,0.0,0.0,0.0,0.0,0.0,0.0,0.0,0.0,0.0,0.0,0.0,0.0,0.0,0.0,0.0,0.0,0.0,0.0,0.0,0.0,0.0,0.0,0.0,0.0,0.0,0.0,0.0,0.0,0.0,0.0,0.0,0.0,0.0,0.0,0.0,0.0,0.0,0.0,0.0,0.0,0.0,0.0,0.0,0.0,0.0,0.0,0.0,0.0,0.0,0.0,0.0,0.0,0.0,0.0,0.0,0.0,0.0,0.0,0.0,0.0,0.0,0.0,0.0,0.0,0.0,0.0,0.0,0.0,0.0,0.0,0.0,0.0,0.0,0.0,0.0,0.0,0.0,0.0,0.0,0.0,0.0,0.0,0.0,0.0,0.0,0.0,0.0,0.0,0.0,0.0,0.0,0.0,0.0,0.0,0.0,0.0,0.0,0.0,0.0,0.0,0.0,0.0,0.0,0.0,0.0,0.0,0.0,0.0,0.0,0.0,0.0,0.0,0.0,0.0,0.0,0.0,0.0,0.0,0.0,0.0,0.0,0.0,0.0,0.0,0.0,0.0,0.0,0.0,0.0,0.0,0.0,0.0,0.0,0.0,0.0,0.0,0.0,0.0,0.0,0.0,0.0,0.0,0.0,0.0,0.0,0.0,0.0,0.0,0.0,0.0,0.0,0.0,0.0,0.0,0.0,0.0,0.0,0.0,0.0,0.0,0.0,0.0,0.0,0.0,0.0,0.0,0.0,0.0,0.0,0.0,0.0,0.0,0.0,0.0,0.0,0.0,0.0,0.0,0.0,0.0,0.0,0.0,0.0,0.0,0.0,0.0,0.0,0.0,0.0,0.0,0.0,0.0,0.0,0.0,0.0,0.0,0.0,0.0,0.0,0.0,0.0,0.0,0.0,0.0,0.0,0.0,0.0,0.0,0.0,0.0,0.0,0.0,0.0,0.0,0.0,0.0,0.0,0.0,0.0,0.0,0.0,0.0,0.0,0.0,0.0,0.0,0.0,0.0,0.0,0.0,0.0,0.0,0.0,0.0,0.0,0.0,0.0,0.0,0.0,0.0,0.0,0.0,0.0,0.0,0.0,0.0,0.0,0.0,0.0,0.0,0.0,0.0,0.0,0.0,0.0,0.0,0.0,0.0,0.0,0.0,0.0,0.0,0.0,0.0,0.0,0.0,0.0,0.0,0.0,0.0,0.0,0.0,0.0,0.0,0.0,0.0,0.0,0.0,0.0,0.0,0.0,0.0,0.0,0.0,0.0,0.0,0.0,0.0,0.0,0.0,0.0,0.0,0.0,0.0,0.0,0.0,0.0,0.0,0.0,0.0,0.0,0.0,0.0,0.0,0.0,0.0,0.0,0.0,0.0,0.0,0.0,0.0,0.0,0.0,0.0,0.0,0.0,0.0,0.0,0.0,0.0,0.0,0.0,0.0,0.0,0.0,0.0,0.0,0.0,0.0,0.0,0.0,0.0,0.0,0.0,0.0,0.0,0.0,0.0,0.0,0.0,0.0,0.0,0.0,0.0,0.0,0.0,0.0,0.0,0.0,0.0,0.0,0.0,0.0,0.0,0.0,0.0,0.0,0.0,0.0,0.0,0.0,0.0,0.0,0.0,0.0,0.0,0.0,0.0,0.0,0.0,0.0,0.0,0.0,0.0,0.0,0.0,0.0,0.0,0.0,0.0,0.0,0.0,0.0,0.0,0.0,0.0,0.0,0.0,0.0,0.0,0.0,0.0,0.0,0.0,0.0,0.0,0.0,0.0,0.0,0.0,0.0,0.0,0.0,0.0,0.0,0.0,0.0,0.0,0.0,0.0,0.0,0.0,0.0,0.0,0.0,0.0,0.0,0.0,0.0,0.0,0.0,0.0,0.0,0.0,0.0,0.0,0.0,0.0,0.0,0.0,0.0,0.0,0.0,0.0,0.0,0.0,0.0,0.0,0.0,0.0,0.0,0.0,0.0,0.0,0.0,0.0,0.0,0.0,0.0,0.0,0.0,0.0,0.0,-0.7957,0.0,0.0,0.0,0.0,0.0,0.0,0.0,0.0,0.0,0.0,0.0,0.0,0.0,0.0,0.0,0.0,0.0,0.0,0.0,0.0,0.0,0.0,0.0,0.0,0.0,0.0,0.0,0.0,0.0,0.0,0.0,0.0,0.0,0.0,0.0,0.0,0.0,0.0,-0.0829,-0.0838,-0.0825,-0.0809,-0.0258,0.0021,0.0059,0.0,0.0,0.0,0.0,0.0,0.0,0.0,0.0,0.0,0.0,0.0,0.0,0.0,0.0,0.0,0.0,0.0,0.0,0.0,0.0,0.0,0.0,0.0,0.0,0.0,0.0,0.0,0.0,0.0,0.0,0.0,0.0,0.0,0.0,0.0,0.0,0.0,0.0,0.0,0.0,0.0,0.0,0.0,0.0,0.0,0.0,0.0,0.0,0.0,0.0,0.0,0.0,0.0,0.0,0.0,0.0,0.0,0.0,0.0,0.0,0.0,0.0,0.0,0.0,0.0,0.0,0.0,0.0,0.0,0.0,0.0,-0.7083,0.0,0.0,0.0,0.0,0.0,0.0,0.0,0.0,0.0,0.0,0.0,0.0,0.0,0.0,0.0,0.0,0.0,0.0,0.0,0.0,0.0,0.0,0.0,0.0,0.3663,0.1768,0.1434,0.0953,0.0,0.0,0.0,0.0,0.0,0.0,0.0,0.0,-0.0097,-0.027,-0.027,-0.0289,-0.0282,-0.0287,-0.0753,-0.1583,-0.1408,0.0,0.0,0.0,0.0,0.0,0.0,0.0,0.0,0.0,0.0,0.0,0.0,0.0,0.0,0.0,0.0,0.0,0.0,0.0,0.0,0.0,0.0,0.0,0.0,0.0,0.0,0.0,0.0,0.0,0.0,0.0,0.0,0.0,0.0,0.0,0.0,0.0,0.0,0.0,0.0,0.0,0.0,0.0,0.0,0.0,0.0,0.0,0.0,0.0,0.0,0.0,0.0,0.0,0.0,0.0,0.0,0.0,0.0,0.0,0.0,0.0,0.0,0.0,-0.9407,-0.9454,-0.9454,-0.9427,-0.9337,-0.9136,-0.7456,-0.684,-0.6963,-0.6565,0.0,0.0,0.0,0.0,0.0,0.0,0.0,0.0,0.0,0.0,0.0,0.0,0.0,0.0,0.0,0.0,0.0,0.0,0.0,0.0,0.0,0.3874,0.2857,0.1691,0.0758,0.0152,0.0,0.0,0.0,0.0,0.0,0.0,0.0,0.0,-0.045,-0.1386,-0.1397,-0.1389,-0.1396,-0.14,-0.1465,-0.1564,-0.0638,-0.0203,-0.0193,0.0,0.0,0.0,0.0,0.0,0.0,0.0,0.0,0.0,0.0,0.0,0.0,0.0,0.0,0.0,0.0,0.0,0.0,0.0,0.0,0.0,0.0,0.0,0.0,0.0,0.0,0.0,0.0,0.0,0.0,0.0,0.0,0.0,0.0,0.0,0.0,0.0,0.0,0.0,0.0,0.0,-0.4093,-0.424,0.0,0.0,0.0,0.0,0.0,0.0,0.0,0.0,0.0,0.0,0.0,0.0,0.0,-0.4855,-0.6277,-0.6998,-0.8136,-0.9737,-1.0263,-1.0514,-1.051,-1.0375,-1.0378,-1.0349,-0.8452,0.0,-0.9012,-0.8825,0.0,0.0,0.0,0.0,0.0,0.0,0.0,0.0,0.0,0.0,0.0,0.0,0.0,0.0,0.0,0.0,0.0,0.0,0.0,0.0,0.0,0.4228,0.3855,0.2248,0.2427,0.2287,0.146,0.1298,0.0,0.0,0.0,0.0,0.0,0.0,0.0236,0.0708,0.0601,0.0591,0.0678,-0.0247,-0.069,-0.0689,-0.0217,-0.0331,-0.087,-0.0252,0.0,0.0,0.0,0.0,0.0,0.0,0.0,0.0,0.0,0.0,0.0,0.0,0.0,0.0,0.0,0.0,0.0,0.0,0.0,0.0,0.0,0.0,0.0,0.0,0.0,0.0,0.0,0.0,0.0,0.0,0.0,0.0,0.0,0.0,0.0,0.0,0.0,0.0,0.0,-0.3739,-0.4018,-0.4905,-0.486,-0.5387,0.0,0.0,0.0,0.0,0.0,0.0,0.0,0.0,0.0,-0.4224,-0.5208,-0.6308,-0.7531,-0.8765,-0.9853,-1.0704,-1.0884,-1.0968,-1.0965,-1.0934,-1.0816,-1.0674,-0.9874,-0.9758,-1.0021,-0.8715,-0.8061,-0.7915,0.0,0.0,0.0,0.0,-0.5398,-0.4338,0.0,0.0,0.0,0.0,0.0,0.0,0.0,0.0,0.0,0.0,0.0,0.0,0.3888,0.4902,0.4984,0.3172,0.4025,0.4009,0.2516,0.2245,0.1501,0.0058,0.0,0.0,0.0,0.0423,0.1443,0.3064,0.2904,0.2713,0.2467,0.1172,0.0353,0.0,0.0,-0.0445,-0.1136,-0.0344,-0.0469,-0.1148,0.0,0.0,0.0,0.0,0.0,0.0,0.0,0.0,0.0,0.0,0.0,0.0,0.0,0.0,0.0,0.0,0.0,0.0,0.0,0.0,0.0,0.0,0.0,0.0,0.0,0.0,0.0,0.0,0.0,0.0,0.0,0.0,0.0,0.0,0.0,0.0,0.0,-0.4043,-0.3488,-0.4593,-0.3894,-0.4152,0.0,0.0,0.0,0.0,0.0,0.0,-0.4011,-0.4362,-0.4667,-0.4922,-0.6242,-0.7453,-0.8494,-0.9808,-1.0763,-1.1366,-1.1213,-1.1162,-1.1196,-1.1118,-1.0951,-1.0748,-1.0823,-1.0792,-1.0557,-0.8882,-0.8075,-0.7994,-0.8749,-0.8721,-0.8157,-0.7124,-0.6594,-0.6053,0.0,0.0,0.0,0.0,0.0,0.0,0.0,0.0,0.0,0.0,0.0,0.633,0.539,0.5692,0.5556,0.4495,0.4472,0.3859,0.2315,0.2092,0.1405,0.0055,0.0,0.0,0.0,0.155,0.3092,0.4586,0.4581,0.3855,0.2489,0.2217,0.1352,0.0,0.0,-0.0029,-0.0081,-0.0027,-0.0025,-0.0165,-0.1132,0.0,0.0,0.0,0.0,0.0,0.0,0.0,0.0,0.0,0.0,0.0,0.0,0.0,0.0,0.0,0.0,0.0,0.0,0.0,0.0,0.0,0.0,0.0,0.0,0.0,0.0,0.0,0.0,0.0,0.0,0.0,0.0,0.0,0.0,0.0,0.0,0.0,0.0,-0.1807,-0.199,0.0,0.0,0.0,0.0,-0.3912,-0.5425,-0.5794,-0.4538,-0.6215,-0.6714,-0.5605,-0.5634,-0.6597,-0.8477,-0.846,-0.9368,-1.1206,-1.0995,-1.1029,-1.1189,-1.087,-1.0779,-1.0894,-1.0759,-1.0694,-1.0671,-1.0439,-1.0258,-1.009,-0.9562,-0.8654,-0.7584,-0.7073,-0.6277,-0.5422,0.0,0.0,0.0,0.0,0.0,0.0,0.0,0.0,0.63,0.63,0.6539,0.6317,0.5307,0.6458,0.6875,0.5875,0.6653,0.6562,0.5069,0.3998,0.2785,0.1351,0.046,0.0437,0.1391,0.2847,0.3964,0.4694,0.3628,0.288,0.2478,0.132,0.0516,0.0,0.0,0.0,0.0,0.0,-0.0408,-0.1004,-0.0705,-0.1376,0.0,0.0,0.0,0.0,0.0,0.0,0.0,0.0,0.0,0.0,0.0,0.0,0.0,0.0,0.0,0.0,0.0,0.0,0.0,0.0,0.0,0.0,0.0,0.0,0.0,0.0,0.0,0.0,0.0,0.0,0.0,0.0,0.0,0.0,0.0,0.0,0.0,-0.2925,-0.2347,0.0,-0.3205,-0.2856,-0.3078,-0.4288,-0.426,-0.4468,-0.5156,-0.5953,-0.6757,-0.7583,-0.7518,-0.8392,-1.0356,-1.0216,-1.0516,-1.1196,-1.1016,-1.0941,-1.0988,-1.088,-1.0809,-1.0772,-1.0816,-1.0779,-1.0684,-1.066,-1.0609,-1.0541,-1.0327,-0.9928,-0.9441,-0.9277,-0.8989,-0.85,0.0,0.0,0.0,0.0,0.0,0.0,0.0,0.0,0.6334,0.6416,0.6664,0.6624,0.6081,0.7302,0.7905,0.7237,0.8063,0.7811,0.586,0.4723,0.3283,0.1402,0.0915,0.159,0.3533,0.4503,0.5327,0.6046,0.4492,0.3536,0.3126,0.1498,0.0471,0.0,0.0,0.0,0.0,0.0,-0.0398,-0.1018,-0.0676,-0.1576,-0.3021,0.0,0.0,0.0,0.0,0.0,0.0,0.0,0.0,0.0,0.0,0.0,0.0,0.0,0.0,0.0,0.0,0.0,0.0,0.0,0.0,0.0,0.0,0.0,0.0,0.0,0.0,0.0,0.0,0.0,0.0,0.0,0.0,0.0,0.0,-0.2465,-0.2064,-0.2942,-0.1954,-0.1592,-0.2542,-0.2354,-0.2703,-0.3987,-0.4529,-0.5301,-0.6519,-0.7276,-0.8273,-0.9502,-0.9464,-1.0031,-1.1314,-1.1114,-1.104,-1.109,-1.0907,-1.0836,-1.0836,-1.0836,-1.0439,-0.9816,-1.0538,-1.0429,-0.9845,-1.0435,-1.0688,-1.0688,-1.0688,-1.066,-1.0568,-1.0568,-1.0534,-1.0291,0.0,0.0,0.0,0.0,0.0,0.0,0.0,0.63,0.6402,0.6651,0.6931,0.7283,0.7719,0.8197,0.8495,0.8495,0.8495,0.7294,0.4451,0.4097,0.283,0.018,0.1347,0.3394,0.6247,0.6411,0.7196,0.8622,0.7283,0.587,0.4376,0.2888,0.1408,0.0,0.0,0.0,0.0,0.0,0.0,-0.0086,-0.1142,-0.2144,-0.3044,0.0,0.0,0.0,0.0,0.0,0.0,0.0,0.0,0.0,0.0,0.0,0.0,0.0,0.0,0.0,0.0,0.0,0.0,0.0,0.0,0.0,0.0,0.0,0.0,0.0,0.0,0.0,0.0,0.0,0.0,0.0,0.0,0.0,-0.2904,-0.2257,-0.155,-0.1546,-0.0631,0.0,0.0,-0.1758,-0.2902,-0.2972,-0.6418,-0.8508,-0.8577,-1.0299,-1.1259,-1.111,-1.11,-1.11,-1.11,-1.0826,-1.0762,-1.0907,-1.0759,-1.0688,-1.0688,-1.0688,-0.9751,-0.8183,-0.9938,-0.9703,-0.8225,-0.9984,-1.0684,-1.0688,-1.0688,-1.0684,-1.0681,-1.0681,-1.0609,-1.0405,0.0,0.0,0.0,0.0,0.0,0.0,0.0,0.63,0.633,0.6392,0.6824,0.7142,0.729,0.78,0.8135,0.8135,0.8135,0.7395,0.5629,0.4564,0.3244,0.1522,0.2731,0.4346,0.625,0.6185,0.6408,0.6966,0.5481,0.4036,0.2675,0.2242,0.1314,0.0,0.0,0.0,0.0,0.0,0.0,-0.0028,-0.0334,-0.1072,-0.2015,0.0,0.0,0.0,0.0,0.0,0.0,0.0,0.0,0.0,0.0,0.0,0.0,0.0,0.0,0.0,0.0,0.0,0.0,0.0,0.0,0.0,0.0,0.0,0.0,0.0,0.0,0.0,0.0,0.0,0.0,0.0,0.0,-0.02,-0.0829,-0.0636,-0.0449,-0.0434,-0.0173,0.0,0.0,-0.1668,-0.3308,-0.4614,-0.6981,-0.8904,-1.0181,-0.9649,-0.9277,-0.9242,-0.9148,-0.9095,-0.9095,-1.0149,-1.0708,-1.0748,-1.0708,-1.0688,-1.0688,-1.0688,-1.0432,-0.9984,-1.0368,-1.0325,-0.9987,-1.04,-1.0619,-1.0688,-1.0688,-1.0653,-1.0555,-1.0555,-1.0321,-0.9818,0.0,0.0,0.0,0.0,0.0,0.0,0.0,0.6567,0.6344,0.645,0.7331,0.7974,0.8091,0.9029,0.941,0.8874,0.885,0.7926,0.5757,0.4363,0.3648,0.3677,0.4412,0.551,0.6991,0.6905,0.6901,0.7024,0.5539,0.444,0.3651,0.3107,0.2428,0.1664,0.1677,0.1363,0.083,0.0844,0.0525,0.0,0.0,-0.0648,-0.1601,-0.1606,-0.223,-0.3104,-0.3106,-0.3112,-0.3021,-0.2418,0.0,0.0,0.0,0.0,0.0,0.0,0.0,0.0,0.0,0.0,0.0,0.0,0.0,0.0,0.0,0.0,0.0,0.0,0.0,0.0,0.0,0.0,0.0,0.0,0.0,0.0,0.0,0.0,0.0,0.0,0.0,0.0,0.0,-0.1684,-0.3544,-0.535,-0.7277,-0.9176,-1.0993,-1.0185,-0.9281,-0.8527,-0.908,-0.8992,-0.817,-0.9846,-1.0688,-1.0688,-1.0688,-1.0688,-1.0688,-1.0688,-1.0284,0.0,-1.0286,-1.0198,-0.9611,-1.0289,-1.0602,0.0,0.0,0.0,0.0,0.0,-1.0069,-0.9643,0.0,0.0,0.0,0.0,0.0,0.0,0.0,0.7042,0.6579,0.6867,0.8184,0.9261,0.9685,1.1029,1.1434,1.0317,1.004,0.8547,0.5339,0.388,0.3999,0.5918,0.6006,0.6629,0.7982,0.7988,0.7988,0.7988,0.6808,0.6154,0.5979,0.477,0.4141,0.3994,0.4009,0.3347,0.222,0.2234,0.1457,0.0222,0.0216,-0.0423,-0.1412,-0.1432,-0.1965,-0.2755,-0.2762,-0.2761,-0.2737,-0.2747,0.0,0.0,0.0,0.0,0.0,0.0,0.0,0.0,0.0,0.0,0.0,0.0,0.0,0.0,0.0,0.0,0.0,0.0,0.0,0.0,0.0,0.0,0.0,0.0,0.0,0.0,0.0,0.0,0.0,0.0,0.0,0.0,0.0,-0.1728,-0.363,-0.5436,-0.7373,-0.9289,-1.1209,0.0,0.0,0.0,0.0,-0.973,-0.8012,-0.9805,-1.0688,-1.0688,-1.0688,-1.0688,-1.0688,-1.0688,-0.9809,-0.8397,-0.9977,-0.9784,-0.8436,-1.0023,-1.0605,-1.0466,-1.0449,-1.0443,-1.0366,-0.9863,-0.9703,-0.9694,0.0,0.0,0.0,0.0,0.0,0.0,0.0,0.7629,0.7684,0.8159,0.8734,0.9615,1.0971,1.1577,1.1804,1.1556,1.0238,0.8258,0.5523,0.4091,0.4145,0.5921,0.6006,0.6629,0.7982,0.7988,0.7988,0.7988,0.7739,0.7058,0.6004,0.5727,0.5047,0.3991,0.4006,0.3862,0.3614,0.3606,0.2842,0.1605,0.1617,0.0837,-0.0303,-0.0301,-0.0433,-0.0592,-0.061,-0.0594,-0.0597,-0.0601,-0.0461,-0.0299,-0.0318,-0.0177,0.0,0.0,0.0,0.0,0.0,0.0,0.0,0.0,0.0,0.0,0.0,0.0,0.0,0.0,0.0,0.0,0.0,0.0,0.0,0.0,0.0,0.0,0.0,0.0,0.0,0.0,0.0,0.0,0.0,-0.1651,-0.3475,-0.5288,-0.7082,-0.8909,-1.0746,-0.9429,-0.8468,-0.8108,-0.8408,-0.8385,-0.8009,-0.9805,-1.0688,-1.0688,0.0,0.0,-1.0688,-1.0688,-1.0521,-1.0182,-1.044,-1.0407,-1.0185,-1.044,-1.0453,-1.0307,-1.0153,-1.0103,-0.9897,-0.827,-0.8437,-0.9272,0.0,0.0,0.0,0.0,0.0,0.0,0.0,0.8874,0.865,0.8909,0.9805,1.0815,1.1938,1.2076,1.1975,1.1639,0.9332,0.7464,0.6466,0.5682,0.5782,0.6942,0.6991,0.7318,0.7985,0.7988,0.7988,0.7988,0.7988,0.7662,0.7008,0.7008,0.6653,0.5997,0.5997,0.5622,0.4999,0.4995,0.4223,0.2997,0.2997,0.2599,0.1861,0.0523,0.0,0.0,0.0,0.0,0.0,0.0,0.0,0.0,0.0,0.0,0.0,0.0,0.0,0.0,0.0,0.0,0.0,0.0,0.0,0.0,0.0,0.0,0.0,0.0,0.0,0.0,0.0,0.0,0.0,0.0,0.0,0.0,0.0,0.0,0.0,0.0,0.0,0.0,0.0,-0.0819,-0.2104,-0.3898,-0.5687,-0.7511,-0.9405,-0.9392,-0.8991,-0.8191,-0.8919,-0.8927,-0.8009,-0.9805,-1.0688,-1.0688,-1.0688,-1.0688,-1.0688,-1.0688,-1.0688,-1.0684,-1.0639,-1.0605,-1.0588,-1.0361,-1.0273,-1.0256,-0.9994,-0.9903,-0.9788,-0.8725,-0.8791,-0.9269,0.0,0.0,0.0,0.0,0.0,0.0,0.0,1.0115,0.963,0.9743,1.0906,1.1924,1.2526,1.2424,1.1852,1.0748,0.8593,0.74,0.7627,0.7556,0.7783,0.8358,0.8137,0.7988,0.7988,0.7988,0.7988,0.7988,0.7988,0.7988,0.7988,0.7988,0.7988,0.7988,0.7988,0.7409,0.6381,0.6381,0.5622,0.4384,0.4394,0.423,0.3768,0.1599,0.0609,0.039,0.0375,0.0235,0.0,0.0,0.0,0.0,0.0,0.0,0.0,0.0,0.0,0.0,0.0,0.0,0.0,0.0,0.0,0.0,0.0,0.0,0.0,0.0,0.0,0.0,0.0,0.0,0.0,0.0,0.0,0.0,0.0,0.0,0.0,0.0,0.0,0.0,0.0,0.0,-0.0749,-0.2554,-0.4067,-0.5724,-0.7626,-0.8962,-0.9079,-0.7768,-0.8998,-0.9124,-0.8017,-0.9424,-1.0323,-1.0688,-1.0657,-1.0657,-1.0688,-1.0688,-1.0688,-1.0684,-1.0654,-1.0592,-1.0429,-1.013,-1.0092,-1.0209,-0.9927,-0.9792,-0.9768,-0.9629,-0.9307,-0.8974,0.0,0.0,0.0,0.0,0.0,0.0,0.0,0.0,1.0821,1.135,1.1587,1.1924,1.2526,1.2424,1.1238,0.8609,0.9458,0.9659,0.8541,0.8825,0.9278,0.9755,0.8627,0.7988,0.7988,0.7988,0.7988,0.7988,0.7988,0.7988,0.7988,0.7988,0.7988,0.7988,0.7988,0.7914,0.7786,0.7786,0.6992,0.5769,0.5782,0.5054,0.3962,0.3668,0.2817,0.1773,0.178,0.1015,0.0,0.0,0.0,0.0,0.0,0.0,0.0,0.0,0.0,0.0,0.0,0.0,0.0,0.0,0.0,0.0,0.0,0.0,0.0,0.0,0.0,0.0,0.0,0.0,0.0,0.0,0.0,0.0,0.0,0.0,0.0,0.0,0.0,0.0,0.0,0.0,-0.0741,-0.2552,-0.289,-0.3799,-0.5644,-0.5904,-0.5923,-0.5738,-0.5887,-0.665,-0.7977,-0.8082,-0.8998,-1.0684,-1.0582,-1.0588,-1.0688,-1.0688,-1.0688,-1.0681,-1.0575,-1.0436,-1.0322,-1.0089,-0.9997,-1.0028,-0.9856,-0.9792,-0.9758,-0.951,-0.8541,-0.7496,0.0,0.0,0.0,0.0,0.0,0.0,0.0,0.0,0.0,1.2024,1.2056,1.2272,1.2885,1.2118,1.0389,0.7502,0.8235,0.8791,0.8617,0.9121,0.9913,1.1049,0.985,0.9167,0.9167,0.8407,0.7988,0.7988,0.7988,0.7988,0.7988,0.7988,0.7988,0.7988,0.7988,0.7988,0.7988,0.7988,0.7686,0.7157,0.7157,0.683,0.6331,0.6329,0.5497,0.4125,0.2572,0.1645,0.0,0.1153,0.0652,0.0138,0.0915,0.0624,0.0,0.0,0.0,0.0,0.0,0.0,0.0,0.0,0.0,0.0,0.0,0.0,0.0,0.0,0.0,0.0,0.0,0.0,0.0,0.0,0.0,0.0,0.0,0.0,0.0,0.0,0.0,0.0,0.0,0.0,-0.03,-0.1071,-0.212,-0.3021,-0.3791,-0.4823,-0.5384,-0.5396,-0.541,-0.5744,-0.6483,-0.6426,-0.6818,-0.7607,-0.7563,-0.7565,-0.7636,-0.867,-0.9666,-1.0575,-1.0305,-1.0253,-1.0196,-0.8979,-0.9094,-0.9784,-0.7751,-0.8133,-0.9754,-0.949,-0.8997,-0.8489,0.0,0.0,0.0,0.0,0.0,0.0,0.0,0.0,0.0,0.0,1.2305,1.2345,1.2466,1.1289,0.959,0.7368,0.8084,0.8916,0.9478,1.0118,1.1068,1.2385,1.1214,1.0509,1.0509,0.9238,0.8552,0.8552,0.8184,0.7988,0.7988,0.7988,0.7988,0.7988,0.7988,0.7988,0.7988,0.7988,0.7988,0.7988,0.7988,0.7988,0.7988,0.7988,0.7176,0.5695,0.3372,0.2326,0.1955,0.1568,0.1046,0.0667,0.1268,0.1027,0.0489,0.0099,0.0,0.0,0.0,0.0,0.0,0.0,0.0,0.0,0.0,0.0,0.0,0.0,0.0,0.0,0.0,0.0,0.0,0.0,0.0,0.0,0.0,0.0,0.0,0.0,0.0,0.0,0.0,0.0,0.0,0.0,-0.1223,-0.1948,-0.1948,-0.3211,-0.39,-0.3922,-0.3915,-0.4142,-0.466,-0.4609,-0.4867,-0.5413,-0.536,-0.5334,-0.5429,-0.6703,-0.7908,-0.8992,-0.8743,-0.8696,-0.8709,-0.7277,-0.7444,-0.8352,-0.5861,-0.637,-0.8419,-0.8198,-0.8116,-0.8104,0.0,0.0,0.0,0.0,0.0,0.0,0.0,0.0,0.0,0.0,0.0,0.0,0.0,0.9761,0.8947,0.84,1.0205,1.1503,1.1772,1.249,1.3171,1.3807,1.2546,1.1853,1.1853,1.0583,0.9953,0.9953,0.8627,0.7988,0.7988,0.7988,0.7988,0.7988,0.7988,0.7988,0.7988,0.7988,0.7988,0.7988,0.7988,0.7988,0.7988,0.7988,0.7162,0.5811,0.4436,0.3093,0.1802,0.0502,0.089,0.1729,0.0447,0.093,0.1679,0.0371,0.0,0.0,0.0,0.0,0.0,0.0,0.0,0.0,0.0,0.0,0.0,0.0,0.0,0.0,0.0,0.0,0.0,0.0,0.0,0.0,0.0,0.0,0.0,0.0,0.0,0.0,0.0,0.0,0.0,0.0,-0.0067,-0.0067,-0.0067,-0.0133,-0.0166,-0.0168,-0.0164,-0.1006,-0.276,-0.2652,-0.3545,-0.5413,-0.5207,-0.5217,-0.5394,-0.5452,-0.5397,-0.5248,-0.5244,-0.5171,-0.5046,-0.501,-0.501,-0.5042,-0.4948,-0.4963,-0.5038,-0.4895,-0.4924,-0.5008,0.0,0.0,0.0,0.0,0.0,0.0,0.0,0.0,0.0,0.0,0.0,0.0,0.0,0.0,0.0,0.0,1.0294,1.1022,1.1606,1.2338,1.3304,1.4571,1.3726,1.3223,1.3223,1.194,1.0852,0.9998,0.9558,0.8871,0.7988,0.7988,0.7988,0.7988,0.7988,0.7988,0.7988,0.7988,0.7988,0.7988,0.7988,0.7988,0.789,0.7009,0.6397,0.5705,0.0,0.2387,0.1924,0.1472,0.1039,0.0752,0.1182,0.1031,0.0586,0.0135,0.0,0.0,0.0,0.0,0.0,0.0,0.0,0.0,0.0,0.0,0.0,0.0,0.0,0.0,0.0,0.0,0.0,0.0,0.0,0.0,0.0,0.0,0.0,0.0,0.0,0.0,0.0,0.0,0.0,0.0,0.0,0.0,0.0,0.0,0.0,0.0,0.0,-0.0287,-0.0896,-0.0879,-0.1161,-0.1823,-0.1735,-0.2393,-0.3617,-0.3502,-0.4061,-0.5083,-0.5003,-0.4938,-0.4821,-0.3741,-0.3937,-0.4685,-0.2487,-0.2973,-0.4625,-0.2412,-0.2302,-0.3424,0.0,0.0,0.0,0.0,0.0,0.0,0.0,0.0,0.0,0.0,0.0,0.0,0.0,0.0,0.0,0.0,0.0,1.1329,1.1935,1.2508,1.3362,1.4623,1.3872,1.3447,1.3447,1.233,1.135,1.0536,1.0174,0.9558,0.8701,0.8233,0.7988,0.7988,0.7988,0.7988,0.7988,0.7988,0.7988,0.7982,0.7902,0.7858,0.7751,0.6766,0.6085,0.0,0.3312,0.2262,0.1796,0.1417,0.1034,0.0777,0.1162,0.0699,0.0091,0.058,0.0384,0.0,0.0,0.0,0.0,0.0,0.0,0.0,0.0,0.0,0.0,0.0,0.0,0.0,0.0,0.0,0.0,0.0,0.0,0.0,0.0,0.0,0.0,0.0,0.0,0.0,0.0,0.0,0.0,0.0,0.0,0.0,0.0,0.0,0.0,0.0,0.0,0.0,0.0,0.0,0.0,0.0,0.0,-0.0611,-0.1724,-0.1646,-0.2216,-0.3282,-0.3178,-0.3152,-0.3059,-0.2032,-0.2207,-0.2947,-0.0827,-0.1285,-0.2906,-0.079,-0.0692,-0.174,0.0,0.0,0.0,0.0,0.0,0.0,0.0,0.0,0.0,0.0,0.0,0.0,0.0,0.0,0.0,0.0,0.0,0.0,1.2744,1.3046,1.346,1.4036,1.3182,1.2656,1.2607,1.1903,1.1489,1.1375,1.0432,0.9918,0.982,0.8555,0.7944,0.7944,0.7944,0.7944,0.7944,0.7944,0.7944,0.7946,0.7665,0.7577,0.7543,0.7145,0.6202,0.4969,0.3933,0.2757,0.1517,0.0443,0.0979,0.187,0.0612,0.0171,0.0356,0.1634,0.1053,0.0,0.0,0.0,0.0,0.0,0.0,0.0,0.0,0.0,0.0,0.0,0.0,0.0,0.0,0.0,0.0,0.0,0.0,0.0,0.0,0.0,0.0,0.0,0.0,0.0,0.0,0.0,0.0,0.0,0.0,0.0,0.0,0.0,0.0,0.0,0.0,0.0,0.0,0.0,0.0,0.0,0.0,0.0,0.0,0.0,0.0,0.0,0.0,0.0,0.0,0.0,0.0,0.0,0.0,0.0,0.0,0.0,0.0,0.0,0.0,0.0,0.0,0.0,0.0,0.0,0.0,0.0,0.0,0.0,0.0,0.0,0.0,0.0,0.0,0.0,0.0,0.0,1.243,1.2913,1.328,1.3427,1.3619,1.337,1.2613,1.241,1.1461,0.9703,0.945,0.8808,0.7841,0.748,0.7324,0.7324,0.7324,0.7324,0.7324,0.7324,0.7324,0.7318,0.7263,0.7235,0.7112,0.6034,0.5392,0.4926,0.3676,0.3008,0.2569,0.1537,0.2156,0.3311,0.3165,0.2437,0.1712,0.2041,0.1127,0.0,0.0,0.0,0.0,0.0,0.0,0.0,0.0,0.0,0.0,0.0,0.0,0.0,0.0,0.0,0.0,0.0,0.0,0.0,0.0,0.0,0.0,0.0,0.0,0.0,0.0,0.0,0.0,0.0,0.0,0.0,0.0,0.0,0.0,0.0,0.0,0.0,0.0,0.0,0.0,0.0,0.0,0.0,0.0,0.0,0.0,0.0,0.0,0.0,0.0,0.0,0.0,0.0,0.0,0.0,0.0,0.0,0.0,0.0,0.0,0.0,0.0,0.0,0.0,0.0,0.0,0.0,0.0,0.0,0.0,0.0,0.0,0.0,0.0,0.0,0.0,0.0,0.0,1.2625,1.2812,1.2812,1.2699,1.2381,1.1825,1.2078,1.1338,0.959,0.9704,0.9139,0.7965,0.7379,0.7095,0.7095,0.7095,0.7095,0.7095,0.7095,0.7095,0.0,0.0,0.6924,0.6826,0.5952,0.5622,0.5458,0.4234,0.3798,0.3783,0.3589,0.3692,0.4072,0.5072,0.4459,0.337,0.3241,0.22,0.0942,0.0188,0.0,0.0,0.0,0.0,0.0,0.0,0.0,0.0,0.0,0.0,0.0,0.0,0.0,0.0,0.0,0.0,0.0,0.0,0.0,0.0,0.0,0.0,0.0,0.0,0.0,0.0,0.0,0.0,0.0,0.0,0.0,0.0,0.0,0.0,0.0,0.0,0.0,0.0,0.0,0.0,0.0,0.0,0.0,0.0,0.0,0.0,0.0,0.0,0.0,0.0,0.0,0.0,0.0,0.0,0.0,0.0,0.0,0.0,0.0,0.0,0.0,0.0,0.0,0.0,0.0,0.0,0.0,0.0,0.0,0.0,0.0,0.0,0.0,0.0,0.0,0.0,0.0,1.2305,1.2305,1.1465,1.0932,1.0802,1.1313,1.1093,1.0073,1.0189,0.9779,0.8905,0.7602,0.7002,0.7002,0.7002,0.7002,0.7002,0.7002,0.7002,0.6979,0.6746,0.6641,0.6614,0.0,0.63,0.618,0.5237,0.4902,0.5057,0.5969,0.5473,0.4826,0.6642,0.6272,0.5132,0.4895,0.3864,0.2484,0.1012,0.0458,0.0308,0.0339,0.0154,0.0,0.0,0.0,0.0,0.0,0.0,0.0,0.0,0.0,0.0,0.0,0.0,0.0,0.0,0.0,0.0,0.0,0.0,0.0,0.0,0.0,0.0,0.0,0.0,0.0,0.0,0.0,0.0,0.0,0.0,0.0,0.0,0.0,0.0,0.0,0.0,0.0,0.0,0.0,0.0,0.0,0.0,0.0,0.0,0.0,0.0,0.0,0.0,0.0,0.0,0.0,0.0,0.0,0.0,0.0,0.0,0.0,0.0,0.0,0.0,0.0,0.0,0.0,1.3302,1.2305,0.0,0.0,0.0,0.0,0.0,0.0,0.0,0.0,0.0,1.2305,1.2132,1.1657,1.0826,1.089,1.0451,0.9451,0.8675,0.8204,0.7992,0.6941,0.6433,0.6433,0.6433,0.6433,0.6433,0.6433,0.6433,0.643,0.6399,0.6375,0.6371,0.632,0.0,0.0,0.6083,0.6025,0.6185,0.7286,0.7419,0.734,0.846,0.7844,0.6682,0.6536,0.5467,0.4247,0.3972,0.2871,0.1848,0.2026,0.1017,0.0,0.0,0.0,0.0,0.0,0.0,0.0,0.0,0.0,0.0,0.0,0.0,0.0,0.0,0.0,0.0,0.0,0.0,0.0,0.0,0.0,0.0,0.0,0.0,0.0,0.0,0.0,0.0,0.0,0.0,0.0,0.0,0.0,0.0,0.0,0.0,0.0,0.0,0.0,0.0,0.0,0.0,0.0,0.0,0.0,0.0,0.0,0.0,0.0,0.0,0.0,0.0,0.0,0.0,0.0,0.0,0.0,0.0,0.0,0.0,1.6905,1.6445,1.5992,1.4692,1.3611,1.3098,1.3025,1.2824,0.0,0.0,0.0,0.0,0.0,0.0,0.0,1.2305,1.207,1.1601,1.1583,1.1093,1.0078,0.0,0.8313,0.7783,0.6776,0.63,0.63,0.63,0.63,0.63,0.63,0.63,0.63,0.63,0.63,0.63,0.0,0.0,0.0,0.63,0.63,0.6433,0.7252,0.7499,0.7665,0.8981,0.8884,0.8059,0.6802,0.6166,0.5605,0.4435,0.3815,0.3311,0.2549,0.1826,0.1076,0.0194,0.0,0.0,0.0,0.0,0.0,0.0,0.0,0.0,0.0,0.0,0.0,0.0,0.0,0.0,0.0,0.0,0.0,0.0,0.0,0.0,0.0,0.0,0.0,0.0,0.0,0.0,0.0,0.0,0.0,0.0,0.0,0.0,0.0,0.0,0.0,0.0,0.0,0.0,0.0,0.0,0.0,0.0995,0.0277,0.0409,0.0984,0.0264,0.0,0.0,0.0,0.0,0.0,0.0,0.0,0.0,0.0,0.0,0.0,0.0,1.7371,1.6905,1.6905,1.6254,1.5429,1.4432,1.3954,1.3401,0.0,0.0,0.0,0.0,0.0,0.0,0.0,0.0,0.0,1.2305,0.0,0.0,1.1124,0.9895,0.0,0.0,0.0,0.0,0.0,0.63,0.63,0.63,0.63,0.63,0.0,0.0,0.63,0.0,0.0,0.0,0.0,0.0,0.63,0.6388,0.6921,0.7078,0.7294,0.8737,0.914,0.876,0.7037,0.6882,0.6886,0.529,0.5009,0.4875,0.3615,0.3132,0.2604,0.1179,0.0825,0.078,0.0678,0.0494,0.0339,0.0336,0.015,0.0,0.0,0.0245,0.0339,0.003,0.0244,0.0312,0.0032,0.0,0.0,0.0,0.0,0.0,0.0,0.0,0.0,0.0,0.0,0.0,0.0,0.0,0.0,0.0,0.0,0.0,0.0,0.0,0.0,0.0,0.0,0.0,0.0,0.0,0.0,0.0,0.0546,0.0783,0.1874,0.0524,0.0,0.0,0.0,0.0,0.0,0.0,0.0,0.0,0.0,0.0,0.0,0.0,1.794,1.7872,1.7872,1.7794,1.7381,1.6445,1.4764,1.3673,0.0,0.0,0.0,0.0,0.0,0.0,0.0,0.0,0.0,0.0,0.0,0.0,1.215,1.0239,0.0,0.0,0.0,0.0,0.0,0.0,0.63,0.63,0.63,0.0,0.0,0.0,0.0,0.0,0.0,0.0,0.0,0.0,0.63,0.6388,0.6921,0.7011,0.7022,0.7607,0.7935,0.8153,0.8232,0.8305,0.8427,0.8764,0.7794,0.674,0.6898,0.5698,0.4348,0.3772,0.3528,0.3325,0.2899,0.2097,0.1461,0.1452,0.0651,0.0,0.0,0.1028,0.1384,0.0167,0.1044,0.1353,0.0157,0.0,0.0,0.0,0.0,0.0,0.0,0.0,0.0,0.0,0.0,0.0,0.0,0.0,0.0,0.0,0.0,0.0,0.0,0.0,0.0,0.0,0.0,0.0,0.0,0.0,0.0,0.0,0.0543,0.0777,0.187,0.0529,0.0,0.0,0.0,0.0,0.0,0.0,0.0,0.0,0.0,0.0,0.0,1.7991,1.7991,1.7991,1.7991,1.7991,1.7862,1.7484,1.6254,1.4977,1.3792,0.0,0.0,0.0,0.0,0.0,0.0,0.0,0.0,0.0,0.0,1.2305,1.2305,1.029,0.0,0.0,0.0,0.0,0.0,0.0,0.63,0.63,0.63,0.0,0.0,0.0,0.0,0.0,0.0,0.0,0.0,0.0,0.0,0.6334,0.6552,0.6573,0.6542,0.6607,0.6715,0.6867,0.7209,0.7811,0.8372,0.8316,0.8425,0.8319,0.7453,0.6623,0.5679,0.4301,0.3837,0.3575,0.3188,0.2791,0.2546,0.267,0.2294,0.2017,0.2158,0.261,0.2527,0.1273,0.1542,0.1421,0.0157,0.0,0.0,0.0,0.0,0.0,0.0,0.0738,0.0855,0.003,0.0,0.0,0.0,0.0,0.0,0.0,0.0,0.0,0.0,0.0,0.0,0.0,0.0,0.0,0.0,0.0,0.0,0.0,0.0845,0.1218,0.2882,0.0819,0.0,0.0,0.0,0.0,0.0,0.0,0.0,0.0,0.0,0.0,1.7991,1.7991,1.7991,1.7991,1.7991,1.7991,1.7991,1.7991,1.7415,1.6341,1.47,1.4027,0.0,0.0,0.0,0.0,0.0,0.0,0.0,0.0,0.0,1.2305,1.2305,1.029,0.9296,0.0,0.0,0.63,0.63,0.0,0.0,0.0,0.0,0.0,0.0,0.0,0.0,0.0,0.0,0.0,0.0,0.0,0.0,0.0,0.0,0.0,0.6265,0.6023,0.5944,0.6012,0.6392,0.7223,0.8008,0.7889,0.8686,0.9262,0.8166,0.7673,0.7048,0.5528,0.486,0.4469,0.413,0.3827,0.3677,0.3826,0.3602,0.3431,0.3588,0.3642,0.3353,0.2498,0.2462,0.2021,0.0742,0.0623,0.0464,0.003,0.0,0.0,0.0,0.087,0.0987,0.0058,0.0,0.0,0.0,0.0,0.0,0.0,0.0,0.0,0.0,0.0,0.0221,0.058,0.0193,0.022,0.0575,0.0163,0.0,0.0,0.0905,0.1297,0.3039,0.0858,0.0,0.0,0.0,0.0,0.0,0.0,0.0,0.0,0.0,0.0,0.0,1.7991,1.7991,1.7991,1.7991,1.7991,1.7991,1.7991,1.7991,1.7596,1.6654,1.4817,0.0,0.0,0.0,0.0,0.0,0.0,0.0,0.0,0.0,1.2305,1.2305,1.029,0.9296,0.9258,0.723,0.63,0.63,0.0,0.0,0.0,0.0,0.0,0.0,0.0,0.0,0.0,0.0,0.0,0.0,0.0,0.0,0.0,0.0,0.0,0.0,0.0,0.5803,0.5891,0.6362,0.6927,0.7563,0.8301,0.8947,0.9452,0.9714,0.9234,0.8544,0.8068,0.7396,0.6761,0.6352,0.5537,0.4892,0.4882,0.418,0.3603,0.3595,0.3715,0.3789,0.3774,0.401,0.3624,0.2158,0.2106,0.1605,0.0154,0.0,0.0,0.0,0.0,0.0,0.0,0.0,0.0,0.0,0.0,0.0,0.0,0.0,0.0,0.0,0.0,0.0693,0.1941,0.0613,0.0712,0.0,0.0,0.0,0.0,0.0566,0.0795,0.1891,0.054,0.0,0.0,0.0,0.0,0.0,0.0,0.0,0.0,0.0,0.0,0.0,0.0,1.7991,1.7991,1.7991,1.7991,1.7991,1.7991,1.7991,1.7879,1.7579,1.5816,0.0,0.0,0.0,0.0,0.0,0.0,0.0,0.0,0.0,1.1959,1.1273,0.9951,0.8955,0.8237,0.6926,0.63,0.63,0.63,0.63,0.0,0.0,0.0,0.0,0.0,0.0,0.0,0.0,0.0,0.0,0.0,0.0,0.0,0.0,0.0,0.0,0.0,0.0,0.0,0.5875,0.6311,0.6876,0.7299,0.7855,0.8357,0.8527,0.825,0.7858,0.7482,0.7063,0.6702,0.6477,0.6201,0.6059,0.6235,0.6031,0.5635,0.4935,0.4866,0.4307,0.2678,0.2513,0.2086,0.0796,0.0665,0.0522,0.0031,0.0817,0.0983,0.0059,0.0838,0.0965,0.0057,0.0,0.0,0.0,0.0,0.0,0.0,0.0,0.0,0.0,0.0,0.0692,0.1966,0.0613,0.0744,0.0,0.0,0.0,0.0,0.0508,0.073,0.1733,0.048,0.0,0.0,0.0,0.0,0.0,0.0,0.0,0.0,0.0,0.0,0.0,0.0,1.7991,1.7991,1.7991,1.7991,1.7991,1.7991,1.7991,1.7991,1.7991,1.628,0.0,0.0,0.0,0.0,0.0,0.0,0.0,0.0,1.2305,1.1805,1.0802,0.9801,0.8789,0.7783,0.6776,0.63,0.63,0.63,0.63,0.0,0.0,0.0,0.0,0.0,0.0,0.63,0.0,0.0,0.0,0.0,0.0,0.0,0.0,0.0,0.0,0.0,0.0,0.0,0.0,0.5869,0.6263,0.6715,0.7256,0.778,0.7962,0.7705,0.7354,0.7139,0.6847,0.6607,0.6512,0.6215,0.6169,0.6784,0.658,0.6261,0.6078,0.5306,0.4366,0.3385,0.2984,0.2541,0.1797,0.1193,0.0606,0.0061,0.0748,0.0886,0.0058,0.0773,0.0,0.0056,0.0,0.0,0.0,0.0,0.0,0.0,0.0,0.0,0.0,0.0,0.0705,0.1953,0.0601,0.0731,0.0,0.0,0.0,0.0,0.0303,0.0451,0.1042,0.0302,0.0,0.0,0.0,0.0,0.0,0.0,0.0,0.0,0.0,0.0,0.0,0.0,1.7991,1.7991,1.7991,1.7991,1.7991,1.7991,1.794,1.7896,1.7896,0.0,0.0,0.0,0.0,0.0,0.0,0.0,0.0,1.2305,1.2224,1.1694,1.0696,0.9688,0.8675,0.7668,0.6737,0.63,0.63,0.63,0.63,0.0,0.0,0.0,0.0,0.63,0.63,0.0,0.0,0.0,0.0,0.0,0.0,0.0,0.0,0.0,0.0,0.0,0.0,0.0,0.0,0.0,0.0,0.0,0.7054,0.7556,0.7817,0.7469,0.7038,0.7048,0.677,0.0,0.6546,0.5865,0.5602,0.6738,0.6116,0.5764,0.6815,0.5079,0.4056,0.5318,0.483,0.4367,0.4455,0.3027,0.1531,0.0265,0.006,0.0,0.0,0.0,0.0,0.0,0.0,0.0,0.0,0.0,0.0,0.0,0.0,0.0052,0.0129,0.0051,0.0756,0.2088,0.0656,0.0731,0.0,0.0,0.0,0.0,0.0,0.0,0.0,0.0,0.0,0.0,0.0,0.0,0.0,0.0,0.0,0.0,0.0,0.0,0.0,0.0,0.0,0.0,0.0,1.7991,1.7991,1.7991,1.7354,1.6922,0.0,0.0,0.0,0.0,0.0,0.0,0.0,0.0,0.0,1.2305,1.1545,1.0658,0.965,0.8651,0.7629,0.6644,0.6412,0.63,0.63,0.63,0.63,0.0,0.0,0.0,0.0,0.63,0.63,0.0,0.0,0.0,0.0,0.63,0.63,0.0,0.0,0.0,0.0,0.0,0.0,0.0,0.0,0.5752,0.5789,0.5966,0.0,0.6424,0.6651,0.6593,0.6515,0.0,0.6569,0.6624,0.7086,0.7021,0.6969,0.7362,0.6481,0.573,0.5792,0.464,0.3896,0.4311,0.3421,0.3124,0.4155,0.2052,0.0782,0.1478,0.0593,0.0,0.0,0.0,0.0,0.0,0.0,0.0,0.0,0.0,0.0,0.0,0.0,0.0515,0.1521,0.048,0.1234,0.3441,0.1084,0.0731,0.0,0.0,0.0,0.0,0.0,0.0,0.0,0.0,0.0,0.0,0.0,0.0,0.0,0.0,0.0,0.0,0.0,0.0,0.0,0.0,0.0,0.0,0.0,0.0,0.0,0.0,0.0,0.0,0.0,0.0,0.0,0.0,0.0,0.0,0.0,0.0,1.2305,1.2305,1.1316,1.0303,0.9296,0.8294,0.7288,0.63,0.63,0.63,0.63,0.63,0.63,0.0,0.0,0.0,0.0,0.63,0.0,0.0,0.0,0.0,0.0,0.63,0.63,0.0,0.63,0.63,0.63,0.0,0.0,0.0,0.0,0.589,0.5922,0.6011,0.602,0.6096,0.6478,0.6481,0.645,0.6715,0.6729,0.6814,0.7297,0.6915,0.6721,0.755,0.66,0.5885,0.6418,0.5493,0.4569,0.4141,0.3518,0.3375,0.4111,0.2862,0.1944,0.0,0.079,0.0,0.0,0.0,0.0,0.0,0.0,0.0,0.0,0.0,0.0,0.0,0.0,0.0662,0.1988,0.0631,0.1084,0.3015,0.0932,0.0404,0.0,0.0,0.0,0.005,0.06,0.0501,0.0,0.0,0.0,0.0,0.0,0.0,0.0,0.0,0.0,0.0,0.0,0.0,0.0,0.0,0.0,0.0,0.0,0.0,0.0,0.0,0.0,0.0,0.0,0.0,0.0,0.0,0.0,0.0,0.0,0.0,1.2224,1.207,1.1087,1.0078,0.9069,0.8065,0.7138,0.63,0.63,0.63,0.63,0.63,0.63,0.0,0.0,0.0,0.0,0.63,0.0,0.0,0.0,0.0,0.0,0.0,0.0,0.0,0.63,0.63,0.63,0.63,0.0,0.0,0.0,0.0,0.0,0.6246,0.6199,0.6211,0.6769,0.6732,0.6675,0.7056,0.706,0.7092,0.7461,0.6635,0.6259,0.7636,0.6719,0.6205,0.7585,0.6718,0.5489,0.4361,0.4019,0.3976,0.4181,0.3831,0.0,0.2104,0.078,0.0,0.0,0.0,0.0,0.0,0.0,0.0,0.0,0.0,0.0,0.0,0.0,0.0681,0.1988,0.0631,0.0706,0.1962,0.0605,0.0,0.005,0.0,0.0,0.0076,0.1115,0.092,0.0,0.0,0.0,0.0,0.0,0.0,0.0,0.0,0.0,0.0,0.0,0.0,0.0,0.0,0.0,0.0,0.0,0.0,0.0,0.0,0.0,0.0,0.0,0.0,0.0,0.0,0.0,0.0,1.2305,1.2305,1.1904,1.105,1.0045,0.9031,0.8031,0.7022,0.6451,0.63,0.63,0.63,0.63,0.63,0.63,0.63,0.0,0.0,0.63,0.63,0.0,0.0,0.0,0.0,0.0,0.0,0.0,0.0,0.63,0.63,0.63,0.63,0.0,0.0,0.0,0.0,0.0,0.6293,0.6352,0.6508,0.682,0.6874,0.6921,0.7287,0.7342,0.7485,0.8042,0.7999,0.7917,0.8169,0.7284,0.6815,0.7668,0.6913,0.5748,0.4384,0.321,0.2915,0.4065,0.0,0.1015,0.1915,0.078,0.0,0.0,0.0,0.0,0.0,0.0,0.0,0.0,0.0,0.0,0.0,0.0,0.0681,0.1988,0.0631,0.0706,0.1962,0.0605,0.0,0.0,0.0,0.0176,0.0025,0.0201,0.0176,0.0,0.0,0.0,0.0,0.0,0.0,0.0,0.0,0.0,0.0,0.0,0.0,0.0,0.0,0.0,0.0,0.0,0.0,0.0,0.0,0.0,0.0,0.0,0.0,0.0,0.0,0.0,1.2052,1.1502,1.1484,1.1273,1.0802,0.9291,0.8256,0.7802,0.6795,0.63,0.63,0.63,0.63,0.63,0.63,0.63,0.63,0.63,0.63,0.63,0.0,0.0,0.0,0.0,0.0,0.0,0.0,0.0,0.0,0.0,0.63,0.63,0.63,0.0,0.0,0.0,0.0,0.0,0.6576,0.6668,0.6851,0.7371,0.724,0.7185,0.7852,0.7746,0.7689,0.8287,0.8155,0.8029,0.8352,0.7211,0.611,0.5796,0.4802,0.3838,0.3122,0.2469,0.2333,0.293,0.0,0.1328,0.1941,0.078,0.0,0.0,0.0,0.0,0.0,0.0,0.0,0.0,0.0,0.0,0.0,0.0,0.0681,0.1988,0.0631,0.0706,0.1962,0.0605,0.0,0.0025,0.0,0.06,0.005,0.0699,0.06,0.0,0.0,0.0,0.0,0.0,0.0,0.0,0.0,0.0,0.0,0.0,0.0,0.0,0.0,0.0,0.0,0.0,0.0,0.0,0.0,0.0,0.0,0.0,0.0,0.0,0.0,0.0,1.1601,1.082,1.0353,1.0091,1.0091,0.859,0.7687,0.7442,0.6679,0.63,0.63,0.63,0.63,0.63,0.63,0.63,0.63,0.63,0.63,0.63,0.0,0.0,0.0,0.0,0.0,0.0,0.0,0.0,0.0,0.0,0.0,0.0,0.0,0.0,0.0,0.647,0.6491,0.6559,0.6826,0.6908,0.7077,0.7783,0.759,0.7469,0.8454,0.8153,0.7892,0.8583,0.8248,0.8007,0.8499,0.7409,0.5922,0.4318,0.3273,0.2394,0.1635,0.1543,0.1539,0.1539,0.152,0.154,0.1525,0.0606,0.0,0.0,0.0,0.0,0.0,0.0,0.0,0.0,0.0,0.0,0.0,0.0,0.0504,0.1511,0.0479,0.053,0.1486,0.0479,0.0,0.005,0.0969,0.0846,0.0076,0.0993,0.0822,0.0,0.0,0.0,0.0,0.0,0.0,0.0,0.0,0.0,0.0,0.0,0.0,0.0,0.0,0.0,0.0,0.0,0.0,0.0,0.0,0.0,0.0,0.0,0.0,0.0,0.0,0.0,1.0882,1.0802,0.9007,0.8008,0.8008,0.7878,0.7346,0.6412,0.6338,0.63,0.63,0.63,0.63,0.63,0.63,0.63,0.63,0.63,0.63,0.63,0.63,0.0,0.0,0.0,0.0,0.0,0.0,0.0,0.0,0.0,0.0,0.0,0.0,0.0,0.6327,0.647,0.6491,0.6559,0.6826,0.6908,0.7053,0.7651,0.7695,0.7834,0.8896,0.8537,0.823,0.9137,0.895,0.8659,0.8845,0.8555,0.7401,0.4621,0.4125,0.3148,0.0519,0.0152,0.015,0.015,0.0148,0.0146,0.0144,0.0058,0.0,0.0,0.0,0.0,0.0,0.0,0.0,0.0,0.0,0.0,0.0,0.0,0.0051,0.0151,0.0051,0.005,0.0151,0.0051,0.0,0.0,0.0101,0.0076,0.0,0.0101,0.0076,0.0,0.0,0.0,0.0,0.0,0.0,0.0,0.0,0.0,0.0,0.0,0.0,0.0,0.0,0.0,0.0,0.0,0.0,0.0,0.0,0.0,0.0,0.0,0.0,0.0,0.0,1.1013,1.0241,0.8983,0.8199,0.7499,0.6872,0.6872,0.6679,0.63,0.63,0.63,0.63,0.63,0.63,0.63,0.63,0.63,0.63,0.63,0.63,0.63,0.63,0.63,0.0,0.0,0.0,0.0,0.0,0.0,0.0,0.0,0.63,0.63,0.63,0.63,0.6344,0.6563,0.6614,0.6678,0.6958,0.7107,0.7326,0.7804,0.7817,0.7957,0.8825,0.8699,0.8608,0.9158,0.8957,0.837,0.7302,0.7245,0.637,0.3328,0.2908,0.2263,0.0273,0.0,0.0,0.0,0.0,0.0,0.0,0.0,0.0,0.0,0.0,0.0,0.0,0.0,0.0,0.0,0.0,0.0,0.0,0.0,0.0,0.0,0.0,0.0,0.0,0.0,0.0,0.0,0.0,0.0,0.0,0.0,0.0,0.0,0.0,0.0,0.0,0.0,0.0,0.0,0.0,0.0,0.0,0.0,0.0,0.0,0.0,0.0,0.0,0.0,0.0,0.0,0.0,0.0,0.0,0.0,0.0,0.0,1.0378,1.004,0.9229,0.7859,0.7499,0.7003,0.6319,0.63,0.63,0.63,0.63,0.63,0.63,0.63,0.63,0.63,0.63,0.63,0.63,0.63,0.63,0.63,0.63,0.6272,0.0,0.0,0.0,0.0,0.0,0.0,0.0,0.0,0.63,0.6358,0.6679,0.6548,0.6416,0.6998,0.6982,0.6816,0.711,0.7292,0.7502,0.7902,0.7898,0.8021,0.8821,0.8852,0.8849,0.9334,0.9201,0.8567,0.7251,0.7232,0.6521,0.3862,0.3133,0.2402,0.0895,0.0295,0.0,0.0,0.0,0.0,0.0,0.0,0.0,0.0,0.0,0.0,0.0,0.0,0.0,0.0,0.0,0.0,0.0,0.0,0.0,0.0,0.0,0.0,0.0,0.0,0.0,0.0,0.0,0.0,0.0,0.0,0.0,0.0,0.0,0.0,0.0,0.0,0.0,0.0,0.0,0.0,0.0,0.0,0.0,0.0,0.0,0.0,0.0,0.0,0.0,0.0,0.0,0.0,0.0,0.0,0.0,0.0,0.9277,0.8351,0.7802,0.7783,0.6834,0.63,0.63,0.63,0.63,0.63,0.63,0.63,0.63,0.63,0.63,0.63,0.6303,0.6303,0.6296,0.63,0.63,0.6296,0.6296,0.6185,0.6025,0.0,0.0,0.0,0.0,0.0,0.0,0.0,0.6293,0.6486,0.7476,0.7115,0.6565,0.7821,0.7598,0.699,0.7311,0.7419,0.7505,0.7902,0.7902,0.8052,0.8971,0.8951,0.894,0.9829,0.9778,0.951,0.9233,0.9035,0.838,0.6755,0.5374,0.397,0.2431,0.0956,0.0029,0.0,0.0,0.0,0.0,0.0,0.0,0.0,0.0,0.0,0.0,0.0,0.0,0.0,0.0,0.0,0.0,0.0,0.0,0.0,0.0,0.0,0.0,0.0,0.0,0.0,0.0,0.0,0.0,0.0,0.0,0.0,0.0,0.0,0.0,0.0,0.0,0.0,0.0,0.0,0.0,0.0,0.0,0.0,0.0,0.0,0.0,0.0,0.0,0.0,0.0,0.0,0.0,0.0,0.0,0.0,0.8294,0.7974,0.748,0.6776,0.6451,0.63,0.63,0.63,0.63,0.63,0.63,0.63,0.63,0.63,0.63,0.631,0.6498,0.6393,0.6112,0.6341,0.6246,0.5957,0.5957,0.5911,0.5874,0.0,0.0,0.0,0.0,0.0,0.0,0.0,0.0,0.0,0.7426,0.7318,0.7171,0.8078,0.8159,0.7871,0.7505,0.8062,0.8598,0.8011,0.8082,0.8381,0.8757,0.8961,0.9155,0.9503,0.9451,0.9226,0.8896,0.9066,0.8635,0.6809,0.6249,0.5147,0.2562,0.1833,0.1163,0.011,0.0,0.0,0.0,0.0,0.0,0.0,0.0,0.0,0.0,0.0,0.0,0.0,0.0,0.0,0.0,0.0,0.0,0.0,0.0,0.0,0.0,0.0,0.0,0.0,0.0,0.0,0.0,0.0,0.0,0.0,0.0,0.0,0.0,0.0,0.0,0.0,0.0,0.0,0.0,0.0,0.0,0.0,0.0,0.0,0.0,0.0,1.0209,0.0,0.0,0.0,0.0,0.0,0.0,0.0,0.0,0.7215,0.6926,0.6319,0.63,0.63,0.63,0.63,0.63,0.63,0.63,0.63,0.63,0.63,0.625,0.6195,0.6356,0.6231,0.5934,0.6129,0.6066,0.58,0.58,0.5769,0.5725,0.0,0.0,0.0,0.0,0.0,0.0,0.0,0.0,0.0,0.8171,0.801,0.7665,0.8515,0.8442,0.8012,0.7659,0.8168,0.8705,0.8325,0.8803,0.9437,0.9678,0.9536,0.9424,0.9602,0.9479,0.9291,0.9022,0.9175,0.8923,0.7652,0.7035,0.6035,0.4179,0.3347,0.2397,0.0964,0.0796,0.0576,0.0051,0.0,0.0,0.0,0.0,0.0,0.0,0.0,0.0,0.0,0.0,0.0,0.0,0.0,0.0,0.0,0.0,0.0,0.0,0.0,0.0,0.0,0.0,0.0,0.0,0.0,0.0,0.0,0.0,0.0,0.0,0.0,0.0,0.0,0.0,0.0,0.0,0.0,0.0,0.0,0.0,0.0,0.0,0.0,0.9169,0.8789,0.0,0.0,0.0,0.0,0.0,0.0,0.0,0.0,0.6279,0.6279,0.6293,0.63,0.63,0.63,0.63,0.63,0.63,0.63,0.63,0.63,0.6195,0.5993,0.6039,0.5944,0.5783,0.581,0.5796,0.5762,0.5762,0.5684,0.56,0.5711,0.0,0.0,0.0,0.0,0.0,0.0,0.0,0.0,0.9315,0.8985,0.816,0.9149,0.8645,0.7813,0.7907,0.8119,0.8434,0.8936,0.9911,1.0807,1.1077,1.0341,0.9663,0.9903,0.9724,0.951,0.9413,0.9274,0.9128,0.8916,0.7744,0.6784,0.6529,0.5161,0.3708,0.2332,0.2195,0.1667,0.0303,0.0,0.0,0.0,0.0,0.0,0.0,0.0,0.0,0.0,0.0,0.0,0.0,0.0,0.0,0.0,0.0,0.0,0.0,0.0,0.0,0.0,0.0,0.0,0.0,0.0,0.0,0.0,0.0,0.0,0.0,0.0,0.0,0.0,0.0,0.0,0.0,0.0,0.0,0.0,0.0,0.0,0.0,0.0,0.0,0.0,0.0,0.0,0.0,0.0,0.0,0.0,0.0,0.0,0.6059,0.6059,0.6216,0.63,0.63,0.63,0.63,0.63,0.63,0.63,0.63,0.63,0.6195,0.6003,0.6274,0.612,0.565,0.5863,0.5779,0.5491,0.5491,0.547,0.5446,0.5477,0.547,0.0,0.0,0.0,0.0,0.0,0.0,0.0,0.9327,0.9462,0.9317,1.0201,0.9893,0.9191,0.8901,0.9772,1.0683,1.0384,1.0739,1.097,1.0149,0.97,0.9449,0.951,0.9261,0.9078,0.9216,0.9231,0.9094,0.8801,0.8483,0.7807,0.6518,0.6033,0.5259,0.3745,0.3568,0.3054,0.1712,0.0,0.0,0.0,0.0,0.0,0.0,0.0,0.0,0.0,0.0,0.0,0.0,0.0,0.0,0.0,0.0,0.0,0.0,0.0,0.0,0.0,0.0,0.0,0.0,0.0,0.0,0.0,0.0,0.0,0.0,0.0,0.0,0.0,0.0,0.0,0.0,0.0,0.0,0.0,0.0,0.0,0.0,0.0,0.0,0.0,0.0,0.0,0.0,0.0,0.0,0.0,0.0,0.0,0.5934,0.599,0.6195,0.63,0.63,0.63,0.63,0.63,0.63,0.63,0.63,0.63,0.6158,0.591,0.6081,0.592,0.5508,0.5644,0.5593,0.5395,0.5395,0.5395,0.5395,0.5395,0.5395,0.5395,0.5395,0.0,0.0,0.0,0.0,0.0,0.0,0.0,0.9798,1.0303,1.0218,0.9968,1.0031,1.0412,1.0798,1.088,1.0646,1.0381,1.0422,0.9838,0.9301,0.9301,0.9175,0.9062,0.9197,0.9063,0.8889,0.8737,0.8591,0.8207,0.7365,0.7163,0.6569,0.512,0.4949,0.4418,0.309,0.0,0.0,0.0,0.0,0.0,0.0,0.0,0.0,0.0,0.0,0.0,0.0,0.0,0.0,0.0,0.0,0.0,0.0,0.0,0.0,0.0,0.0,0.0,0.0,0.0,0.0,0.0,0.0,0.0,0.0,0.0,0.0,0.0,0.0,0.0,0.0,0.0,0.0,0.0,0.0,0.0,0.0,0.0,0.0,0.0,0.0,0.0,0.0,0.0,0.0,0.0,0.0,0.0,0.0,0.5964,0.6182,0.6286,0.6239,0.6239,0.6272,0.63,0.6272,0.6294,0.6396,0.6396,0.6233,0.5918,0.5918,0.5729,0.5395,0.5395,0.5395,0.5395,0.5395,0.5395,0.5395,0.5395,0.5395,0.5395,0.5395,0.5963,0.6834,0.7697,0.0,0.0,0.0,0.0,1.0048,1.0213,1.0255,1.0382,1.0987,1.0795,1.0514,1.0936,1.0563,1.0244,1.0823,1.0209,0.9479,0.9205,0.9145,0.9138,0.9111,0.8876,0.8696,0.8642,0.8454,0.8287,0.826,0.8094,0.7587,0.6481,0.6356,0.5827,0.4468,0.0,0.0,0.0,0.0,0.0353,0.0353,0.0126,0.0,0.0,0.0,0.0,0.0,0.0,0.0,0.0,0.0,0.0,0.0,0.0,0.0,0.0,0.0,0.0,0.0,0.0,0.0,0.0,0.0,0.0,0.0,0.0,0.0,0.0,0.0,0.0,0.0,0.0,0.0,0.0,0.0,0.0,0.0,0.0,0.3501,0.3488,0.0,0.0,0.0,0.0,0.0,0.0,0.5463,0.0,0.0,0.583,0.6127,0.6219,0.6045,0.6042,0.6125,0.63,0.6125,0.6309,0.682,0.682,0.6675,0.6403,0.6403,0.604,0.5395,0.5395,0.5395,0.5395,0.5395,0.5395,0.5395,0.5395,0.5395,0.5395,0.5395,0.5963,0.6834,0.7697,0.8581,0.0,0.0,0.0,1.0555,1.0814,1.0635,1.0526,1.1254,1.1763,1.1859,1.0969,1.1855,1.2329,1.0023,1.0289,1.0607,0.9238,0.894,0.8899,0.8794,0.8737,0.8625,0.8396,0.8321,0.825,0.8064,0.8027,0.7939,0.7761,0.7739,0.721,0.5852,0.0,0.0,0.0,0.2489,0.1737,0.1737,0.0631,0.0,0.0,0.0,0.0,0.0,0.0,0.0,0.0,0.0,0.0,0.0,0.0,0.0,0.0,0.0,0.0,0.0,0.0,0.0,0.0,0.0,0.0,0.0,0.0,0.0,0.0,0.0,0.0,0.0,0.0,0.0,0.0,0.0,0.0,0.0,0.0,0.0,0.2995,0.0,0.0,0.0,0.3362,0.3733,0.3951,0.3885,0.4531,0.4897,0.4897,0.5629,0.5969,0.5886,0.5883,0.5935,0.6022,0.5935,0.6339,0.7177,0.7177,0.6947,0.6505,0.6845,0.6416,0.5419,0.5757,0.5706,0.5395,0.5395,0.5446,0.5498,0.5429,0.5446,0.5494,0.5426,0.6272,0.7486,0.7881,0.8903,1.0095,1.0482,0.0,0.0,0.0,1.0983,1.0942,1.0899,1.184,1.2317,1.0132,1.1242,1.2197,0.9537,0.9887,1.038,0.8961,0.8682,0.8689,0.8706,0.8574,0.8447,0.8318,0.8197,0.8091,0.8023,0.7988,0.7988,0.7988,0.7988,0.7761,0.7185,0.0,0.0,0.0,0.3867,0.3115,0.3115,0.1843,0.1131,0.111,0.0382,0.0,0.0,0.0,0.0,0.0,0.0,0.0,0.0,0.0,0.0,0.0,0.0,0.0,0.0,0.0,0.0,0.0,0.0,0.0,0.0,0.0,0.0,0.0,0.0,0.0,0.0,0.0,0.0,0.0,0.0,0.0,0.0,0.0,0.0,0.0,0.0,0.0,0.0,0.0,0.2561,0.2694,0.2694,0.3436,0.3948,0.4145,0.5003,0.5565,0.5749,0.5511,0.5527,0.58,0.5527,0.6012,0.7168,0.7321,0.7131,0.6661,0.7134,0.6756,0.5797,0.6096,0.596,0.5549,0.5549,0.5549,0.5539,0.5481,0.5508,0.5593,0.5494,0.6572,0.8038,0.8009,0.916,1.0609,1.0609,1.0609,0.0,0.0,0.0,1.1265,1.0663,1.1671,1.2273,0.9832,1.1063,1.2255,1.0031,1.0249,1.0569,0.9257,0.8687,0.8488,0.8577,0.8444,0.8284,0.8243,0.8088,0.7988,0.7988,0.7988,0.7988,0.7988,0.7988,0.7988,0.7988,0.0,0.0,0.0,0.5272,0.4518,0.4518,0.3209,0.2449,0.2451,0.1167,0.0458,0.0449,0.0157,0.0,0.0,0.0,0.0,0.0,0.0,0.0,0.0,0.0,0.0,0.0,0.0,0.0,0.0,0.0,0.0,0.0,0.0,0.0,0.0,0.0,0.0,0.0,0.0,0.0,0.0,0.0,0.0,0.0,0.0,0.0,0.0,0.0158,0.0888,0.1374,0.1374,0.2193,0.2694,0.2694,0.2869,0.3277,0.3978,0.4372,0.0,0.5603,0.4737,0.4777,0.58,0.4777,0.506,0.6552,0.7124,0.7275,0.7061,0.7095,0.7016,0.6793,0.6252,0.6005,0.5974,0.5974,0.5745,0.5423,0.5545,0.56,0.5607,0.56,0.6711,0.8166,0.8049,0.916,1.0609,1.0609,1.0609,1.0593,0.0,0.0,0.0,1.0889,1.1357,1.1772,1.0904,1.2358,1.3615,1.2078,1.2126,1.2079,1.0595,0.9242,0.8311,0.8318,0.8308,0.8247,0.805,0.7995,0.7988,0.7988,0.7988,0.7988,0.7988,0.7988,0.7988,0.7988,0.0,0.0,0.0,0.6656,0.5904,0.5904,0.4493,0.3707,0.3705,0.2401,0.1715,0.1701,0.0561,0.0,0.0,0.0,0.0,0.0,0.0,0.0,0.0,0.0,0.0,0.0,0.0,0.0,0.0,0.0,0.0,0.0,0.0,0.0,0.0,0.0,0.0,0.0,0.0,0.0,0.0,0.0,0.0,0.0,0.0,0.0,0.0,0.0,0.0271,0.0471,0.0471,0.0773,0.0974,0.0974,0.154,0.1996,0.226,0.3493,0.4046,0.3738,0.4554,0.4865,0.4651,0.4865,0.5443,0.6381,0.6596,0.6831,0.7129,0.7901,0.7601,0.6549,0.6983,0.6566,0.5668,0.6227,0.6132,0.5688,0.5943,0.6096,0.6137,0.583,0.6898,0.8417,0.8199,0.9234,1.0609,1.0609,1.0609,1.0609,1.0609,1.0851,1.1064,1.0656,1.1485,1.2214,1.1078,1.2597,1.3864,1.1946,1.1706,1.1696,1.0981,0.9387,0.8314,0.8949,0.8549,0.8077,0.8023,0.7988,0.7988,0.7988,0.7988,0.7988,0.7988,0.7988,0.7988,0.7988,0.0,0.0,0.0,0.0,0.7245,0.7156,0.5837,0.5036,0.4962,0.3651,0.2589,0.1812,0.0606,0.0,0.0,0.0,0.0,0.0,0.0,0.0,0.0,0.0,0.0,0.0,0.0,0.0,0.0,0.0,0.0,0.0,0.0,0.0,0.0,0.0,0.0,0.0,0.0,0.0,0.0,0.0,0.0,0.0,0.0,0.0,0.0,0.0,0.0,0.0,0.0,0.0,0.0,0.0,0.0538,0.099,0.129,0.2459,0.2978,0.2711,0.3563,0.4015,0.3999,0.4334,0.5008,0.5999,0.6204,0.6491,0.6867,0.7864,0.7705,0.6777,0.7448,0.7078,0.6115,0.6576,0.6505,0.6122,0.6294,0.6402,0.6403,0.6234,0.7082,0.825,0.8152,0.9128,1.0377,1.0377,1.0464,1.0609,1.0609,1.0727,1.085,1.0754,1.1593,1.2337,1.1643,1.2929,1.3985,1.2558,1.1863,1.1462,1.127,0.9509,0.8206,0.8874,0.8459,0.7988,0.7988,0.7988,0.7988,0.7988,0.7988,0.7988,0.7988,0.7988,0.7988,0.7988,0.7988,0.0,0.0,0.0,0.0,0.7797,0.6945,0.62,0.5626,0.4694,0.3438,0.1812,0.1008,0.0404,0.0,0.0,0.0202,0.0583,0.018,0.0225,0.0584,0.018,0.0,0.0,0.0,0.0,0.0,0.0,0.0,0.0,0.0,0.0,0.0,0.0,0.0,0.0,0.0,0.0,0.0,0.0,0.0,0.0,0.0,0.0,0.0,0.0,0.0,0.0,0.0,0.0,0.0,0.0,0.0,0.037,0.1224,0.129,0.1708,0.2594,0.1775,0.2209,0.3965,0.3145,0.3647,0.5405,0.5999,0.6272,0.63,0.683,0.7256,0.7556,0.7587,0.7489,0.7314,0.7036,0.6826,0.6661,0.6569,0.645,0.6371,0.6755,0.7215,0.7657,0.7926,0.8849,0.9908,0.9921,1.0231,1.0609,1.0609,1.0609,1.072,0.0,0.0,0.0,1.2623,1.3434,1.4076,1.4089,1.2759,1.1524,1.1529,0.968,0.8031,0.8031,0.8013,0.7988,0.7988,0.7988,0.7988,0.7988,0.7988,0.7988,0.7988,0.7988,0.7988,0.7988,0.7988,0.0,0.0,0.7988,0.7949,0.7797,0.7801,0.7136,0.5692,0.5485,0.4265,0.1924,0.1879,0.1254,0.0045,0.0045,0.0673,0.1768,0.0583,0.0718,0.179,0.0606,0.009,0.0045,0.0022,0.0,0.0,0.0,0.0,0.0,0.0,0.0,0.0,0.0,0.0,0.0,0.0,0.0,0.0,0.0,0.0,0.0,0.0,0.0,0.0,0.0,0.0,0.0,0.0,0.0,0.0,0.0,0.0,0.0101,0.0353,0.0956,0.1124,0.0756,0.1776,0.2561,0.3061,0.3447,0.4251,0.5399,0.5566,0.5644,0.5672,0.6256,0.6488,0.6492,0.7278,0.6971,0.6061,0.7222,0.7033,0.6139,0.6973,0.6993,0.6624,0.6938,0.7482,0.804,0.8116,0.8932,0.9962,1.0306,1.049,1.0609,1.0609,1.0609,1.0673,1.1025,0.0,0.0,0.0,0.0,0.0,1.3647,1.2808,1.1999,1.2243,1.0571,0.9078,0.9078,0.8501,0.7988,0.7988,0.7988,0.7988,0.7988,0.7988,0.7988,0.7988,0.7988,0.7988,0.7988,0.0,0.0,0.0,0.7988,0.7949,0.7797,0.7607,0.7266,0.6694,0.5844,0.507,0.4421,0.3527,0.2503,0.1299,0.1299,0.1478,0.179,0.1456,0.1969,0.3081,0.2747,0.2102,0.1232,0.0359,0.0,0.0,0.0,0.0,0.0,0.0,0.0,0.0,0.0,0.0,0.0,0.0,0.0,-0.1125,-0.1125,-0.0789,-0.0538,0.0,0.0,0.0,0.0,0.0,0.0,0.0,0.0,0.0,0.0,0.0,0.0,0.0,0.0488,0.0521,0.0017,0.1392,0.231,0.2694,0.358,0.4486,0.5395,0.5395,0.5395,0.5412,0.5764,0.5855,0.5803,0.6603,0.6658,0.632,0.7181,0.7215,0.6779,0.738,0.7343,0.7027,0.7364,0.7653,0.7896,0.8057,0.8797,0.9704,0.9965,1.0308,1.0564,1.0377,1.0451,1.068,1.1062,1.1279,1.1535,1.2158,0.0,0.0,1.3186,1.2338,1.1527,1.1734,1.0212,0.8997,0.9424,0.9017,0.8623,0.8623,0.8623,0.848,0.8053,0.7988,0.7988,0.7988,0.7988,0.7988,0.7988,0.7988,0.7988,0.7988,0.7988,0.7949,0.7797,0.7556,0.7352,0.7241,0.6503,0.5869,0.5403,0.471,0.3749,0.2547,0.2547,0.2815,0.3285,0.2771,0.3215,0.433,0.3816,0.3191,0.2503,0.179,0.0919,0.0,0.0,0.0,0.0,0.0,0.0,0.0,0.0,0.0,-0.1457,-0.1457,-0.2143,-0.2694,-0.2694,-0.1993,-0.1457,0.0,-0.0689,-0.0101,-0.0017,0.0,0.0,0.0,0.0,0.0,0.0,0.0,0.0,0.0,0.0,0.0,0.0,0.0856,0.1758,0.2694,0.358,0.4486,0.5395,0.5395,0.5395,0.5395,0.5395,0.5395,0.5423,0.5786,0.6447,0.7233,0.7044,0.7334,0.7871,0.7692,0.7522,0.743,0.7847,0.776,0.7478,0.7931,0.8584,0.9256,0.9343,0.9924,1.0499,1.0108,1.0284,1.0747,1.1196,1.1359,1.1526,1.2037,1.245,0.0,1.2737,1.1761,1.0825,1.0743,0.949,0.8653,0.9466,0.9636,0.964,0.9661,0.9706,0.9377,0.8361,0.8088,0.8063,0.8212,0.8088,0.7988,0.7988,0.7988,0.7988,0.7988,0.7988,0.7949,0.7797,0.757,0.7413,0.7393,0.7198,0.6605,0.5603,0.5581,0.4976,0.3792,0.3792,0.4352,0.5359,0.4283,0.4463,0.5536,0.4461,0.3927,0.3792,0.3792,0.237,0.0202,0.0202,0.0112,0.0,0.0,0.0,0.0,0.0,-0.1792,-0.2427,-0.2427,-0.2577,-0.2694,-0.2694,-0.2544,-0.2427,-0.2427,-0.1626,-0.0772,-0.0084,0.0,0.0,0.0,0.0,0.0,0.0,0.0,0.0,0.0,0.0,0.0,0.0,0.0856,0.1758,0.2694,0.358,0.4486,0.5395,0.5395,0.5395,0.5395,0.5395,0.5395,0.5399,0.5487,0.5803,0.6329,0.7017,0.7231,0.7181,0.7722,0.7611,0.7239,0.781,0.7807,0.7663,0.8328,0.868,0.8922,0.959,1.0082,1.0444,1.0465,1.0676,1.0898,1.0794,1.1069,1.1379,1.1283,1.1824,0.0,1.2403,1.2376,1.2206,1.1621,1.1219,1.0854,1.0449,1.0393,1.0468,1.0732,1.097,1.0752,0.9751,0.8676,0.8407,0.9484,0.8651,0.7988,0.7988,0.7988,0.7988,0.7988,0.7988,0.7949,0.7797,0.7648,0.7522,0.7396,0.7198,0.6985,0.676,0.676,0.6182,0.5045,0.5045,0.5179,0.5381,0.5156,0.5667,0.676,0.6514,0.5891,0.5045,0.5045,0.3619,0.1456,0.1456,0.0852,0.0,0.0,0.0,0.0,-0.1909,-0.2728,-0.3347,-0.3347,-0.373,-0.4048,-0.4048,-0.3647,-0.3347,-0.3347,-0.216,-0.114,-0.0689,-0.0252,0.0,0.0,0.0,0.0,0.0,0.0,0.0,0.0,0.0,0.0,0.0,0.1308,0.2225,0.2694,0.4048,0.4938,0.5395,0.5395,0.5395,0.5395,0.5395,0.5395,0.5395,0.5395,0.5637,0.6069,0.6766,0.7082,0.7214,0.7787,0.7803,0.758,0.788,0.7918,0.7832,0.8063,0.8402,0.0,0.933,0.9919,1.041,0.0,1.0744,1.0978,1.0831,0.0,0.0,1.1413,0.0,0.0,0.0,1.2145,1.1907,1.1529,1.1169,1.099,1.1128,1.1149,1.1192,1.1374,1.1632,1.1687,1.1345,0.9961,0.8994,0.8994,0.8407,0.7988,0.7988,0.7988,0.7988,0.7988,0.7988,0.7949,0.7797,0.7743,0.7604,0.7403,0.7295,0.7195,0.7095,0.7095,0.6805,0.6248,0.6248,0.6248,0.6248,0.6248,0.6561,0.7095,0.7095,0.6782,0.6248,0.6248,0.5201,0.3528,0.2927,0.1969,0.0897,0.0897,0.0516,0.0,-0.2794,-0.3663,-0.4267,-0.4267,-0.4891,-0.5395,-0.5395,-0.4755,-0.4201,-0.4032,-0.2577,-0.1401,-0.0931,-0.0357,0.0119,0.0399,0.0417,0.031,0.0017,0.0258,0.0293,0.0017,0.0,0.0,0.0,0.1776,0.2694,0.2694,0.4519,0.5395,0.5395,0.5395,0.5395,0.5395,0.5395,0.5443,0.5525,0.5525,0.5749,0.6177,0.6651,0.7018,0.7325,0.781,0.7962,0.7898,0.7983,0.7988,0.7991,0.7851,0.8203,0.8752,0.9038,0.971,0.0,0.0,0.0,0.0,0.0,0.0,0.0,0.0,0.0,1.1848,0.0,0.0,0.0,1.1327,1.0954,1.0878,1.1752,1.1913,0.0,1.1984,0.0,0.0,0.0,1.1312,0.0,0.9083,0.8752,0.8606,0.8606,0.8417,0.8202,0.8013,0.7988,0.7959,0.7837,0.7804,0.7702,0.7485,0.7423,0.7312,0.7164,0.7109,0.7095,0.7095,0.7095,0.7095,0.7095,0.7095,0.7095,0.7095,0.7095,0.7095,0.7095,0.7095,0.6561,0.5603,0.4419,0.3215,0.2147,0.2147,0.1522,0.0695,-0.383,-0.4602,-0.5243,-0.5243,-0.5329,-0.5395,-0.5395,-0.5312,-0.4938,-0.4115,-0.3145,-0.1734,0.0418,0.0267,0.0525,0.1834,0.1943,0.1392,0.0085,0.1229,0.137,0.0051,0.0,0.0,0.0,0.1776,0.2694,0.2694,0.4519,0.5395,0.5395,0.5395,0.5395,0.5395,0.5395,0.56,0.5934,0.5934,0.6194,0.6664,0.7134,0.711,0.6871,0.7692,0.777,0.7522,0.7871,0.7988,0.8069,0.0,0.8635,0.8763,0.0,0.979,1.0331,1.0038,0.0,0.0,0.0,0.0,0.0,0.0,1.1112,0.0,0.0,0.0,1.1819,1.1819,0.0,1.2188,1.2607,0.0,0.0,0.0,0.0,0.0,1.1957,1.2098,1.2333,1.2431,1.1441,1.0747,0.0,0.9888,0.8956,0.8077,0.7988,0.7982,0.7989,0.7861,0.7794,0.7763,0.7529,0.7386,0.7369,0.7188,0.7095,0.7095,0.7095,0.7095,0.7095,0.7095,0.7095,0.7095,0.7095,0.7095,0.7095,0.7095,0.7029,0.6786,0.5647,0.4463,0.3392,0.3392,0.3303,0.3193,-0.4805,-0.5123,-0.5395,-0.5395,-0.5395,-0.5395,-0.5395,-0.5395,-0.5259,-0.4871,-0.358,-0.1968,-0.0058,0.0828,0.1877,0.3402,0.3535,0.3211,0.2478,0.2289,0.1891,0.1193,0.0415,0.0236,0.0739,0.2026,0.2945,0.3447,0.4755,0.5395,0.5395,0.5395,0.5395,0.5395,0.5395,0.5627,0.5993,0.5993,0.6268,0.6715,0.6905,0.6868,0.68,0.7675,0.7898,0.776,0.7753,0.7868,0.7968,0.0,0.7938,0.0,0.0,0.0,0.0,0.9831,0.0,0.0,0.0,0.0,0.0,0.0,0.0,0.0,1.0858,0.0,1.1663,0.0,0.0,0.0,0.0,0.0,0.0,0.0,1.2952,0.0,0.0,0.0,1.2608,0.0,0.0,0.0,1.0219,0.0,0.0,0.0,0.7807,0.7797,0.7878,0.782,0.7811,0.7811,0.7611,0.7485,0.7393,0.7195,0.7095,0.7095,0.7095,0.7095,0.7095,0.7095,0.7095,0.7095,0.7095,0.7095,0.7095,0.7095,0.7095,0.7051,0.6583,0.5667,0.4641,0.4641,0.4194,0.3592,-0.4705,-0.5057,-0.5395,-0.5395,-0.5395,-0.5395,-0.5395,-0.4838,-0.4417,-0.4417,-0.2844,-0.1125,0.0399,0.118,0.2397,0.4372,0.4527,0.445,0.0,0.3392,0.2754,0.2615,0.0928,0.0595,0.1852,0.2421,0.3128,0.3999,0.4938,0.5395,0.5395,0.5395,0.5395,0.5395,0.5395,0.5627,0.6,0.6143,0.6471,0.6895,0.7017,0.7068,0.7104,0.7631,0.7908,0.7986,0.7773,0.7834,0.794,0.7541,0.7747,0.0,0.8422,0.0,0.9575,0.0,0.0,0.0,0.9887,0.0,0.0,0.0,0.0,0.0,0.0,0.0,0.0,0.0,0.0,0.0,0.0,0.0,1.2305,1.2305,0.0,1.2663,0.0,1.2912,0.0,0.0,0.0,0.0,0.0,0.0,0.0,0.7815,0.7658,0.7645,0.7746,0.779,0.7811,0.7811,0.7675,0.7546,0.7457,0.7215,0.7095,0.7095,0.7095,0.7095,0.7095,0.7095,0.7095,0.7095,0.7095,0.7095,0.7095,0.7095,0.7095,0.7095,0.7095,0.6583,0.5872,0.5872,0.5309,0.455,-0.2945,-0.4201,-0.5395,-0.5395,-0.5395,-0.5395,-0.5395,-0.3417,-0.191,-0.191,-0.0348,0.1345,0.2824,0.1235,0.1317,0.4435,0.4586,0.4548,0.4678,0.0,0.4342,0.4138,0.0,0.1046,0.3278,0.291,0.3128,0.3999,0.4938,0.5395,0.5395,0.5395,0.5395,0.5395,0.5395,0.5627,0.6039,0.6495,0.6939,0.741,0.7797,0.7948,0.7925,0.0,0.7662,0.7988,0.7978,0.0,0.0,0.8502,0.8654,0.0,0.0,0.0,0.0,0.0,0.0,0.0,0.0,0.0,0.0,0.9821,0.0,0.0,0.0,0.0,1.1089,0.0,0.0,0.0,0.0,0.0,1.2305,1.2305,1.2311,0.0,0.0,0.0,0.0,0.0,0.0,0.0,0.0,0.9727,0.8819,0.7698,0.76,0.76,0.7607,0.7736,0.7811,0.7811,0.7675,0.7597,0.7594,0.7269,0.7095,0.7095,0.7095,0.7095,0.7095,0.7095,0.7095,0.7095,0.7095,0.7095,0.7095,0.7095,0.7095,0.7095,0.7095,0.7073,0.7051,0.7051,0.7029,0.6985,-0.2587,-0.3195,-0.3613,-0.3613,-0.3607,-0.3609,-0.3609,-0.2912,-0.1997,-0.0884,0.0298,0.2015,0.4596,0.478,0.5084,0.6068,0.7058,0.7131,0.596,0.585,0.0,0.5725,0.3745,0.3189,0.0,0.0,0.4327,0.4921,0.5243,0.5395,0.5395,0.5395,0.5395,0.5395,0.5395,0.5627,0.6023,0.6508,0.6981,0.741,0.7536,0.7597,0.7614,0.0,0.7885,0.7988,0.7988,0.7988,0.0,0.7868,0.8004,0.8184,0.7915,0.8321,0.8806,0.8379,0.8743,0.0,0.0,0.0,0.8935,0.9061,0.0,0.0,0.0,0.0,0.0,0.0,0.0,0.0,0.0,0.0,1.2305,1.2305,1.2305,1.2305,0.0,1.2403,0.0,1.2599,1.2732,1.2182,0.0,0.0,0.0,0.7592,0.7353,0.7317,0.7467,0.759,0.7712,0.7807,0.7675,0.76,0.76,0.7273,0.7095,0.7095,0.7095,0.7095,0.7095,0.7095,0.7095,0.7095,0.7095,0.7095,0.7095,0.7095,0.7095,0.7095,0.7095,0.7095,0.7095,0.7095,0.7095,0.7095,-0.1531,-0.1744,-0.1944,-0.2594,-0.2703,-0.2523,-0.197,-0.1627,-0.0637,0.1581,0.2175,0.3344,0.5908,0.6223,0.6426,0.6859,0.7295,0.7501,0.7461,0.5892,0.0,0.7215,0.4771,0.4158,0.0,0.0,0.0,0.5937,0.5579,0.5477,0.5613,0.547,0.5395,0.5395,0.5395,0.5539,0.583,0.6441,0.6868,0.7168,0.7331,0.7488,0.0,0.0,0.7875,0.7988,0.0,0.7988,0.7969,0.7706,0.7776,0.7962,0.7699,0.8,0.8384,0.8097,0.8394,0.8778,0.8521,0.8442,0.0,0.8663,0.8908,0.0,0.9269,0.0,0.0,0.0,0.0,0.0,0.0,0.0,1.1986,1.2264,1.2305,1.2305,0.0,1.2305,1.2305,1.2305,1.2421,1.1857,1.0242,0.982,0.8992,0.7334,0.7148,0.7161,0.0,0.0,0.7641,0.7733,0.7695,0.7651,0.76,0.735,0.7171,0.7095,0.7095,0.7095,0.7095,0.7095,0.7095,0.7095,0.7095,0.7095,0.7095,0.7095,0.7095,0.7095,0.7095,0.7095,0.7095,0.7095,0.7095,0.7095,0.0103,0.0,-0.0538,-0.2262,-0.2519,-0.1967,-0.0497,0.0488,0.2146,0.5159,0.5124,0.5344,0.6746,0.5717,0.5437,0.6692,0.5459,0.5845,0.8776,0.4863,0.0,0.0,0.4725,0.4174,0.7715,0.0,0.0,0.0,0.592,0.5637,0.5983,0.559,0.5395,0.5395,0.5395,0.5395,0.5453,0.6338,0.6712,0.677,0.7199,0.7607,0.7935,0.7556,0.7648,0.7988,0.7988,0.7988,0.7988,0.7988,0.7988,0.7988,0.7988,0.7988,0.7988,0.7988,0.7988,0.7988,0.7988,0.7988,0.8105,0.8555,0.0,0.0,0.0,0.0,0.9376,0.0,0.0,0.0,0.0,0.0,0.0,1.2133,1.2281,1.2305,1.2305,1.2261,1.2224,1.2224,1.1565,1.0695,0.9669,0.9067,0.8235,0.7054,0.7048,0.7085,0.0,0.0,0.7594,0.76,0.7723,0.7729,0.76,0.7464,0.7285,0.7095,0.7095,0.7095,0.7095,0.7095,0.7095,0.7095,0.7095,0.7095,0.7095,0.7095,0.7095,0.7095,0.7095,0.7095,0.7095,0.7095,0.7095,0.7095,0.0222,0.0,-0.0152,-0.0605,0.0123,0.0959,0.1456,0.2702,0.3912,0.482,0.5827,0.6623,0.7012,0.7735,0.7399,0.5439,0.5895,0.0,0.0,0.0,0.0,0.8753,0.7581,0.7162,0.7787,0.7313,0.6949,0.6759,0.0,0.6049,0.5983,0.559,0.5395,0.5395,0.5395,0.5395,0.5453,0.6338,0.6892,0.7202,0.6981,0.7143,0.7553,0.0,0.7648,0.7988,0.7988,0.7988,0.7988,0.7988,0.7988,0.7988,0.7988,0.7988,0.7988,0.7988,0.7988,0.7988,0.7988,0.7988,0.8036,0.8157,0.8445,0.8737,0.0,0.0,0.0,0.0,0.0,0.0,0.0,0.0,0.0,1.1453,1.1936,1.2305,1.2305,1.1657,1.1186,1.1186,1.0364,1.0005,1.0559,0.9806,0.8905,0.7944,0.7296,0.6962,0.6962,0.0,0.0,0.7597,0.7549,0.7542,0.76,0.731,0.7158,0.7095,0.7095,0.7095,0.7095,0.7095,0.7095,0.7095,0.7095,0.7095,0.7095,0.7095,0.7095,0.7095,0.7095,0.7095,0.7095,0.7095,0.7095,0.7095,0.0257,0.0,0.0,0.0,0.1709,0.3146,0.328,0.39,0.4913,0.6462,0.6808,0.7177,0.7809,0.8728,0.8556,0.6698,0.6108,0.0,0.6388,0.0,0.0,0.8776,0.8147,0.7759,0.7891,0.782,0.0,0.7095,0.0,0.6217,0.6289,0.5681,0.5395,0.5395,0.5395,0.5395,0.5453,0.6338,0.6981,0.7372,0.7117,0.7265,0.0,0.7467,0.7648,0.7988,0.7988,0.7988,0.7988,0.7988,0.7988,0.7988,0.7988,0.7988,0.7988,0.7988,0.7988,0.7988,0.7988,0.7988,0.7988,0.7988,0.8205,0.8404,0.8404,0.8578,0.8725,0.0,0.0,0.0,0.0,0.0,0.0,1.0246,1.0686,0.0,0.0,0.0,0.0,1.0756,1.0015,0.9865,1.0821,0.9651,0.8464,0.7538,0.7048,0.6837,0.0,0.0,0.0,0.7522,0.7543,0.7543,0.7522,0.7329,0.7185,0.7095,0.7095,0.7095,0.7095,0.7095,0.7095,0.7095,0.7095,0.7095,0.7095,0.7095,0.7095,0.7095,0.7095,0.7095,0.7095,0.7095,0.7095,0.7095,0.0257,0.0,0.0068,0.0257,0.2459,0.4368,0.49,0.4922,0.0,0.8543,0.0,0.7429,0.8499,0.8946,0.9014,0.8644,0.6268,0.5875,0.8452,0.4961,0.4618,0.8698,0.764,0.7293,0.8022,0.7932,0.7821,0.0,0.0,0.6316,0.6681,0.5815,0.5395,0.5395,0.5395,0.546,0.5617,0.6305,0.6909,0.7393,0.7393,0.7604,0.7891,0.7584,0.7699,0.7988,0.7988,0.7988,0.7988,0.7988,0.7988,0.7988,0.7988,0.7988,0.7988,0.7988,0.7988,0.7988,0.7988,0.7988,0.7988,0.7988,0.7988,0.7988,0.7988,0.7988,0.7988,0.7988,0.7988,0.8203,0.0,0.0,0.0,0.9094,0.0,0.0,0.0,0.0,0.9782,1.0528,0.0,0.0,0.0,0.886,0.762,0.6739,0.6664,0.0,0.0,0.0,0.0,0.7362,0.759,0.7617,0.7427,0.0,0.7285,0.7148,0.7088,0.7078,0.7095,0.7095,0.7095,0.7095,0.7095,0.7095,0.7095,0.7095,0.7095,0.7095,0.7095,0.7095,0.7095,0.7095,0.7095,0.7095,0.0257,0.0,0.0381,0.1599,0.2255,0.3481,0.612,0.755,0.8081,0.7392,0.8159,0.8323,0.7217,0.82,0.8435,0.7208,0.6625,0.0,0.0,0.0,0.0,0.8666,0.8488,0.8318,0.826,0.8345,0.8231,0.0,0.0,0.6725,0.6681,0.5815,0.5395,0.5395,0.5395,0.5808,0.6451,0.6218,0.0,0.7393,0.7393,0.744,0.7542,0.7787,0.7946,0.7988,0.7988,0.7988,0.7988,0.7988,0.7988,0.7988,0.7988,0.7988,0.7988,0.7988,0.7988,0.7988,0.7988,0.7988,0.7988,0.7988,0.7988,0.7988,0.7988,0.7988,0.7988,0.7988,0.7988,0.8049,0.8164,0.0,0.0,0.0,0.0,0.0,0.0,0.0,0.0,0.0,0.0,0.7186,0.0,0.0,0.7771,0.7583,0.692,0.0,0.0,0.0,0.0,0.0,0.7208,0.0,0.0,0.0,0.7208,0.7352,0.706,0.6984,0.7095,0.7095,0.7095,0.7095,0.7095,0.7095,0.7095,0.7095,0.7095,0.7095,0.7095,0.7095,0.7095,0.7095,0.7095,0.7095,0.1268,0.0525,0.0223,0.0935,0.2409,0.0,0.0,0.7709,0.891,0.8039,0.8519,0.8621,0.7818,0.8443,0.86,0.7913,0.7136,0.7019,0.7793,0.7065,0.7235,0.8632,0.8635,0.8381,0.7957,0.8243,0.8175,0.7692,0.0,0.0,0.6681,0.5815,0.5395,0.5405,0.562,0.5949,0.635,0.0,0.0,0.7416,0.7624,0.7719,0.774,0.7932,0.7988,0.7988,0.7988,0.7988,0.7988,0.7988,0.7988,0.7988,0.7988,0.7988,0.7988,0.7988,0.7988,0.7988,0.7988,0.7988,0.7996,0.7915,0.7956,0.7993,0.7915,0.7959,0.7988,0.7988,0.7988,0.7946,0.7736,0.7934,0.0,0.0,0.0,0.0,0.0,0.0,0.7739,0.0,0.0,0.0,0.0,0.0,0.0,0.0,0.0,0.0,0.0,0.0,0.0,0.0,0.0,0.0,0.0,0.0,0.0,0.7389,0.7124,0.7031,0.7095,0.7095,0.7095,0.7095,0.7095,0.7095,0.7095,0.7095,0.7095,0.7095,0.7095,0.7095,0.7095,0.7095,0.7095,0.7095,0.2698,0.1747,0.1051,0.137,0.3225,0.488,0.5503,0.7339,0.8737,0.895,0.8825,0.8733,0.8733,0.8838,0.8776,0.8456,0.7637,0.7455,0.819,0.7408,0.7397,0.8432,0.8448,0.8204,0.7702,0.8041,0.8012,0.0,0.0,0.0,0.0,0.5896,0.5522,0.5542,0.0,0.0,0.0,0.0,0.745,0.7543,0.7871,0.7988,0.7988,0.7988,0.7988,0.7988,0.7988,0.7988,0.7988,0.7988,0.7988,0.7988,0.7988,0.7988,0.7988,0.7988,0.7988,0.7988,0.7988,0.7988,0.7986,0.7864,0.7925,0.7983,0.7861,0.7929,0.7988,0.7988,0.7988,0.7908,0.758,0.756,0.0,0.0,0.0,0.0,0.0,0.0,0.7034,0.0,0.0,0.0,0.7779,0.0,0.0,0.0,0.0,0.0,0.6484,0.0,0.0,0.0,0.0,0.728,0.7345,0.0,0.7331,0.7393,0.7161,0.7065,0.7095,0.7095,0.7095,0.7095,0.7095,0.7095,0.7095,0.7095,0.7095,0.7095,0.7095,0.7095,0.7095,0.7095,0.7095,0.7095,0.4284,0.4168,0.4492,0.0,0.0,0.5415,0.8084,0.7603,0.746,0.8986,0.9008,0.8889,0.8889,0.8902,0.8362,0.7016,0.789,0.7824,0.619,0.7477,0.8128,0.7726,0.8104,0.8201,0.7979,0.8013,0.8006,0.0,0.0,0.712,0.0,0.0,0.0,0.0,0.0,0.0,0.0,0.7359,0.7604,0.7956,0.7996,0.7988,0.7988,0.7988,0.7988,0.7988,0.7988,0.7988,0.7988,0.7988,0.7988,0.7988,0.7988,0.7988,0.7988,0.7988,0.7988,0.7988,0.7988,0.7988,0.7985,0.7971,0.7978,0.7985,0.7971,0.7978,0.7988,0.7988,0.7988,0.7978,0.7959,0.7746,0.7455,0.0,0.0,0.0,0.0,0.0,0.6889,0.7895,0.0,0.0,0.6666,0.6461,0.0,0.0,0.63,0.0,0.0,0.0,0.0,0.6712,0.0,0.6892,0.7115,0.7012,0.7105,0.7389,0.7063,0.697,0.7095,0.7095,0.7095,0.7095,0.7095,0.7095,0.7095,0.7095,0.7095,0.7095,0.7095,0.7095,0.7095,0.7095,0.7095,0.7095,0.0,0.0,0.0,0.0,0.0,0.0,0.0,0.7835,0.8249,0.8929,0.8946,0.8912,0.8912,0.8828,0.8541,0.7958,0.8309,0.8261,0.7473,0.802,0.8274,0.8039,0.8085,0.8077,0.7992,0.7988,0.7988,0.0,0.0,0.0,0.0,0.0,0.0,0.0,0.0,0.7226,0.7413,0.7658,0.7851,0.7988,0.7988,0.7988,0.7988,0.7988,0.7988,0.7988,0.7988,0.7988,0.7988,0.7988,0.7988,0.7988,0.7988,0.7988,0.7988,0.7988,0.7988,0.7971,0.7902,0.7946,0.7973,0.7797,0.7885,0.7969,0.7793,0.7817,0.7878,0.7878,0.7952,0.7988,0.7988,0.7918,0.7692,0.0,0.0,0.0,0.0,0.0,0.0,0.7566,0.0,0.6746,0.684,0.66,0.0,0.0,0.0,0.0,0.0,0.0,0.0,0.6806,0.0,0.7002,0.7391,0.7154,0.7141,0.7393,0.7134,0.7041,0.7095,0.7095,0.7095,0.7095,0.7095,0.7095,0.7095,0.7095,0.7095,0.7183,0.7907,0.8189,0.8255,0.8943,0.8772,0.8189,0.7339,0.0,0.5804,0.0,0.6667,0.7196,0.6777,0.7959,0.8746,0.8311,0.8598,0.8862,0.8906,0.8774,0.8528,0.8089,0.8298,0.8209,0.7625,0.7984,0.8168,0.8036,0.8003,0.0,0.7988,0.7988,0.7988,0.7988,0.7381,0.0,0.0,0.0,0.0,0.0,0.7366,0.7567,0.759,0.7881,0.7988,0.7988,0.7988,0.7988,0.7988,0.7988,0.7988,0.7988,0.7988,0.7988,0.7988,0.7988,0.7988,0.7988,0.7988,0.7988,0.7988,0.7988,0.7983,0.7922,0.7817,0.7864,0.7898,0.7712,0.7793,0.7895,0.7709,0.774,0.78,0.7844,0.7939,0.7988,0.7988,0.7988,0.7868,0.7467,0.0,0.0,0.0,0.687,0.0,0.7172,0.6838,0.6668,0.6897,0.6641,0.0,0.0,0.0,0.0,0.0,0.0,0.0,0.0,0.0,0.0,0.0,0.7121,0.7132,0.7393,0.7192,0.7095,0.7095,0.7095,0.7095,0.7095,0.7095,0.7095,0.7095,0.7095,0.7095,0.7183,0.8035,0.8584,0.8999,0.9792,0.9792,0.9405,0.8871,0.8868,0.8834,0.8834,0.8868,0.8377,0.6935,0.7951,0.837,0.6929,0.7872,0.8743,0.8896,0.8774,0.8125,0.6662,0.7613,0.7485,0.5555,0.7052,0.782,0.0,0.0,0.7988,0.7988,0.7988,0.7988,0.7988,0.0,0.0,0.7386,0.0,0.7379,0.7406,0.7807,0.7982,0.7982,0.7988,0.7988,0.7988,0.7988,0.7988,0.7988,0.7988,0.7988,0.7988,0.7988,0.7988,0.7988,0.7988,0.7988,0.7988,0.7988,0.7988,0.7988,0.7988,0.7908,0.7814,0.7811,0.7814,0.7814,0.7811,0.7811,0.7814,0.7811,0.7811,0.7827,0.7983,0.7988,0.7988,0.7988,0.7988,0.7868,0.7467,0.0,0.0,0.0,0.0,0.0,0.6709,0.6467,0.6361,0.6488,0.6388,0.0,0.0,0.0,0.0,0.0,0.0,0.0,0.6495,0.6381,0.0,0.6911,0.6783,0.6929,0.7393,0.7192,0.7095,0.7095,0.7095,0.7095,0.7095,0.7095,0.7095,0.7095,0.7095,0.7095,0.7095,0.7117,0.7841,0.8912,0.8912,0.9623,1.0589,0.6101,0.7514,0.8554,0.7447,0.8183,0.8679,0.8024,0.8401,0.8551,0.8001,0.8301,0.8574,0.8621,0.8496,0.823,0.0,0.7689,0.7547,0.0,0.7429,0.7655,0.7797,0.7672,0.7584,0.7584,0.7584,0.7584,0.7584,0.0,0.0,0.0,0.7393,0.7536,0.781,0.7952,0.7988,0.7988,0.7988,0.7988,0.7988,0.7988,0.7988,0.7988,0.7988,0.7988,0.7988,0.7988,0.7988,0.7988,0.7988,0.7988,0.7988,0.7988,0.7988,0.7993,0.7891,0.7824,0.7767,0.7567,0.7587,0.7641,0.7559,0.759,0.7641,0.7559,0.7594,0.7682,0.7729,0.7875,0.7988,0.7988,0.7988,0.7868,0.7467,0.7628,0.0,0.0,0.0,0.6941,0.6847,0.6681,0.662,0.677,0.6742,0.0,0.0,0.0,0.0,0.0,0.0,0.0,0.0,0.7063,0.0,0.7503,0.7154,0.7126,0.7393,0.7192,0.7171,0.7295,0.7164,0.7175,0.7292,0.7164,0.7095,0.7095,0.7095,0.7095,0.7183,0.8017,0.8562,0.9082,1.0632,1.0956,1.0718,0.628,0.761,0.8571,0.7582,0.8197,0.8585,0.7862,0.8236,0.8384,0.7758,0.8105,0.843,0.843,0.8272,0.0,0.8291,0.7896,0.774,0.7971,0.7753,0.7746,0.7978,0.7749,0.7624,0.7624,0.7624,0.0,0.7624,0.7624,0.7624,0.7624,0.7624,0.7749,0.7988,0.7988,0.7988,0.7988,0.7988,0.7988,0.7988,0.7988,0.7988,0.7988,0.7988,0.7988,0.7988,0.7988,0.7988,0.7988,0.7988,0.7988,0.7988,0.7988,0.7976,0.7908,0.7814,0.7811,0.776,0.7542,0.7567,0.7645,0.7519,0.7529,0.756,0.743,0.7467,0.7546,0.7655,0.78,0.7946,0.7978,0.7988,0.7922,0.7668,0.7831,0.784,0.7428,0.0,0.0,0.0,0.0,0.0,0.0,0.6964,0.6924,0.0,0.0,0.0,0.0,0.0,0.0,0.7275,0.7285,0.0,0.7729,0.7374,0.7333,0.7559,0.7361,0.7363,0.7478,0.7356,0.7366,0.7471,0.7295,0.7205,0.7198,0.7141,0.7095,0.7183,0.7929,0.8496,0.9126,1.0977,1.1488,1.1407,0.8431,0.8669,0.8848,0.0,0.8699,0.0,0.6819,0.7673,0.7982,0.6592,0.7508,0.8281,0.8281,0.8101,0.8074,0.8267,0.0,0.0,0.0,0.7986,0.7983,0.7988,0.7986,0.7969,0.7969,0.7969,0.7983,0.7988,0.7988,0.7988,0.7988,0.7988,0.7988,0.7988,0.7988,0.7988,0.7988,0.7988,0.7988,0.7988,0.7988,0.7988,0.7988,0.7988,0.7988,0.7988,0.7988,0.7988,0.7988,0.7988,0.7988,0.7988,0.7988,0.7915,0.78,0.7801,0.7797,0.7767,0.7624,0.7682,0.775,0.7617,0.7573,0.7533,0.741,0.7386,0.7471,0.7723,0.7787,0.7817,0.7969,0.7975,0.7975,0.7975,0.7975,0.7935,0.7753,0.0,0.0,0.0,0.0,0.0,0.0,0.7132,0.7082,0.0,0.0,0.0,0.0,0.0,0.6736,0.7129,0.7152,0.7317,0.7628,0.7502,0.7559,0.7794,0.7662,0.7604,0.7614,0.7604,0.7604,0.7604,0.7464,0.7393,0.7382,0.7181,0.7095,0.7095,0.7095,0.7775,0.893,1.0161,1.1273,1.2376,0.0,0.0,0.8362,0.7122,0.7823,0.8346,0.7747,0.8052,0.8164,0.7671,0.788,0.8071,0.8071,0.8037,0.803,0.8067,0.7746,0.7675,0.7993,0.7719,0.7682,0.7975,0.7712,0.7553,0.7553,0.7553,0.7695,0.7988,0.7988,0.7988,0.7988,0.7988,0.7988,0.7988,0.7988,0.7988,0.7988,0.7988,0.7988,0.7988,0.7988,0.7988,0.7988,0.7988,0.7988,0.7988,0.7988,0.7988,0.7988,0.7988,0.7988,0.7988,0.7988,0.7989,0.7915,0.7716,0.7648,0.7617,0.7488,0.7474,0.7491,0.7457,0.7336,0.7215,0.7181,0.7285,0.7413,0.7485,0.7567,0.7692,0.7814,0.7841,0.7841,0.7841,0.7841,0.7672,0.7185,0.7022,0.0,0.0,0.6837,0.705,0.7295,0.7519,0.7546,0.0,0.0,0.0,0.0,0.7219,0.7335,0.7618,0.7743,0.7837,0.7908,0.7784,0.7689,0.7648,0.7614,0.7655,0.7756,0.7648,0.7658,0.7746,0.7508,0.7393,0.7382,0.7181,0.7095,0.7095,0.7095,0.7272,0.7771,0.9831,1.0762,1.1322,0.6276,0.7503,0.8401,0.7477,0.793,0.8355,0.817,0.8157,0.8136,0.8027,0.7988,0.7988,0.7988,0.7988,0.7988,0.7988,0.7793,0.7756,0.7975,0.779,0.776,0.7978,0.778,0.7678,0.7678,0.7678,0.777,0.7988,0.7988,0.7988,0.7988,0.7988,0.7988,0.7988,0.7988,0.7988,0.7988,0.7988,0.7988,0.7988,0.7988,0.7988,0.7988,0.7988,0.7988,0.7988,0.7988,0.7988,0.7988,0.7988,0.7988,0.7988,0.7988,0.7966,0.7878,0.7743,0.7746,0.7729,0.7536,0.7546,0.7563,0.7427,0.7255,0.7095,0.7095,0.7185,0.7285,0.7379,0.7461,0.7539,0.7689,0.7716,0.7716,0.7716,0.7574,0.7347,0.6962,0.6786,0.0,0.6773,0.6972,0.7259,0.7641,0.7797,0.7797,0.759,0.737,0.0,0.756,0.7467,0.7563,0.7878,0.7969,0.7988,0.7988,0.7932,0.7851,0.7776,0.7776,0.7817,0.7888,0.781,0.7817,0.7875,0.7604,0.7498,0.7481,0.7208,0.7095,0.7095,0.7095,0.7095,0.7316,0.9139,0.987,1.017,0.8369,0.8472,0.8604,0.8498,0.8359,0.826,0.826,0.8101,0.7988,0.7988,0.7988,0.7988,0.7988,0.7988,0.7988,0.7988,0.7988,0.7988,0.7988,0.7988,0.7988,0.7988,0.7988,0.7988,0.7988,0.7988,0.7988,0.7988,0.7988,0.7988,0.7988,0.7988,0.7988,0.7988,0.7988,0.7988,0.7988,0.7988,0.7988,0.7988,0.7988,0.7988,0.7988,0.7988,0.7988,0.7988,0.7988,0.7988,0.7988,0.7988,0.7988,0.7988,0.7988,0.7925,0.782,0.782,0.7912,0.7949,0.7682,0.7672,0.7678,0.7427,0.7215,0.7095,0.7095,0.7095,0.7154,0.7309,0.7359,0.7406,0.7536,0.7563,0.755,0.7506,0.7256,0.7001,0.6833,0.0,0.6692,0.7048,0.7156,0.7405,0.7938,0.7988,0.7959,0.7831,0.7614,0.758,0.7807,0.7607,0.7648,0.7978,0.7988,0.7988,0.7988,0.7988,0.7988,0.7988,0.7988,0.7988,0.7988,0.7988,0.7988,0.7975,0.7705,0.76,0.7573,0.7246,0.7095,0.7095,0.7095,0.7109,0.7281,0.8464,0.8999,0.9286,0.8311,0.8332,0.8359,0.8332,0.8177,0.805,0.805,0.803,0.7988,0.7988,0.7988,0.7988,0.7988,0.7988,0.7988,0.7988,0.7988,0.7988,0.7988,0.7988,0.7988,0.7988,0.7988,0.7988,0.7988,0.7988,0.7988,0.7988,0.7988,0.7988,0.7988,0.7988,0.7988,0.7988,0.7988,0.7988,0.7988,0.7988,0.7988,0.7988,0.7988,0.7988,0.7988,0.7988,0.7988,0.7988,0.7988,0.7988,0.7988,0.7988,0.7988,0.7988,0.7988,0.7975,0.7979,0.7979,0.7996,0.7949,0.7682,0.7519,0.742,0.7198,0.7112,0.7095,0.7095,0.7095,0.7102,0.7148,0.7154,0.7202,0.7399,0.743,0.7348,0.7053,0.6972,0.6799,0.644,0.0,0.6908,0.7071,0.7452,0.777,0.7968,0.7988,0.7978,0.7983,0.7939,0.7932,0.7976,0.7935,0.7942,0.7988,0.7988,0.7988,0.7988,0.7988,0.7988,0.7988,0.7988,0.7988,0.7988,0.7988,0.7988,0.7975,0.7705,0.76,0.7573,0.7246,0.7095,0.7095,0.7095,0.7198,0.7477,0.8508,0.9061,0.9458,0.8177,0.8214,0.827,0.816,0.8064,0.7988,0.7988,0.7988,0.7988,0.7988,0.7988,0.7988,0.7988,0.7988,0.7988,0.7988,0.7988,0.7988,0.7988,0.7988,0.7988,0.7988,0.7988,0.7988,0.7988,0.7988,0.7988,0.7988,0.7988,0.7988,0.7988,0.7988,0.7988,0.7988,0.7988,0.7988,0.7988,0.7988,0.7988,0.7988,0.7988,0.7988,0.7988,0.7988,0.7988,0.7988,0.7988,0.7988,0.7988,0.7988,0.7988,0.7988,0.7988,0.7988,0.7988,0.7988,0.7902,0.7749,0.7638,0.7428,0.7205,0.7112,0.7095,0.7095,0.7095,0.7095,0.7095,0.7095,0.7095,0.7119,0.7212,0.7248,0.7231,0.7177,0.6966,0.0,0.0,0.6826,0.6989,0.7238,0.7587,0.7847,0.7975,0.7988,0.7988,0.7988,0.7988,0.7988,0.7988,0.7988,0.7988,0.7988,0.7988,0.7988,0.7988,0.7988,0.7988,0.7988,0.7988,0.7988,0.7988,0.7988,0.7988,0.7975,0.7705,0.7645,0.7685,0.7276,0.7168,0.7265,0.7265,0.7309,0.7464,0.7996,0.8328,0.8552,0.8057,0.8136,0.818,0.8037,0.7988,0.7988,0.7988,0.7988,0.7988,0.7988,0.7988,0.7988,0.7988,0.7988,0.7988,0.7988,0.7988,0.7988,0.7988,0.7988,0.7988,0.7988,0.7988,0.7988,0.7988,0.7988,0.7988,0.7988,0.7988,0.7988,0.7988,0.7988,0.7988,0.7988,0.7988,0.7988,0.7988,0.7988,0.7988,0.7988,0.7988,0.7988,0.7988,0.7988,0.7988,0.7988,0.7988,0.7988,0.7988,0.7988,0.7988,0.7988,0.7988,0.7988,0.7988,0.7988,0.7807,0.76,0.76,0.7377,0.7161,0.7105,0.7095,0.7095,0.7095,0.7095,0.7095,0.7095,0.7095,0.7105,0.7164,0.7171,0.7198,0.7305,0.0,0.0,0.0,0.7056,0.7129,0.7416,0.7685,0.7871,0.7952,0.7993,0.7988,0.7988,0.7988,0.7988,0.7988,0.7988,0.7988,0.7988,0.7988,0.7988,0.7988,0.7988,0.7988,0.7988,0.7988,0.7988,0.7988,0.7988,0.7988,0.7975,0.7739,0.7709,0.778,0.7381,0.7316,0.7447,0.7447,0.7467,0.7508,0.7567,0.7712,0.7797,0.7992,0.8023,0.803,0.7992,0.7988,0.7988,0.7988,0.7988,0.7988,0.7988,0.7988,0.7988,0.7988,0.7988,0.7988,0.7988,0.7988,0.7988,0.7988,0.7988,0.7988,0.7988,0.7988,0.7988,0.7988,0.7988,0.7988,0.7988,0.7988,0.7988,0.7988,0.7988,0.7988,0.7988,0.7988,0.7988,0.7988,0.7988,0.7988,0.7988,0.7988,0.7988,0.7988,0.7988,0.7988,0.7988,0.7988,0.7988,0.7988,0.7988,0.7988,0.7988,0.7988,0.7988,0.7988,0.7988,0.7807,0.76,0.76,0.7482,0.7342,0.7154,0.7095,0.7095,0.7095,0.7095,0.7095,0.7095,0.7095,0.7161,0.7352,0.7376,0.7312,0.7158,0.0,0.0,0.7092,0.7255,0.7423,0.7563,0.7817,0.7946,0.7817,0.7932,0.7988,0.7988,0.7988,0.7988,0.7988,0.7988,0.7988,0.7988,0.7988,0.7988,0.7988,0.7988,0.7988,0.7988,0.7988,0.7988,0.7988,0.7988,0.7988,0.7982,0.7844,0.7801,0.7797,0.7634,0.7573,0.7584,0.7584,0.7662,0.7763,0.7645,0.7756,0.7956,0.7988,0.7988,0.7988,0.7988,0.7988,0.7988,0.7988,0.7988,0.7988,0.7988,0.7988,0.7988,0.7988,0.7988,0.7988,0.7988,0.7988,0.7988,0.7988,0.7988,0.7988,0.7988,0.7988,0.7988,0.7988,0.7988,0.7988,0.7988,0.7988,0.7988,0.7988,0.7988,0.7988,0.7988,0.7988,0.7988,0.7988,0.7988,0.7988,0.7988,0.7988,0.7988,0.7988,0.7988,0.7988,0.7988,0.7988,0.7988,0.7988,0.7988,0.7988,0.7988,0.7988,0.7949,0.7858,0.777,0.7689,0.758,0.7508,0.7346,0.7192,0.7109,0.7095,0.7095,0.7095,0.7095,0.7095,0.7095,0.7095,0.7164,0.7365,0.7393,0.7406,0.7421,0.0,0.7432,0.7519,0.7607,0.7699,0.7831,0.7946,0.7993,0.7935,0.7983,0.7988,0.7988,0.7988,0.7988,0.7988,0.7988,0.7988,0.7988,0.7988,0.7988,0.7988,0.7988,0.7988,0.7988,0.7988,0.7988,0.7988,0.7988,0.7988,0.7982,0.7854,0.7841,0.7908,0.7695,0.76,0.7607,0.7695,0.7709,0.7695,0.78,0.7918,0.7986,0.7988,0.7988,0.7988,0.7988,0.7988,0.7988,0.7988,0.7988,0.7988,0.7988,0.7988,0.7988,0.7988,0.7988,0.7988,0.7988,0.7988,0.7988,0.7988,0.7988,0.7988,0.7988,0.7988,0.7988,0.7988,0.7988,0.7988,0.7988,0.7988,0.7988,0.7988,0.7988,0.7988,0.7988,0.7988,0.7988,0.7988,0.7988,0.7988,0.7988,0.7988,0.7988,0.7988,0.7988,0.7988,0.7988,0.7988,0.7988,0.7988,0.7988,0.7983,0.7942,0.7942,0.7841,0.7726,0.7628,0.7567,0.7529,0.7423,0.7258,0.7095,0.7095,0.7095,0.7095,0.7095,0.7095,0.7095,0.7095,0.7158,0.7258,0.7437,0.7467,0.7515,0.7641,0.7665,0.7685,0.7736,0.78,0.7861,0.7875,0.7959,0.7996,0.7949,0.7986,0.7988,0.7988,0.7988,0.7988,0.7988,0.7988,0.7988,0.7988,0.7988,0.7988,0.7988,0.7988,0.7988,0.7988,0.7988,0.7988,0.7988,0.7988,0.7988,0.7985,0.7905,0.7918,0.7975,0.7797,0.7716,0.7722,0.782,0.78,0.7736,0.7942,0.7988,0.7986,0.7988,0.7988,0.7988,0.7988,0.7988,0.7988,0.7988,0.7988,0.7988,0.7988,0.7988,0.7988,0.7988,0.7988,0.7988,0.7988,0.7988,0.7988,0.7988,0.7988,0.7988,0.7988,0.7988,0.7988,0.7988,0.7988,0.7988,0.7988,0.7988,0.7988,0.7988,0.7988,0.7988,0.7988,0.7988,0.7988,0.7988,0.7988,0.7988,0.7988,0.7988,0.7988,0.7988,0.7988,0.7988,0.7988,0.7988,0.7988,0.7988,0.7988,0.7912,0.7811,0.7807,0.7709,0.7597,0.7597,0.7512,0.7393,0.7393,0.7258,0.7095,0.7095,0.7095,0.7095,0.7095,0.7098,0.7098,0.7098,0.7265,0.744,0.7573,0.76,0.7645,0.7787,0.7811,0.7763,0.7617,0.7827,0.7905,0.7638,0.7837,0.7956,0.7804,0.7925,0.7988,0.7988,0.7988,0.7988,0.7988,0.7988,0.7988,0.7988,0.7988,0.7988,0.7988,0.7988,0.7988,0.7988,0.7988,0.7988,0.7988,0.7988,0.7988,0.7988,0.7988,0.7988,0.7988,0.7988,0.7988,0.7988,0.7988,0.7988,0.7988,0.7988,0.7988,0.7973,0.7988,0.7988,0.7988,0.7988,0.7988,0.7988,0.7988,0.7988,0.7988,0.7988,0.7988,0.7988,0.7988,0.7988,0.7988,0.7988,0.7988,0.7988,0.7988,0.7988,0.7988,0.7988,0.7988,0.7988,0.7988,0.7988,0.7988,0.7988,0.7988,0.7988,0.7988,0.7988,0.7988,0.7988,0.7988,0.7988,0.7988,0.7988,0.7988,0.7988,0.7988,0.7949,0.7864,0.7973,0.7949,0.7868,0.7976,0.7988,0.7975,0.7891,0.7824,0.7773,0.757,0.7498,0.744,0.7286,0.7222,0.7188,0.7188,0.7154,0.7095,0.7095,0.7095,0.7095,0.7095,0.7202,0.7302,0.7302,0.7362,0.7471,0.7702,0.758,0.7512,0.7638,0.7746,0.7763,0.7617,0.7827,0.7983,0.7895,0.7962,0.7971,0.7952,0.7989,0.7988,0.7988,0.7988,0.7988,0.7988,0.7988,0.7988,0.7988,0.7988,0.7988,0.7988,0.7988,0.7988,0.7988,0.7988,0.7988,0.7988,0.7988,0.7988,0.7988,0.7988,0.7988,0.7988,0.7988,0.7952,0.7864,0.7973,0.7949,0.7868,0.7973,0.7988,0.7978,0.7988,0.7988,0.7988,0.7988,0.7988,0.7988,0.7988,0.7988,0.7988,0.7988,0.7988,0.7988,0.7988,0.7988,0.7988,0.7988,0.7988,0.7988,0.7988,0.7988,0.7988,0.7988,0.7988,0.7988,0.7988,0.7988,0.7988,0.7988,0.7988,0.7988,0.7988,0.7988,0.7988,0.7988,0.7988,0.7983,0.7929,0.7989,0.7979,0.7925,0.7925,0.7868,0.7814,0.7827,0.7783,0.774,0.7807,0.7841,0.7827,0.7756,0.7689,0.7594,0.7356,0.7282,0.7261,0.7144,0.7095,0.7095,0.7095,0.7095,0.7095,0.7095,0.7095,0.7112,0.7195,0.7305,0.7413,0.7471,0.7529,0.76,0.7777,0.7665,0.7577,0.7668,0.7753,0.7763,0.7617,0.7827,0.7993,0.7932,0.7979,0.7988,0.7988,0.7988,0.7988,0.7988,0.7988,0.7988,0.7988,0.7988,0.7988,0.7988,0.7988,0.7988,0.7988,0.7988,0.7988,0.7988,0.7988,0.7988,0.7988,0.7988,0.7988,0.7988,0.7988,0.7988,0.7988,0.7988,0.7959,0.7888,0.7979,0.7959,0.7888,0.7983,0.7988,0.7982,0.8013,0.7988,0.7988,0.7988,0.7988,0.7988,0.7988,0.7988,0.7988,0.7988,0.7988,0.7988,0.7988,0.7988,0.7988,0.7988,0.7988,0.7988,0.7988,0.7988,0.7988,0.7988,0.7988,0.7988,0.7988,0.7988,0.7988,0.7988,0.7988,0.7988,0.7988,0.7988,0.7988,0.7988,0.7988,0.7932,0.7821,0.7935,0.7905,0.779,0.779,0.7784,0.776,0.7645,0.759,0.758,0.7594,0.76,0.7597,0.7584,0.7498,0.7348,0.7161,0.7095,0.7095,0.7095,0.7095,0.7095,0.7095,0.7095,0.7095,0.7095,0.7105,0.7175,0.7362,0.7416,0.7474,0.759,0.7723,0.7814,0.7804,0.7811,0.7797,0.7811,0.7811,0.7767,0.7638,0.7837,0.7962,0.7824,0.7932,0.7988,0.7988,0.7988,0.7988,0.7988,0.7988,0.7988,0.7988,0.7988,0.7988,0.7988,0.7988,0.7988,0.7988,0.7988,0.7988,0.7988,0.7988,0.7988,0.7988,0.7988,0.7988,0.7988,0.7988,0.7988,0.7988,0.7988,0.7988,0.7988,0.7988,0.7988,0.7988,0.7988,0.7982,0.7969,0.8212,0.7988,0.7988,0.7988,0.7988,0.7988,0.7988,0.7988,0.7988,0.7988,0.7988,0.7988,0.7988,0.7988,0.7988,0.7988,0.7988,0.7988,0.7988,0.7988,0.7988,0.7988,0.7988,0.7988,0.7988,0.7988,0.7988,0.7988,0.7988,0.7988,0.7988,0.7988,0.7988,0.7988,0.7988,0.7932,0.7814,0.782,0.7777,0.7645,0.7645,0.7573,0.7502,0.7567,0.7526,0.7461,0.7556,0.76,0.7584,0.7485,0.7319,0.7161,0.7105,0.7095,0.7095,0.7095,0.7095,0.7095,0.7095,0.7095,0.7095,0.7095,0.7208,0.7352,0.7386,0.755,0.7726,0.7756,0.779,0.7824,0.7942,0.7776,0.7682,0.7794,0.7811,0.7801,0.777,0.7898,0.7978,0.7969,0.7993,0.7988,0.7988,0.7988,0.7988,0.7988,0.7988,0.7988,0.7988,0.7988,0.7988,0.7988,0.7988,0.7988,0.7988,0.7988,0.7988,0.7988,0.7988,0.7988,0.7988,0.7988,0.7988,0.7988,0.7988,0.7988,0.7988,0.7988,0.7988,0.7988,0.7988,0.7988,0.7988,0.7988,0.7939,0.78,0.8258,0.7988,0.7988,0.7988,0.7988,0.7988,0.7988,0.7988,0.7988,0.7988,0.7988,0.7988,0.7988,0.7988,0.7988,0.7988,0.7988,0.7988,0.7988,0.7988,0.7988,0.7988,0.7988,0.7988,0.7988,0.7988,0.7988,0.7988,0.7988,0.7988,0.7988,0.7988,0.7976,0.7905,0.7905,0.7783,0.7604,0.7678,0.7624,0.7515,0.7515,0.7467,0.7393,0.7377,0.731,0.7272,0.733,0.7357,0.7344,0.7288,0.7185,0.7095,0.7095,0.7095,0.7095,0.7095,0.7095,0.7095,0.7095,0.7095,0.7112,0.7208,0.7366,0.7485,0.741,0.76,0.7811,0.7811,0.7844,0.7918,0.7975,0.7888,0.781,0.7885,0.7895,0.7895,0.7895,0.7962,0.7988,0.7988,0.7988,0.7988,0.7988,0.7988,0.7988,0.7988,0.7988,0.7988,0.7988,0.7988,0.7988,0.7988,0.7988,0.7988,0.7988,0.7988,0.7988,0.7988,0.7988,0.7988,0.7988,0.7988,0.7988,0.7988,0.7988,0.7988,0.7988,0.7988,0.7988,0.7988,0.7988,0.7988,0.7982,0.7932,0.7854,0.777,0.8602,0.8162,0.7988,0.7988,0.7988,0.7988,0.7988,0.7988,0.7988,0.7988,0.7988,0.7988,0.7988,0.7988,0.7988,0.7988,0.7988,0.7988,0.7988,0.7988,0.7988,0.7988,0.7988,0.7988,0.7988,0.7988,0.7988,0.7988,0.7988,0.7988,0.7988,0.7988,0.7932,0.7811,0.7811,0.7648,0.7403,0.7529,0.7472,0.7355,0.7355,0.7355,0.7342,0.7168,0.7095,0.7095,0.7095,0.7095,0.7095,0.7095,0.7095,0.7095,0.7095,0.7095,0.7095,0.7095,0.7115,0.7158,0.7158,0.7175,0.7229,0.7399,0.7526,0.7597,0.7467,0.7638,0.7824,0.7824,0.7925,0.7988,0.7988,0.7988,0.7988,0.7988,0.7988,0.7988,0.7988,0.7988,0.7988,0.7988,0.7988,0.7988,0.7988,0.7988,0.7988,0.7988,0.7988,0.7988,0.7988,0.7988,0.7988,0.7988,0.7988,0.7988,0.7988,0.7988,0.7988,0.7988,0.7988,0.7988,0.7988,0.7988,0.7988,0.7988,0.7988,0.7988,0.7988,0.7988,0.7988,0.7988,0.7988,0.7975,0.7956,0.7801,0.7767,0.7767,0.9973,0.88,0.7988,0.7988,0.7988,0.7988,0.7988,0.7988,0.7988,0.7988,0.7988,0.7988,0.7988,0.7988,0.7988,0.7988,0.7988,0.7988,0.7988,0.7988,0.7988,0.7988,0.7988,0.7988,0.7988,0.7988,0.7988,0.7988,0.7988,0.7988,0.7988,0.7988,0.7932,0.7811,0.7811,0.7648,0.7396,0.7416,0.7312,0.7151,0.7151,0.7151,0.7148,0.7102,0.7095,0.7095,0.7095,0.7095,0.7095,0.7095,0.7095,0.7095,0.7095,0.7095,0.7095,0.7095,0.7212,0.7362,0.7362,0.7434,0.7543,0.7563,0.7678,0.7743,0.76,0.7773,0.7983,0.7983,0.7975,0.7988,0.7988,0.7988,0.7988,0.7988,0.7988,0.7988,0.7988,0.7988,0.7988,0.7988,0.7988,0.7988,0.7988,0.7988,0.7988,0.7988,0.7988,0.7988,0.7988,0.7988,0.7988,0.7988,0.7988,0.7988,0.7988,0.7988,0.7988,0.7988,0.7988,0.7988,0.7988,0.7988,0.7988,0.7988,0.7988,0.7988,0.7988,0.7988,0.7988,0.7988,0.7988,0.7935,0.7787,0.7556,0.7594,0.7726,1.0411,0.9534,0.8874,0.8137,0.7988,0.7988,0.7988,0.7988,0.7988,0.7988,0.7988,0.7988,0.7988,0.7988,0.7988,0.7988,0.7988,0.7988,0.7988,0.7988,0.7988,0.7988,0.7988,0.7988,0.7988,0.7988,0.7988,0.7988,0.7988,0.7988,0.7988,0.7925,0.781,0.7689,0.7604,0.7444,0.7241,0.7241,0.7181,0.7095,0.7095,0.7095,0.7095,0.7095,0.7095,0.7095,0.7095,0.7095,0.7095,0.7095,0.7095,0.7095,0.7095,0.7095,0.7112,0.7244,0.7342,0.7413,0.7498,0.755,0.7617,0.7699,0.7767,0.7793,0.7817,0.7922,0.7989,0.7905,0.7956,0.7988,0.7988,0.7988,0.7988,0.7988,0.7988,0.7988,0.7988,0.7988,0.7988,0.7988,0.7988,0.7988,0.7988,0.7988,0.7988,0.7988,0.7988,0.7988,0.7988,0.7988,0.7988,0.7988,0.7988,0.7988,0.7988,0.7988,0.7988,0.7988,0.7988,0.7988,0.7988,0.7988,0.7988,0.7988,0.7988,0.7988,0.7988,0.7988,0.7988,0.7988,0.7988,0.7922,0.7794,0.7665,0.7699,0.777]},{"header":{"parameterUnit":"m.s-1","parameterCategory":1,"la1":30.6,"la2":28.766,"lo1":-90.7593,"lo2":-88.6598,"dy":0.0162,"dx":0.0183,"nx":116,"ny":114,"refTime":"2023-09-24T12:00:00:Z","depth":0,"parameterNumber":3,"parameterNumberName":"V-component_of_WINDS"},"data":[0.0,0.0,0.0,0.0,0.0,0.0,0.0,0.0,0.0,0.0,0.0,0.0,0.0,0.0,0.0,0.0,0.0,0.0,0.0,0.0,0.0,0.0,0.0,0.0,0.0,0.0,0.0,0.0,0.0,0.0,0.0,0.0,0.0,0.0,0.0,0.0,0.0,0.0,0.0,0.0,0.0,0.0,0.0,0.0,0.0,0.0,0.0,0.0,0.0,0.0,0.0,0.0,0.0,0.0,0.0,0.0,0.0,0.0,0.0,0.0,0.0,0.0,0.0,0.0,0.0,0.0,0.0,0.0,0.0,0.0,0.0,0.0,0.0,0.0,0.0,0.0,0.0,0.0,0.0,0.0,0.0,0.0,0.0,0.0,0.0,0.0,0.0,0.0,0.0,0.0,0.0,0.0,0.0,0.0,0.0,0.0,0.0,0.0,0.0,0.0,0.0,0.0,0.0,0.0,0.0,0.0,0.0,0.0,0.0,0.0,0.0,0.0,0.0,0.0,0.0,0.0,0.0,0.0,0.0,0.0,0.0,0.0,0.0,0.0,0.0,0.0,0.0,0.0,0.0,0.0,0.0,0.0,0.0,0.0,0.0,0.0,0.0,0.0,0.0,0.0,0.0,0.0,0.0,0.0,0.0,0.0,0.0,0.0,0.0,0.0,0.0,0.0,0.0,0.0,0.0,0.0,0.0,0.0,0.0,0.0,0.0,0.0,0.0,0.0,0.0,0.0,0.0,0.0,0.0,0.0,0.0,0.0,0.0,0.0,0.0,0.0,0.0,0.0,0.0,0.0,0.0,0.0,0.0,0.0,0.0,0.0,0.0,0.0,0.0,0.0,0.0,0.0,0.0,0.0,0.0,0.0,0.0,0.0,0.0,0.0,0.0,0.0,0.0,0.0,0.0,0.0,0.0,0.0,0.0,0.0,0.0,0.0,0.0,0.0,0.0,0.0,0.0,0.0,0.0,0.0,0.0,0.0,0.0,0.0,0.0,0.0,0.0,0.0,0.0,0.0,0.0,0.0,0.0,0.0,0.0,0.0,0.0,0.0,0.0,0.0,0.0,0.0,0.0,0.0,0.0,0.0,0.0,0.0,0.0,0.0,0.0,0.0,0.0,0.0,0.0,0.0,0.0,0.0,0.0,0.0,0.0,0.0,0.0,0.0,0.0,0.0,0.0,0.0,0.0,0.0,0.0,0.0,0.0,0.0,0.0,0.0,0.0,0.0,0.0,0.0,0.0,0.0,0.0,0.0,0.0,0.0,0.0,0.0,0.0,0.0,0.0,0.0,0.0,0.0,0.0,0.0,0.0,0.0,0.0,0.0,0.0,0.0,0.0,0.0,0.0,0.0,0.0,0.0,0.0,0.0,0.0,0.0,0.0,0.0,0.0,0.0,0.0,0.0,0.0,0.0,0.0,0.0,0.0,0.0,0.0,0.0,0.0,0.0,0.0,0.0,0.0,0.0,0.0,0.0,0.0,0.0,0.0,0.0,0.0,0.0,0.0,0.0,0.0,0.0,0.0,0.0,0.0,0.0,0.0,0.0,0.0,0.0,0.0,0.0,0.0,0.0,0.0,0.0,0.0,0.0,0.0,0.0,0.0,0.0,0.0,0.0,0.0,0.0,0.0,0.0,0.0,0.0,0.0,0.0,0.0,0.0,0.0,0.0,0.0,0.0,0.0,0.0,0.0,0.0,0.0,0.0,0.0,0.0,0.0,0.0,0.0,0.0,0.0,0.0,0.0,0.0,0.0,0.0,0.0,0.0,0.0,0.0,0.0,0.0,0.0,0.0,0.0,0.0,0.0,0.0,0.0,0.0,0.0,0.0,0.0,0.0,0.0,0.0,0.0,0.0,0.0,0.0,0.0,0.0,0.0,0.0,0.0,0.0,0.0,0.0,0.0,0.0,0.0,0.0,0.0,0.0,0.0,0.0,0.0,0.0,0.0,0.0,0.0,0.0,0.0,0.0,0.0,0.0,0.0,0.0,0.0,0.0,0.0,0.0,0.0,0.0,0.0,0.0,0.0,0.0,0.0,0.0,0.0,0.0,0.0,0.0,0.0,0.0,0.0,0.0,0.0,0.0,0.0,0.0,0.0,0.0,0.0,0.0,0.0,0.0,0.0,0.0,0.0,0.0,0.0,0.0,0.0,0.0,0.0,0.0,0.0,0.0,0.0,0.0,0.0,0.0,0.0,0.0,0.0,0.0,0.0,0.0,0.0,0.0,0.0,0.0,0.0,0.0,0.0,0.0,0.0,0.0,0.0,0.0,0.0,0.0,0.0,0.0,0.0,0.0,0.0,0.0,0.0,0.0,0.0,0.0,0.0,0.0,0.0,0.0,0.0,0.0,0.0,0.0,0.0,0.0,0.0,0.0,0.0,0.0,0.0,0.0,0.0,0.0,0.0,0.0,0.0,0.0,0.0,0.0,0.0,0.0,0.0,0.0,0.0,0.0,0.0,0.0,0.0,0.0,0.0,0.0,0.0,0.0,0.0,0.0,0.0,0.0,0.0,0.0,0.0,0.0,0.0,0.0,0.0,0.0,0.0,0.0,0.0,0.0,0.0,0.0,0.0,0.0,0.0,0.0,0.0,0.0,0.0,0.0,0.0,0.0,0.0,0.0,0.0,0.0,0.0,0.0,0.0,0.0,0.0,0.0,0.0,0.0,0.0,0.0,0.0,0.0,0.0,0.0,0.0,0.0,0.0,0.0,0.0,0.0,0.0,0.0,0.0,0.0,0.0,0.0,0.0,0.0,0.0,0.0,0.0,0.0,0.0,0.0,0.0,0.0,0.0,0.0,0.0,0.0,0.0,0.0,0.0,0.0,0.0,0.0,0.0,0.0,0.0,0.0,0.0,0.0,0.0,0.0,0.0,0.0,0.0,0.0,0.0,0.0,0.0,0.0,0.0,0.0,0.0,0.0,0.0,0.0,0.0,0.0,0.0,0.0,0.0,0.0,0.0,0.0,0.0,0.0,0.0,0.0,0.0,0.0,0.0,0.0,0.0,0.0,0.0,0.0,0.0,0.0,0.0,0.0,0.0,0.0,0.0,0.0,0.0,0.0,0.0,0.0,0.0,0.0,0.0,0.0,0.0,0.0,0.0,0.0,0.0,0.0,0.0,0.0,0.0,0.0,0.0,0.0,0.0,0.0,0.0,0.0,0.0,0.0,0.0,0.0,0.0,0.0,0.0,0.0,0.0,0.0,0.0,0.0,0.0,0.0,0.0,0.0,0.0,0.0,0.0,0.0,0.0,0.0,0.0,0.0,0.0,0.0,0.0,0.0,0.0,0.0,0.0,0.0,0.0,0.0,0.0,0.0,0.0,0.0,0.0,0.0,0.0,0.0,0.0,0.0,0.0,0.0,0.0,0.0,0.0,0.0,0.0,0.0,0.0,0.0,0.0,0.0,0.0,0.0,0.0,0.0,0.0,0.0,0.0,0.0,0.0,0.0,0.0,0.0,0.0,0.0,0.0,0.0,0.0,0.0,0.0,0.0,0.0,0.0,0.0,0.0,0.0,0.0,0.0,0.0,0.0,0.0,0.0,0.0,0.0,0.0,0.0,0.0,0.0,0.0,0.0,0.0,0.0,0.0,0.0,0.0,0.0,0.0,0.0,0.0,0.0,0.0,0.0,0.0,0.0,0.0,0.0,0.0,0.0,0.0,0.0,0.0,0.0,0.0,0.0,0.0,0.0,0.0,0.0,0.0,0.0,0.0,0.0,0.0,0.0,0.0,0.0,0.0,0.0,0.0,0.0,0.0,0.0,0.0,0.0,0.0,0.0,0.0,0.0,0.0,0.0,0.0,0.0,0.0,0.0,0.0,0.0,0.0,0.0,0.0,0.0,0.0,0.0,0.0,0.0,0.0,0.0,0.0,0.0,0.0,0.0,0.0,0.0,0.0,0.0,0.0,0.0,0.0,0.0,0.0,0.0,0.0,0.0,0.0,0.0,0.0,0.0,0.0,0.0,0.0,0.0,0.0,0.0,0.0,0.0,0.0,0.0,0.0,0.0,0.0,0.0,0.0,0.0,0.0,0.0,0.0,0.0,0.0,0.0,0.0,0.0,0.0,0.0,0.0,0.0,0.0,0.0,0.0,0.0,0.0,0.0,0.0,0.0,0.0,0.0,0.0,0.0,0.0,0.0,0.0,0.0,0.0,0.0,0.0,0.0,0.0,0.0,0.0,0.0,0.0,0.0,0.0,0.0,0.0,0.0,0.0,0.0,0.0,0.0,0.0,0.0,0.0,0.0,0.0,0.0,0.0,0.0,0.0,0.0,0.0,0.0,0.0,0.0,0.0,0.0,0.0,0.0,0.0,0.0,0.0,0.0,0.0,0.0,0.0,0.0,0.0,0.0,0.0,0.0,0.0,0.0,0.0,0.0,0.0,0.0,0.0,0.0,0.0,0.0,0.0,0.0,0.0,0.0,0.0,0.0,0.0,0.0,0.0,0.0,0.0,0.0,0.0,0.0,0.0,0.0,0.0,0.0,0.0,0.0,0.0,0.0,0.0,0.0,0.0,0.0,0.0,0.0,0.0,0.0,0.0,0.0,0.0,0.0,0.0,0.0,0.0,0.0,0.0,0.0,0.0,0.0,0.0,0.0,0.0,0.0,0.0,0.0,0.0,0.0,0.0,0.0,0.0,0.0,0.0,0.0,0.0,0.0,0.0,0.0,0.0,0.0,0.0,0.0,0.0,0.0,0.0,0.0,0.0,0.0,0.0,0.0,0.0,0.0,0.0,0.0,0.0,0.0,0.0,0.0,0.0,0.0,0.0,0.0,0.0,0.0,0.0,0.0,0.0,0.0,0.0,0.0,0.0,0.0,0.0,0.0,0.0,0.0,0.0,0.0,0.0,0.0,0.0,0.0,0.0,0.0,0.0,0.0,0.0,0.0,0.0,0.0,0.0,0.0,0.0,0.0,0.0,0.0,0.0,0.0,0.0,0.0,0.0,0.0,0.0,0.0,0.0,0.0,0.0,0.0,0.0,0.0,0.0,0.0,0.0,0.0,0.0,0.0,0.0,0.0,0.0,0.0,0.0,0.0,0.0,0.0,0.0,0.0,0.0,0.0,0.0,0.0,0.0,0.0,0.0,0.0,0.0,0.0,0.0,0.0,0.0,0.0,0.0,0.0,0.0,0.0,0.0,0.0,0.0,0.0,0.0,0.0,0.0,0.0,0.0,0.0,0.0,0.0,0.0,0.0,0.0,0.0,0.0,0.0,0.0,0.0,0.0,0.0,0.0,0.0,0.0,0.0,0.0,0.0,0.0,0.0,0.0,0.0,0.0,0.0,0.0,0.0,0.0,0.0,0.0,0.0,0.0,0.0,0.0,0.0,0.0,0.0,0.0,0.0,0.0,0.0,0.0,0.0,0.0,0.0,0.0,0.0,0.0,0.0,0.0,0.0,0.0,0.0,0.0,0.0,0.0,0.0,0.0,0.0,0.0,0.0,0.0,0.0,0.0,0.0,0.0,0.0,0.0,0.0,0.0,0.0,0.0,0.0,0.0,0.0,0.0,0.0,0.0,0.0,0.0,0.0,0.0,0.0,0.0,0.0,0.0,0.0,0.0,0.0,0.0,0.0,0.0,0.0,0.0,0.0,0.0,0.0,0.0,0.0,0.0,0.0,0.0,0.0,0.0,0.0,0.0,0.0,0.0,0.0,0.0,0.0,0.0,0.0,0.0,0.0,0.0,0.0,0.0,0.0,0.0,0.0,0.0,0.0,0.0,0.0,0.0,0.0,0.0,0.0,0.0,0.0,0.0,0.0,0.0,0.0,0.0,0.0,0.0,0.0,0.0,0.0,0.0,0.0,0.0,0.0,0.0,0.0,0.0,0.0,0.0,0.0,0.0,0.0,0.0,0.0,0.0,0.0,0.0,0.0,0.0,0.0,0.0,0.0,0.0,0.0,0.0,0.0,0.0,0.0,0.0,0.0,0.0,0.0,0.0,0.0,0.0,0.0,0.0,0.0,0.0,0.0,0.0,0.0,0.0,0.0,0.0,0.0,0.0,0.0,0.0,0.0,0.0,0.0,0.0,0.0,0.0,0.0,0.0,0.0,0.0,0.0,0.0,0.0,0.0,0.0,0.0,4.5124,0.0,0.0,0.0,0.0,0.0,0.0,0.0,0.0,0.0,0.0,0.0,0.0,0.0,0.0,0.0,0.0,0.0,0.0,0.0,0.0,0.0,0.0,0.0,0.0,0.0,0.0,0.0,0.0,0.0,0.0,0.0,0.0,0.0,0.0,0.0,0.0,0.0,0.0,3.5322,3.6572,3.7823,3.9034,3.9491,3.834,3.5898,0.0,0.0,0.0,0.0,0.0,0.0,0.0,0.0,0.0,0.0,0.0,0.0,0.0,0.0,0.0,0.0,0.0,0.0,0.0,0.0,0.0,0.0,0.0,0.0,0.0,0.0,0.0,0.0,0.0,0.0,0.0,0.0,0.0,0.0,0.0,0.0,0.0,0.0,0.0,0.0,0.0,0.0,0.0,0.0,0.0,0.0,0.0,0.0,0.0,0.0,0.0,0.0,0.0,0.0,0.0,0.0,0.0,0.0,0.0,0.0,0.0,0.0,0.0,0.0,0.0,0.0,0.0,0.0,0.0,0.0,0.0,4.5685,0.0,0.0,0.0,0.0,0.0,0.0,0.0,0.0,0.0,0.0,0.0,0.0,0.0,0.0,0.0,0.0,0.0,0.0,0.0,0.0,0.0,0.0,0.0,0.0,3.4847,3.5601,3.5029,3.4948,0.0,0.0,0.0,0.0,0.0,0.0,3.5996,3.5859,3.5625,3.535,3.8124,4.0702,4.3085,4.3808,4.1829,3.7682,3.7395,0.0,0.0,0.0,0.0,0.0,0.0,0.0,0.0,0.0,0.0,0.0,0.0,0.0,0.0,0.0,0.0,0.0,0.0,0.0,0.0,0.0,0.0,0.0,0.0,0.0,0.0,0.0,0.0,0.0,0.0,0.0,0.0,0.0,0.0,0.0,0.0,0.0,0.0,0.0,0.0,0.0,0.0,0.0,0.0,0.0,0.0,0.0,0.0,0.0,0.0,0.0,0.0,0.0,0.0,0.0,0.0,0.0,0.0,0.0,0.0,0.0,0.0,0.0,5.3178,5.3447,5.3447,5.3294,5.2953,5.2314,4.952,4.9451,5.0952,4.6531,0.0,0.0,0.0,0.0,0.0,0.0,0.0,0.0,0.0,0.0,0.0,0.0,0.0,0.0,0.0,0.0,0.0,0.0,0.0,0.0,0.0,3.5551,3.5314,3.4803,3.4718,3.4746,0.0,0.0,0.0,0.0,0.0,0.0,3.5996,3.5254,3.5876,3.7904,4.1285,4.3884,4.5701,4.5818,4.5504,4.4777,4.3316,4.1445,3.9374,0.0,0.0,0.0,0.0,0.0,0.0,0.0,0.0,0.0,0.0,0.0,0.0,0.0,0.0,0.0,0.0,0.0,0.0,0.0,0.0,0.0,0.0,0.0,0.0,0.0,0.0,0.0,0.0,0.0,0.0,0.0,0.0,0.0,0.0,0.0,0.0,0.0,0.0,0.0,0.0,0.0,4.7382,4.9075,0.0,0.0,0.0,0.0,0.0,0.0,0.0,0.0,0.0,0.0,0.0,0.0,0.0,4.9567,5.0215,5.3608,5.5264,5.5222,5.8204,5.9627,5.9608,5.8838,5.8858,5.9259,5.5315,0.0,5.2791,5.1357,0.0,0.0,0.0,0.0,0.0,0.0,0.0,0.0,0.0,0.0,0.0,0.0,0.0,0.0,0.0,0.0,0.0,0.0,0.0,0.0,0.0,3.6927,3.7871,3.8117,3.8987,3.9152,3.8234,3.7751,0.0,0.0,0.0,3.5273,3.5273,3.4414,3.6132,4.0541,4.4039,4.7106,4.9741,5.0312,5.0581,5.0542,4.9824,4.6698,4.1983,4.2011,0.0,0.0,0.0,0.0,0.0,0.0,0.0,0.0,0.0,0.0,0.0,0.0,0.0,0.0,0.0,0.0,0.0,0.0,0.0,0.0,0.0,0.0,0.0,0.0,0.0,0.0,0.0,0.0,0.0,0.0,0.0,0.0,0.0,0.0,0.0,0.0,0.0,0.0,0.0,4.5295,4.7722,4.6912,4.8527,4.8943,0.0,0.0,0.0,0.0,0.0,0.0,0.0,0.0,0.0,5.1173,5.3477,5.4834,5.5113,5.8428,6.0294,6.0704,6.1723,6.2204,6.2185,6.1814,6.1339,6.0729,5.94,5.831,5.7195,5.3514,5.2371,5.2571,0.0,0.0,0.0,0.0,4.5186,4.6379,0.0,0.0,0.0,0.0,0.0,0.0,0.0,0.0,0.0,0.0,0.0,0.0,3.661,3.8872,4.0593,4.1167,4.2289,4.2114,4.0058,3.9154,3.7685,3.543,3.4707,3.4375,3.4375,3.5212,3.8332,4.3819,4.7059,5.02,5.3185,5.3698,5.3964,5.4004,5.4238,5.0955,4.5279,4.5096,4.2986,3.969,0.0,0.0,0.0,0.0,0.0,0.0,0.0,0.0,0.0,0.0,0.0,0.0,0.0,0.0,0.0,0.0,0.0,0.0,0.0,0.0,0.0,0.0,0.0,0.0,0.0,0.0,0.0,0.0,0.0,0.0,0.0,0.0,0.0,0.0,0.0,0.0,0.0,4.621,4.837,4.5864,4.9476,5.0983,0.0,0.0,0.0,0.0,0.0,0.0,5.2053,5.2847,5.3684,5.4544,5.7573,5.9358,5.9731,6.1923,6.3469,6.4256,6.3391,6.3102,6.3295,6.2852,6.2108,6.1152,6.1575,6.1402,6.0452,5.588,5.4641,5.5344,5.2459,5.0423,4.9073,4.876,4.9051,4.975,0.0,0.0,0.0,0.0,0.0,0.0,0.0,0.0,0.0,0.0,0.0,3.821,3.9123,4.1486,4.2746,4.2104,4.2107,4.0775,3.7507,3.6483,3.5265,3.3594,3.3496,3.3476,3.3476,3.8914,4.3875,4.8181,5.077,5.3044,5.4944,5.4173,5.3889,5.4043,5.4863,5.3242,4.9805,4.8984,4.6621,4.3203,4.0668,0.0,0.0,0.0,0.0,0.0,0.0,0.0,0.0,0.0,0.0,0.0,0.0,0.0,0.0,0.0,0.0,0.0,0.0,0.0,0.0,0.0,0.0,0.0,0.0,0.0,0.0,0.0,0.0,0.0,0.0,0.0,0.0,0.0,0.0,0.0,0.0,0.0,0.0,4.8697,5.4436,0.0,0.0,0.0,0.0,5.2256,5.216,5.2906,5.4616,5.5355,5.7264,6.064,6.0951,6.1797,6.3322,6.2674,6.2683,6.3352,6.2557,6.2551,6.3256,6.1647,6.1325,6.1979,6.121,6.0845,6.071,5.9581,5.874,5.7778,5.44,5.2593,5.1712,5.0128,5.112,5.326,0.0,0.0,0.0,0.0,0.0,0.0,0.0,0.0,3.55,3.55,3.6965,3.8133,3.8523,4.2263,4.4669,4.4437,4.5887,4.5604,4.2826,4.0369,3.8043,3.5873,3.3766,3.3356,3.4914,4.0721,4.5021,4.766,5.0299,5.2225,5.3419,5.262,5.2575,5.3183,5.3496,5.3574,5.3418,5.2558,4.9842,4.6024,4.4545,4.2028,0.0,0.0,0.0,0.0,0.0,0.0,0.0,0.0,0.0,0.0,0.0,0.0,0.0,0.0,0.0,0.0,0.0,0.0,0.0,0.0,0.0,0.0,0.0,0.0,0.0,0.0,0.0,0.0,0.0,0.0,0.0,0.0,0.0,0.0,0.0,0.0,0.0,5.2008,5.6592,0.0,5.4848,5.5063,5.5266,5.4872,5.6911,5.8403,5.8935,6.0783,6.233,6.3474,6.3521,6.3747,6.4249,6.3381,6.3055,6.3295,6.2474,6.2249,6.2518,6.1903,6.1499,6.1287,6.1537,6.1325,6.0787,6.0454,6.0165,5.9781,5.8569,5.7588,5.6799,5.6192,5.6556,5.7303,0.0,0.0,0.0,0.0,0.0,0.0,0.0,0.0,3.5692,3.6273,3.7796,3.919,4.0088,4.3928,4.6461,4.6511,4.8019,4.7309,4.3415,4.0861,3.8003,3.4718,3.3562,3.4671,3.8216,4.2398,4.5647,4.794,4.9778,5.0971,5.1565,5.0837,5.0818,5.1445,5.2012,5.2891,5.3984,5.4004,5.2166,4.913,4.769,4.4445,4.0356,0.0,0.0,0.0,0.0,0.0,0.0,0.0,0.0,0.0,0.0,0.0,0.0,0.0,0.0,0.0,0.0,0.0,0.0,0.0,0.0,0.0,0.0,0.0,0.0,0.0,0.0,0.0,0.0,0.0,0.0,0.0,0.0,0.0,0.0,5.0741,5.4824,5.3884,5.8698,6.0799,5.7502,5.8292,5.8961,5.8869,6.0945,6.2157,6.2022,6.3864,6.4747,6.4302,6.4287,6.4241,6.4166,6.3031,6.2608,6.2897,6.2056,6.1652,6.1652,6.1652,6.075,5.9251,6.0931,6.0692,5.9226,6.0335,6.0806,6.0806,6.0806,6.0454,5.9935,5.9935,5.9742,5.9309,0.0,0.0,0.0,0.0,0.0,0.0,0.0,3.55,3.6077,3.7719,3.9434,4.1435,4.3917,4.649,4.8024,4.8024,4.8024,4.5256,3.869,3.7413,3.4748,2.9921,3.2922,3.7385,4.3085,4.4047,4.6082,4.937,4.9467,4.9595,4.971,4.8977,4.869,4.8926,5.0566,5.1308,5.1465,5.3183,5.3437,5.2422,4.9831,4.622,4.2214,0.0,0.0,0.0,0.0,0.0,0.0,0.0,0.0,0.0,0.0,0.0,0.0,0.0,0.0,0.0,0.0,0.0,0.0,0.0,0.0,0.0,0.0,0.0,0.0,0.0,0.0,0.0,0.0,0.0,0.0,0.0,0.0,0.0,4.5063,5.2354,5.6834,5.4509,6.0934,6.457,6.2051,6.3179,6.4055,6.4052,6.374,6.3554,6.3545,6.4119,6.4057,6.3211,6.3153,6.3153,6.3153,6.1595,6.1229,6.2056,6.121,6.0806,6.0806,6.0806,5.9064,5.6224,5.9389,5.8973,5.6297,5.9461,6.0787,6.0806,6.0806,6.0787,6.0768,6.0768,6.0165,5.9011,0.0,0.0,0.0,0.0,0.0,0.0,0.0,3.55,3.5673,3.6138,3.87,4.0766,4.1474,4.4378,4.6283,4.6283,4.6283,4.4487,4.0213,3.8028,3.5516,3.2425,3.5442,3.9095,4.3104,4.5263,4.7085,4.8605,4.8107,4.7936,4.8031,4.7212,4.7228,4.7988,4.8437,4.9355,5.0605,5.166,5.1973,5.1699,5.0956,4.9148,4.6734,0.0,0.0,0.0,0.0,0.0,0.0,0.0,0.0,0.0,0.0,0.0,0.0,0.0,0.0,0.0,0.0,0.0,0.0,0.0,0.0,0.0,0.0,0.0,0.0,0.0,0.0,0.0,0.0,0.0,0.0,0.0,4.8633,5.2441,5.2396,5.5543,5.8748,6.1151,6.3339,6.4629,6.4531,6.3708,6.3116,6.3015,6.2797,6.2612,6.2516,6.1573,6.0938,6.0707,6.0089,5.9741,5.9741,6.0443,6.0921,6.1152,6.0921,6.0806,6.0806,6.0806,6.0315,5.9461,5.9752,5.9699,5.948,5.9746,6.0223,6.0806,6.0806,6.0416,5.9858,5.9858,5.8531,5.6398,0.0,0.0,0.0,0.0,0.0,0.0,0.0,3.5432,3.575,3.6465,3.8726,4.0551,4.1265,4.3646,4.5243,4.539,4.5395,4.3423,3.8813,3.6183,3.5261,3.6318,3.8537,4.1156,4.4137,4.5692,4.67,4.7175,4.6802,4.6645,4.6713,4.6243,4.6323,4.6904,4.7275,4.8027,4.9075,4.9915,5.07,5.1348,5.0644,4.9468,4.8098,4.7473,4.5903,4.4051,4.4423,4.4853,4.4957,4.2998,0.0,0.0,0.0,0.0,0.0,0.0,0.0,0.0,0.0,0.0,0.0,0.0,0.0,0.0,0.0,0.0,0.0,0.0,0.0,0.0,0.0,0.0,0.0,0.0,5.1719,5.6348,5.7773,5.918,6.0957,6.3457,6.4082,6.4492,6.5019,6.4314,6.3632,6.3133,6.3255,6.3283,6.3152,6.1902,6.074,5.9726,5.9862,5.9283,5.7903,5.984,6.0806,6.0806,6.0806,6.0806,6.0806,6.0806,6.0044,0.0,5.9667,5.9543,5.881,5.9686,6.0127,0.0,0.0,0.0,0.0,0.0,5.7286,5.5397,0.0,0.0,0.0,0.0,0.0,0.0,0.0,3.5301,3.6045,3.774,3.9134,4.0618,4.2264,4.3728,4.4714,4.5024,4.4827,4.213,3.6131,3.3408,3.4594,4.0349,4.1422,4.3067,4.5556,4.5594,4.5594,4.5594,4.5726,4.578,4.5803,4.5866,4.5888,4.594,4.6703,4.7127,4.7292,4.8151,4.9471,5.0839,4.9433,4.8475,4.7928,4.8612,4.7381,4.5444,4.6402,4.6813,4.6854,4.6579,0.0,0.0,0.0,0.0,0.0,0.0,0.0,0.0,0.0,0.0,0.0,0.0,0.0,0.0,0.0,0.0,0.0,0.0,0.0,0.0,0.0,0.0,0.0,0.0,5.4297,5.8125,6.1269,6.2363,6.289,6.2988,6.3594,6.4082,6.4277,6.4645,6.4546,6.3733,6.4089,6.4313,6.4185,0.0,0.0,0.0,0.0,6.0156,5.7235,5.9589,6.0806,6.0806,6.0806,6.0806,6.0806,6.0806,5.9212,5.6607,5.9422,5.9058,5.666,5.9494,6.0146,5.9358,5.9261,5.9223,5.8979,5.7024,5.5922,5.5151,0.0,0.0,0.0,0.0,0.0,0.0,0.0,3.5138,3.5766,3.7382,3.8995,4.0535,4.1948,4.3586,4.4637,4.4682,4.3057,4.0475,3.6815,3.4249,3.5186,4.0369,4.1422,4.3067,4.5556,4.5594,4.5594,4.5594,4.5637,4.5688,4.5799,4.5815,4.5856,4.5901,4.6076,4.6167,4.6246,4.7128,4.7747,4.8215,4.8586,4.9505,5.0565,5.0097,4.9588,4.9332,5.0856,5.1852,5.2145,5.0074,4.9724,4.9901,4.8554,4.6464,0.0,0.0,0.0,0.0,0.0,0.0,0.0,0.0,0.0,0.0,0.0,0.0,0.0,0.0,0.0,0.0,0.0,0.0,0.0,5.3984,5.7324,6.0137,6.1504,6.1855,6.2207,6.293,6.2539,6.2754,6.416,6.3045,6.2403,6.2805,6.2156,6.1684,6.153,5.9531,5.8176,5.7695,5.7987,5.7833,5.7215,5.9589,6.0806,6.0806,0.0,0.0,6.0806,6.0806,6.0439,5.9843,5.9779,5.9784,5.9862,5.9779,5.9281,5.8454,5.7767,5.7478,5.7038,5.3347,5.2708,5.3261,0.0,0.0,0.0,0.0,0.0,0.0,0.0,3.4784,3.5183,3.5984,3.7408,3.8916,4.0382,4.0931,4.1591,4.2599,4.0421,3.9079,3.9296,3.7739,3.8691,4.2919,4.3524,4.4322,4.5575,4.5594,4.5594,4.5594,4.5594,4.5631,4.5696,4.5696,4.571,4.5741,4.5741,4.5789,4.5881,4.6313,4.6802,4.7307,4.7307,4.8094,4.9418,5.0427,5.0801,5.1016,5.2734,5.3906,5.4453,5.3183,5.3027,5.3203,5.2363,5.0605,4.8262,0.0,0.0,0.0,0.0,0.0,0.0,0.0,0.0,0.0,0.0,0.0,0.0,0.0,0.0,4.7344,4.8652,0.0,5.2441,5.5469,5.7383,5.9258,6.1406,6.1699,6.1855,6.2305,6.1973,6.2031,6.291,6.2553,6.2191,6.2065,6.1888,6.1732,6.1551,5.9932,5.8631,5.7821,5.8583,5.8423,5.7215,5.9589,6.0806,6.0806,6.0806,6.0806,6.0806,6.0806,6.0806,6.0787,6.0339,6.0146,6.005,5.8761,5.8261,5.8165,5.6863,5.6343,5.6046,5.3571,5.2888,5.2905,0.0,0.0,0.0,0.0,0.0,0.0,0.0,3.4423,3.4724,3.5058,3.6022,3.7321,3.8912,3.8309,3.8244,3.9339,3.7785,3.7957,4.0777,4.077,4.2119,4.5369,4.5568,4.5594,4.5594,4.5594,4.5594,4.5594,4.5594,4.5594,4.5594,4.5594,4.5594,4.5594,4.5594,4.5653,4.5768,4.5768,4.6202,4.6866,4.6158,4.6311,4.7213,4.9662,5.0719,5.1092,5.285,5.3945,5.459,5.4922,5.5058,5.5078,5.5254,5.4336,5.2226,4.7226,4.6621,0.0,0.0,0.0,0.0,0.0,0.0,0.0,0.0,4.5605,4.6758,4.8691,4.9492,5.0332,5.1894,5.2187,5.3379,5.6992,5.7598,5.8555,6.1308,6.1699,6.1699,6.1699,6.1699,6.1699,6.1699,6.2344,6.2398,6.1568,6.2054,6.2296,6.2112,6.1341,6.0297,5.9002,6.021,5.9934,5.7964,5.971,6.0671,6.0806,6.0633,6.0633,6.0806,6.0806,6.0806,6.0787,6.0614,6.0069,5.9146,5.7632,5.742,5.7896,5.6299,5.5708,5.5574,5.4607,5.381,5.3094,0.0,0.0,0.0,0.0,0.0,0.0,0.0,0.0,3.4781,3.6273,3.6609,3.7321,3.8912,3.8309,3.6901,3.469,3.6005,3.7265,3.7937,4.0015,4.2395,4.5049,4.5438,4.5594,4.5594,4.5594,4.5594,4.5594,4.5594,4.5594,4.5594,4.5594,4.5594,4.5594,4.5594,4.5607,4.561,4.561,4.5758,4.5948,4.5848,4.5914,4.6158,4.726,4.8218,4.9226,5.0984,5.1709,5.207,5.3613,5.4141,5.4277,5.5058,5.5176,5.4141,4.9746,4.8047,4.6289,4.0234,3.7676,3.7617,4.1348,4.3574,4.5664,0.0,5.2422,5.5019,5.4531,5.6289,5.8183,5.9082,5.9258,5.9668,6.0937,6.1133,6.1269,6.164,6.1699,6.1699,6.1699,6.1699,6.1699,6.1699,6.1797,6.1753,6.1529,6.1573,6.1562,6.1421,6.1318,6.1159,6.0981,6.1143,6.1025,6.059,6.0123,6.021,6.0787,6.0012,6.005,6.0806,6.0806,6.0806,6.0768,5.9973,5.9184,5.8352,5.7401,5.706,5.7055,5.6074,5.5708,5.5516,5.3933,5.3364,5.3126,0.0,0.0,0.0,0.0,0.0,0.0,0.0,0.0,0.0,3.4921,3.5014,3.5642,3.729,3.6415,3.4587,3.1783,3.4218,3.6354,3.7419,4.0309,4.2833,4.473,4.5129,4.5312,4.5312,4.5499,4.5594,4.5594,4.5594,4.5594,4.5594,4.5594,4.5594,4.5594,4.5594,4.5594,4.5594,4.5594,4.5627,4.5673,4.5673,4.5703,4.5775,4.613,4.6886,4.7752,4.7587,4.7862,0.0,4.9166,4.9781,5.0586,5.2394,5.1988,5.0371,4.8066,4.6055,4.3926,4.0937,4.1406,4.3183,4.498,4.7851,5.0742,5.2715,5.4551,5.6172,5.7324,5.8808,6.0156,6.0996,5.9531,5.8965,6.1328,6.0039,5.9433,6.1426,6.1699,6.1699,6.1699,6.039,5.9492,5.9492,6.082,6.1054,5.9521,6.0705,6.1488,6.1426,6.0864,6.0777,6.1286,6.0324,5.9999,6.0415,5.9576,5.9552,6.0323,5.9974,6.0249,6.1087,6.0968,6.0601,5.9973,5.8632,5.8146,5.8195,5.6893,5.6618,5.6939,5.6265,5.5876,5.5497,5.3818,5.3229,5.3036,0.0,0.0,0.0,0.0,0.0,0.0,0.0,0.0,0.0,0.0,3.3807,3.4208,3.5264,3.455,3.2969,3.0469,3.327,3.5761,3.715,4.0393,4.2892,4.4378,4.4769,4.496,4.496,4.5278,4.5452,4.5452,4.554,4.5594,4.5594,4.5594,4.5594,4.5594,4.5594,4.5594,4.5594,4.5594,4.5594,4.5594,4.5594,4.5594,4.5594,4.5594,4.563,4.5563,4.4717,4.4842,4.5348,4.4894,4.5672,4.7065,4.8421,4.8251,4.7204,4.5429,4.2871,4.0762,4.1367,4.3457,4.5996,4.8125,5.1172,5.4062,5.5644,5.6191,5.6914,5.8808,5.9668,6.0332,6.1172,5.9316,5.8535,6.1269,5.9629,5.8867,6.1348,6.1699,6.1445,6.0742,5.9023,5.7344,5.5918,5.873,6.0176,5.9023,6.0573,6.1551,6.1551,6.0638,6.0519,6.1379,5.9735,5.923,6.0054,5.898,5.8959,5.999,5.976,6.0213,6.1283,6.0902,6.0067,5.8848,5.7641,5.7332,5.7627,5.6466,5.6307,5.6732,5.6356,5.5908,5.53,5.3852,5.3311,5.3037,0.0,0.0,0.0,0.0,0.0,0.0,0.0,0.0,0.0,0.0,0.0,0.0,0.0,3.3286,3.2745,3.1011,3.3642,3.5733,3.657,3.9764,4.2334,4.3957,4.4394,4.4624,4.4624,4.4943,4.5126,4.5126,4.5438,4.5594,4.5594,4.5594,4.5594,4.5594,4.5594,4.5594,4.5594,4.5594,4.5594,4.5594,4.5594,4.5594,4.5594,4.5594,4.4129,4.218,4.3112,4.3543,4.3439,4.1872,4.292,4.4634,4.3142,4.4854,4.661,4.2557,3.8906,3.7109,4.123,4.1269,4.1933,4.9414,5.2012,5.3633,5.7031,5.8476,5.9101,5.918,5.9219,5.9473,6.0293,6.0351,6.0605,6.1543,6.1601,6.1582,6.1699,6.1699,6.0781,5.8301,5.7949,5.5937,5.0918,5.5039,5.9004,6.1406,6.164,6.1699,6.1699,6.0859,6.0781,6.166,6.0058,5.9503,6.0191,5.8553,5.8486,5.999,5.9146,5.9635,6.1267,6.0418,5.909,5.7456,5.7417,5.6953,5.6258,5.6203,5.6203,5.622,5.6208,5.5678,5.4827,5.3919,5.3583,5.3222,0.0,0.0,0.0,0.0,0.0,0.0,0.0,0.0,0.0,0.0,0.0,0.0,0.0,0.0,0.0,0.0,3.29,3.4369,3.572,3.8399,4.0569,4.2018,4.345,4.4197,4.4197,4.4561,4.4878,4.5096,4.5211,4.5371,4.5594,4.5594,4.5594,4.5594,4.5594,4.5594,4.5594,4.5594,4.5594,4.5594,4.5594,4.5594,4.5473,4.4411,4.3122,4.1583,0.0,3.8011,3.749,3.6943,3.7349,3.8293,3.9396,3.9381,3.8374,3.5273,3.6777,3.9512,3.9805,4.3223,4.7617,5.1348,5.3789,5.5742,5.75,5.8125,5.834,5.834,5.6953,5.582,5.6094,5.5215,5.5098,5.7129,5.6973,5.7793,6.1211,5.875,5.7539,6.0117,5.7402,5.5976,5.7676,5.7344,5.668,5.5781,5.8906,6.084,6.084,6.0566,6.0527,6.082,5.9219,5.8456,5.8665,5.7532,5.7527,5.8604,5.89,5.9268,5.9675,5.8841,5.8081,5.7373,5.6831,5.6444,5.6161,5.5675,5.5427,5.529,5.4905,5.445,5.3884,5.2601,5.2078,5.1801,0.0,0.0,0.0,0.0,0.0,0.0,0.0,0.0,0.0,0.0,0.0,0.0,0.0,0.0,0.0,0.0,0.0,3.3858,3.5158,3.7047,3.8737,4.0175,4.1534,4.2247,4.2247,4.3176,4.3787,4.399,4.4736,4.5211,4.5424,4.5531,4.5594,4.5594,4.5594,4.5594,4.5594,4.5594,4.5594,4.5556,4.4955,4.4705,4.4526,4.2868,4.1332,0.0,3.7157,3.5103,3.3565,3.329,3.3832,3.4757,3.5489,3.4622,3.3496,3.4272,3.7029,4.0234,4.2207,4.6387,5.082,5.3437,5.5351,5.6758,5.7305,5.7441,5.7441,5.7441,5.5605,5.3906,5.3594,5.2617,5.2402,5.4101,5.4414,5.5957,6.0215,5.7949,5.6973,5.998,5.7402,5.6328,5.8711,5.7519,5.6035,5.4668,5.7637,5.9512,5.9512,5.8926,5.914,6.0351,5.8476,5.7598,5.789,5.7031,5.7031,5.791,5.8789,5.8962,5.8529,5.8004,5.7184,5.6174,5.5964,5.5516,5.4934,5.4767,5.4662,5.453,5.4154,5.352,5.2693,5.1752,5.0776,4.9833,0.0,0.0,0.0,0.0,0.0,0.0,0.0,0.0,0.0,0.0,0.0,0.0,0.0,0.0,0.0,0.0,0.0,0.0,3.4894,3.5782,3.6982,3.8498,3.8902,3.9096,3.9091,4.0921,4.187,4.1901,4.3874,4.4854,4.4875,4.5193,4.5344,4.5344,4.5344,4.5344,4.5344,4.5344,4.5344,4.5205,4.3609,4.297,4.2777,4.1043,3.8883,3.6814,3.6841,3.4793,3.1956,3.1266,3.2622,3.4246,3.2045,3.1386,3.2635,3.8891,3.938,3.9648,4.7695,5.0195,5.1504,5.5586,5.6601,5.6601,5.6601,5.6601,5.6543,5.6367,5.4883,5.3301,5.2344,5.2148,5.2207,5.2519,5.3965,5.5996,5.875,5.9023,5.8672,5.7988,5.789,5.6973,5.4629,5.5898,5.7148,5.7851,0.0,5.8008,5.7969,5.6445,5.7012,6.0176,5.793,5.7031,5.7832,5.7012,5.7012,5.7832,5.8672,5.8633,5.7832,5.7793,5.6406,5.4101,5.4883,5.4297,5.2832,5.3613,5.3906,5.3867,5.3828,5.2773,5.1269,5.1211,4.9687,4.7598,0.0,0.0,0.0,0.0,0.0,0.0,0.0,0.0,0.0,0.0,0.0,0.0,0.0,0.0,0.0,0.0,0.0,0.0,3.4094,3.5477,3.6486,3.689,3.8129,3.8899,3.911,3.9585,4.0052,4.0514,4.1035,4.1437,4.1671,4.1757,4.1805,4.1805,4.1805,4.1805,4.1805,4.1805,4.1805,4.1766,4.132,4.1166,4.0989,3.9345,3.7919,3.6643,3.5533,3.4165,3.2868,3.2737,3.4327,3.6471,3.7111,3.7812,3.8243,3.7386,4.1313,4.5859,4.5469,5.0058,5.5234,5.6328,5.6601,5.6601,5.6601,5.6601,5.5859,5.3262,5.0351,4.7598,4.543,4.4531,4.5605,5.0117,5.1211,5.3086,5.7598,5.6543,5.5976,5.7695,5.789,5.8379,5.9629,6.0137,5.9707,5.8027,5.9062,5.9492,5.8906,5.9023,5.8926,5.8555,5.791,5.7363,5.6933,5.6719,5.6719,5.6933,5.7168,5.7148,5.6914,5.6269,5.5605,5.4941,5.4512,5.4082,5.3633,5.3203,5.2656,5.1992,5.1406,5.0508,4.9453,4.8808,4.8164,4.7519,0.0,0.0,0.0,0.0,0.0,0.0,0.0,0.0,0.0,0.0,0.0,0.0,0.0,0.0,0.0,0.0,0.0,0.0,0.0,3.4688,3.5202,3.5202,3.6175,3.6801,3.6942,3.7661,3.8278,3.8733,3.9469,3.9984,4.0274,4.0426,4.0496,4.0496,4.0496,4.0496,4.0496,4.0496,4.0496,0.0,0.0,3.9396,3.9215,3.7578,3.6661,3.6113,3.5274,3.4675,3.4539,3.6445,3.7278,3.8143,4.1685,4.2422,4.2229,4.3297,4.6334,4.9346,4.9355,5.2891,5.6601,5.6601,5.6601,5.6191,5.4668,5.4316,5.334,4.9863,4.7031,4.459,4.2734,4.2344,4.3789,4.832,5.0312,5.2578,5.623,5.582,5.582,5.7676,5.789,5.8906,6.1445,6.1699,6.1113,5.9687,5.9043,5.8535,5.8086,5.7754,5.7695,5.789,5.7539,5.709,5.6601,5.6601,5.6601,5.6601,5.6211,5.6035,5.5996,5.5137,5.4316,5.3574,0.0,5.3008,5.2324,5.2187,5.1836,5.1328,5.0508,4.9668,4.8789,4.793,4.7363,4.6953,0.0,0.0,0.0,0.0,0.0,0.0,0.0,0.0,0.0,0.0,0.0,0.0,0.0,0.0,0.0,0.0,0.0,0.0,0.0,0.0,3.3807,3.3807,3.4018,3.4152,3.4194,3.5609,3.6496,3.679,3.8276,3.9129,3.9356,3.9688,3.9838,3.9838,3.9838,3.9838,3.9838,3.9838,3.9838,3.9704,3.8257,3.7661,3.7507,0.0,3.55,3.5501,3.5574,3.5582,3.627,4.0855,4.0885,4.0023,4.581,4.6276,4.5709,5.1133,5.1613,5.1131,5.458,5.5955,5.6425,5.6542,5.6582,5.5742,5.248,5.1562,5.0351,4.6719,4.457,4.3105,4.2226,4.2773,4.4336,4.7285,5.0351,5.2891,5.4414,5.5859,5.6914,5.7324,5.7695,5.8906,6.1445,6.1289,6.1152,6.1504,5.8574,5.6816,5.6933,5.539,5.5508,5.7656,5.6992,5.6601,5.6601,5.6484,5.6426,5.6426,5.5547,5.5137,5.5098,5.4219,5.3008,5.1601,5.2246,0.0,5.041,5.1113,5.1269,5.0996,5.0293,4.9414,4.8457,4.7715,4.6953,4.6308,0.0,0.0,0.0,0.0,0.0,0.0,0.0,0.0,0.0,0.0,3.3343,3.3807,0.0,0.0,0.0,0.0,0.0,0.0,0.0,0.0,0.0,3.3807,3.3848,3.3974,3.4206,3.4473,3.4792,3.5118,3.5619,3.5891,3.5958,3.6236,3.6369,3.6369,3.6369,3.6369,3.6369,3.6369,3.6369,3.635,3.6058,3.5923,3.5904,3.5615,0.0,0.0,3.5518,3.5528,3.6471,4.2822,4.4186,4.416,4.9398,5.1338,5.1187,4.8822,5.0427,5.2504,5.0469,5.2578,5.5536,5.6252,5.6514,5.6055,5.4023,5.2422,5.0019,4.5156,4.2812,4.1367,4.0488,4.1055,4.3183,4.791,4.9785,5.0742,5.1035,5.4883,5.6933,5.4922,5.6582,5.8906,6.1445,5.914,5.8359,6.0469,5.8789,5.7988,5.8711,5.7773,5.7109,5.6836,5.668,5.6601,5.6601,5.5898,5.5527,5.5508,5.4648,5.4238,5.4199,5.332,5.2754,5.2441,5.1875,0.0,5.1191,5.1348,5.0586,4.9316,4.918,4.8144,4.6738,4.6582,4.6426,4.6308,0.0,0.0,0.0,0.0,0.0,0.0,0.0,3.1669,3.1888,3.2118,3.2711,3.3218,3.3465,3.3494,3.3571,0.0,0.0,0.0,0.0,0.0,0.0,0.0,3.3807,3.385,3.3993,3.3999,3.4141,3.4434,0.0,3.4963,3.5105,3.5372,3.55,3.55,3.55,3.55,3.55,3.55,3.55,3.55,3.55,3.55,3.55,0.0,0.0,0.0,3.55,3.55,3.625,4.1262,4.2666,4.3609,5.0933,5.3268,5.255,4.8786,5.0445,5.2769,4.945,5.1715,5.5115,5.5606,5.5771,5.4794,5.0878,4.9004,4.6484,4.0859,3.9043,3.8633,3.9121,3.9941,4.2363,4.7988,5.0351,5.1816,5.2734,5.5762,5.7422,5.6172,5.7148,5.8379,5.9609,5.8242,5.7598,5.8359,5.7265,5.7129,5.8457,5.7695,5.7031,5.6601,5.6152,5.5918,5.5918,5.5058,5.4629,5.4609,5.373,5.332,5.3281,5.2422,5.2012,5.1992,5.1582,0.0,5.0674,5.0741,4.9998,4.8759,4.8378,4.7715,4.6914,4.6465,4.6308,4.6308,0.0,0.0,0.0,0.0,0.0,0.0,0.0,3.146,3.1669,3.1669,3.1986,3.2392,3.2848,3.3075,3.3324,0.0,0.0,0.0,0.0,0.0,0.0,0.0,0.0,0.0,3.3807,0.0,0.0,3.4111,3.4508,0.0,0.0,0.0,0.0,0.0,3.55,3.55,3.55,3.55,3.55,0.0,0.0,3.55,0.0,0.0,0.0,0.0,0.0,3.55,3.6,3.9377,4.04,4.1631,4.9548,5.1837,5.115,4.891,5.0155,5.1869,5.0073,5.2025,5.4685,5.5155,5.5165,5.3609,4.8032,4.5813,4.3333,3.767,3.6227,3.6561,3.8475,3.9414,4.1758,4.7422,4.9843,5.1815,5.414,5.5937,5.7245,5.7832,5.7734,5.7832,5.8379,5.7598,5.7012,5.6894,5.5898,5.5976,5.7539,5.6797,5.6328,5.6328,5.5488,5.5019,5.5019,5.416,5.3711,5.3711,5.2832,5.2422,5.2402,5.1719,5.1308,5.1133,5.1133,0.0,0.0,5.0075,4.9505,4.8382,4.8024,4.7656,4.7246,4.6543,4.6308,4.6308,0.0,0.0,0.0,0.0,0.0,0.0,0.0,3.123,3.1269,3.1269,3.1291,3.1477,3.1888,3.2679,3.3214,0.0,0.0,0.0,0.0,0.0,0.0,0.0,0.0,0.0,0.0,0.0,0.0,3.3842,3.4428,0.0,0.0,0.0,0.0,0.0,0.0,3.55,3.55,3.55,0.0,0.0,0.0,0.0,0.0,0.0,0.0,0.0,0.0,3.55,3.6,3.9377,4.0015,3.9954,4.3143,4.5148,4.6537,4.7753,4.8334,4.9205,5.2021,5.3142,5.3916,5.5432,5.5372,5.375,4.9309,4.6448,4.3467,3.9013,3.6933,3.667,3.9133,3.976,4.1367,4.582,4.5965,4.6991,5.1171,5.3154,5.51,5.7597,5.7207,5.7637,5.9941,5.664,5.5312,5.7617,5.623,5.5723,5.668,5.5898,5.543,5.543,5.457,5.4121,5.4121,5.3262,5.2812,5.2812,5.1933,5.1523,5.1523,5.1445,5.0996,5.0312,5.0312,0.0,0.0,4.9821,4.9134,4.76,4.8454,4.7812,4.6406,4.6328,4.6308,4.6308,0.0,0.0,0.0,0.0,0.0,0.0,3.12,3.12,3.12,3.12,3.12,3.1252,3.142,3.1986,3.2582,3.3143,0.0,0.0,0.0,0.0,0.0,0.0,0.0,0.0,0.0,0.0,3.3807,3.3807,3.4392,0.0,0.0,0.0,0.0,0.0,0.0,3.55,3.55,3.55,0.0,0.0,0.0,0.0,0.0,0.0,0.0,0.0,0.0,0.0,3.5692,3.7042,3.7276,3.7103,3.7588,3.8203,3.9069,4.0754,4.4158,4.7331,4.7163,5.0513,5.4248,5.4985,5.4186,5.2113,4.7952,4.4993,4.1918,3.7619,3.6221,3.6415,3.8482,3.8897,4.0164,4.3931,4.467,4.6279,5.0726,5.234,5.4278,5.7519,5.7598,5.7363,5.7324,5.5781,5.4785,5.4765,5.4096,5.4075,5.498,5.4707,5.4512,5.4512,5.3672,5.3223,5.3223,5.2344,5.1914,5.1914,5.1562,5.1406,5.1406,5.1406,5.123,5.0898,5.041,0.0,0.0,4.841,4.7504,4.5886,4.6926,4.6914,4.6308,4.6308,4.6308,4.6308,0.0,0.0,0.0,0.0,0.0,3.12,3.12,3.12,3.12,3.12,3.12,3.12,3.12,3.1458,3.1942,3.2729,3.3045,0.0,0.0,0.0,0.0,0.0,0.0,0.0,0.0,0.0,3.3807,3.3807,3.4392,3.4694,0.0,0.0,3.55,3.55,0.0,0.0,0.0,0.0,0.0,0.0,0.0,0.0,0.0,0.0,0.0,0.0,0.0,0.0,0.0,0.0,0.0,3.5308,3.416,3.3817,3.4202,3.6138,4.0831,4.5274,4.4739,4.926,5.4254,5.4844,5.3121,5.0349,4.6705,4.3499,4.0201,3.6427,3.5851,3.6514,3.7991,3.8504,3.9715,4.2897,4.4127,4.6148,5.0289,5.1836,5.3673,5.6714,5.7067,5.6717,5.5762,5.5683,5.5078,5.3574,5.3196,5.3194,5.3594,5.3379,5.3359,5.3613,5.2773,5.2324,5.2324,5.1465,5.1055,5.1035,5.0781,5.0644,5.0602,5.0644,5.0507,5.0192,4.9668,0.0,0.0,4.7413,4.6622,4.523,4.6261,4.6523,4.6308,4.6308,4.6308,4.6308,0.0,0.0,0.0,0.0,0.0,0.0,3.12,3.12,3.12,3.12,3.12,3.12,3.12,3.12,3.138,3.178,3.2655,0.0,0.0,0.0,0.0,0.0,0.0,0.0,0.0,0.0,3.3807,3.3807,3.4392,3.4694,3.4704,3.5242,3.55,3.55,0.0,0.0,0.0,0.0,0.0,0.0,0.0,0.0,0.0,0.0,0.0,0.0,0.0,0.0,0.0,0.0,0.0,0.0,0.0,3.291,3.341,3.5965,3.9158,4.2754,4.6928,5.0582,5.3606,5.5266,5.2534,4.8769,4.6195,4.2347,3.8592,3.6026,3.6239,3.716,3.8047,3.8956,4.0426,4.2975,4.4121,4.5898,4.9328,5.1308,5.3079,5.4918,5.5135,5.5504,5.6484,5.6582,5.6211,5.5332,5.4473,0.0,5.2754,5.1894,5.1816,5.2695,5.1875,5.1406,5.1406,5.0605,5.0215,5.0195,4.9336,4.8862,4.8731,4.8863,4.8374,0.0,0.0,0.0,0.0,4.7184,4.7005,4.6192,4.7184,4.7051,4.6308,4.6308,4.6308,4.6308,0.0,0.0,0.0,0.0,0.0,0.0,0.0,3.12,3.12,3.12,3.12,3.12,3.12,3.12,3.1242,3.1389,3.2205,0.0,0.0,0.0,0.0,0.0,0.0,0.0,0.0,0.0,3.3889,3.4062,3.4491,3.4784,3.4981,3.5323,3.55,3.55,3.55,3.55,0.0,0.0,0.0,0.0,0.0,0.0,0.0,0.0,0.0,0.0,0.0,0.0,0.0,0.0,0.0,0.0,0.0,0.0,0.0,3.3215,3.5677,3.8869,4.1393,4.4547,4.7394,4.8514,4.6937,4.4566,4.257,4.0185,3.8007,3.6619,3.6568,3.7205,3.868,3.9187,4.0252,4.2901,4.3557,4.4989,4.8559,5.0034,5.1657,5.4057,5.5406,5.6247,5.6562,5.5443,5.46,5.4433,5.3001,5.2042,5.1816,5.1543,5.1523,5.1797,5.1543,5.1133,5.0586,5.0332,4.9902,4.9316,4.9023,4.8823,4.8691,4.8844,4.8686,0.0,0.0,0.0,0.0,4.654,4.6146,4.5377,4.6345,4.6543,4.6308,4.6308,4.6308,4.6308,0.0,0.0,0.0,0.0,0.0,0.0,0.0,3.12,3.12,3.12,3.12,3.12,3.12,3.12,3.12,3.12,3.1995,0.0,0.0,0.0,0.0,0.0,0.0,0.0,0.0,3.3807,3.3923,3.4194,3.4535,3.4846,3.5105,3.5372,3.55,3.55,3.55,3.55,0.0,0.0,0.0,0.0,0.0,0.0,3.55,0.0,0.0,0.0,0.0,0.0,0.0,0.0,0.0,0.0,0.0,0.0,0.0,0.0,3.3176,3.5407,3.8084,4.1281,4.4124,4.5302,4.384,4.1839,4.0746,3.8954,3.735,3.6811,3.7773,3.881,3.9222,4.0128,4.1128,4.2083,4.3407,4.5082,4.7301,4.9226,5.1148,5.3114,5.4655,5.5563,5.5605,5.4858,5.4133,5.3555,5.2475,0.0,5.1426,5.1113,5.0957,5.0957,5.0957,5.0703,5.0195,4.9551,4.8945,4.8418,4.8086,4.7846,4.7714,4.7867,4.7846,0.0,0.0,0.0,0.0,4.6268,4.5955,4.5496,4.6073,4.6308,4.6308,4.6308,4.6308,4.6308,0.0,0.0,0.0,0.0,0.0,0.0,0.0,3.12,3.12,3.12,3.12,3.12,3.12,3.123,3.1232,3.1232,0.0,0.0,0.0,0.0,0.0,0.0,0.0,0.0,3.3807,3.3815,3.3961,3.4248,3.4566,3.4875,3.513,3.538,3.55,3.55,3.55,3.55,0.0,0.0,0.0,0.0,3.55,3.55,0.0,0.0,0.0,0.0,0.0,0.0,0.0,0.0,0.0,0.0,0.0,0.0,0.0,0.0,0.0,0.0,0.0,4.0008,4.2854,4.4474,4.2493,4.0169,4.0227,3.8392,0.0,3.7004,3.9686,4.1499,3.9864,4.1702,4.2876,4.1,4.3729,4.6072,4.6002,4.904,5.1534,5.2232,5.3312,5.3963,5.3905,5.4746,5.457,5.2832,5.2695,0.0,5.1367,5.0605,5.0176,5.0117,5.0058,5.0019,5.0019,4.8418,4.7558,4.748,4.668,4.6224,4.6085,4.6226,4.6225,0.0,0.0,0.0,0.0,4.6308,4.6308,4.6308,4.6308,4.6308,4.6308,4.6308,4.6308,4.6308,0.0,0.0,0.0,0.0,0.0,0.0,0.0,0.0,0.0,0.0,3.12,3.12,3.12,3.147,3.166,0.0,0.0,0.0,0.0,0.0,0.0,0.0,0.0,0.0,3.3807,3.4012,3.4259,3.4577,3.486,3.5138,3.5417,3.546,3.55,3.55,3.55,3.55,0.0,0.0,0.0,0.0,3.55,3.55,0.0,0.0,0.0,0.0,3.55,3.55,0.0,0.0,0.0,0.0,0.0,0.0,0.0,0.0,3.2622,3.2833,3.3833,0.0,3.6549,3.76,3.7273,3.683,0.0,3.7138,3.7446,4.0062,4.1262,4.1925,4.2155,4.386,4.4653,4.2912,4.5094,4.7203,4.7775,5.092,5.2974,5.2433,5.4493,5.5151,5.3124,5.4372,5.457,5.2832,5.2695,5.2051,5.0566,5.0293,4.9883,4.9238,4.8555,4.8203,4.8203,4.7793,4.7204,4.6459,4.6345,4.6175,4.5965,4.6198,4.6225,0.0,0.0,0.0,4.6308,4.6308,4.6308,4.6308,4.6308,4.6308,4.6308,4.6308,4.6308,4.6308,0.0,0.0,0.0,0.0,0.0,0.0,0.0,0.0,0.0,0.0,0.0,0.0,0.0,0.0,0.0,0.0,0.0,0.0,0.0,0.0,0.0,0.0,0.0,3.3807,3.3807,3.4068,3.4368,3.4694,3.4967,3.5231,3.55,3.55,3.55,3.55,3.55,3.55,0.0,0.0,0.0,0.0,3.55,0.0,0.0,0.0,0.0,0.0,3.55,3.55,0.0,3.55,3.55,3.55,0.0,0.0,0.0,0.0,3.351,3.3583,3.3984,3.4141,3.4683,3.6738,3.6638,3.6465,3.8084,3.8161,3.8642,4.1254,4.2171,4.2736,4.351,4.4494,4.4889,4.3928,4.5352,4.7182,4.8868,5.1109,5.2372,5.1868,5.3498,5.3969,0.0,5.3646,5.3984,5.2226,5.1758,5.1152,5.0254,4.9433,4.8789,4.832,4.7461,4.7207,4.7598,4.7207,4.6694,4.6109,4.6246,4.6198,4.5995,4.6201,4.6268,0.0,0.0,0.0,4.6269,4.5836,4.5915,4.6308,4.6308,4.6308,4.6308,4.6308,4.6308,4.6308,0.0,0.0,0.0,0.0,0.0,0.0,0.0,0.0,0.0,0.0,0.0,0.0,0.0,0.0,0.0,0.0,0.0,0.0,0.0,0.0,0.0,0.0,0.0,3.3815,3.385,3.4123,3.4434,3.4754,3.5021,3.5281,3.55,3.55,3.55,3.55,3.55,3.55,0.0,0.0,0.0,0.0,3.55,0.0,0.0,0.0,0.0,0.0,0.0,0.0,0.0,3.55,3.55,3.55,3.55,0.0,0.0,0.0,0.0,0.0,3.5311,3.5042,3.5337,3.8511,3.818,3.7734,4.0146,4.0165,4.0219,4.2177,4.3264,4.401,4.4585,4.5127,4.5221,4.4435,4.5463,4.726,4.9849,5.1072,5.1605,5.1334,5.2321,0.0,5.1402,5.2943,5.3281,5.1523,0.0,5.0195,5.0195,4.8555,4.7598,4.7598,4.6758,4.6641,4.7383,4.668,4.6225,4.6109,4.6246,4.6225,4.6091,4.6246,4.6308,4.6269,0.0,0.0,4.623,4.5435,4.5577,4.6308,4.6308,4.6308,4.6308,4.6308,4.6308,4.6289,0.0,0.0,0.0,0.0,0.0,0.0,0.0,0.0,0.0,0.0,0.0,0.0,0.0,0.0,0.0,0.0,0.0,0.0,0.0,0.0,0.0,3.3807,3.3807,3.3909,3.4135,3.4464,3.4764,3.5049,3.5304,3.5453,3.55,3.55,3.55,3.55,3.55,3.55,3.55,0.0,0.0,3.55,3.55,0.0,0.0,0.0,0.0,0.0,0.0,0.0,0.0,3.55,3.55,3.55,3.55,0.0,0.0,0.0,0.0,0.0,3.5462,3.5907,3.6792,3.88,3.9107,3.9377,4.1196,4.1504,4.2312,4.5466,4.6247,4.638,4.6475,4.838,4.8685,4.4917,4.6955,4.9727,5.1729,5.3439,5.3925,5.2381,0.0,5.4737,5.1605,5.2943,5.3281,5.1523,0.0,5.0195,5.0195,4.8555,4.7598,4.7598,4.6758,4.6367,4.6504,4.6367,4.6225,4.6109,4.6246,4.6225,4.6091,4.6246,4.6308,4.6289,0.0,4.6171,4.6289,4.6132,4.6171,4.6308,4.6308,4.6308,4.6308,4.6308,4.6308,4.6191,0.0,0.0,0.0,0.0,0.0,0.0,0.0,0.0,0.0,0.0,0.0,0.0,0.0,0.0,0.0,0.0,0.0,0.0,0.0,0.0,3.3856,3.4006,3.4012,3.4062,3.4194,3.4675,3.4976,3.51,3.5369,3.55,3.55,3.55,3.55,3.55,3.55,3.55,3.55,3.55,3.55,3.55,0.0,0.0,0.0,0.0,0.0,0.0,0.0,0.0,0.0,0.0,3.55,3.55,3.55,0.0,0.0,0.0,0.0,0.0,3.7296,3.7815,3.8854,4.1935,4.1324,4.0877,4.4389,4.3793,4.3466,4.6851,4.6101,4.5389,4.7216,4.8253,4.8661,4.807,5.0161,5.2026,5.2446,5.3224,5.3445,5.2614,0.0,5.4085,5.1545,5.2943,5.3281,0.0,0.0,0.0,4.9512,4.8281,4.7383,4.6914,4.6504,4.6308,4.6308,4.6308,4.6225,4.6109,4.6246,4.6225,4.6091,4.6246,4.6308,4.6269,0.0,4.5836,4.6269,4.5756,4.5836,4.6308,4.6308,4.6308,4.6308,4.6308,4.6308,4.623,0.0,0.0,0.0,0.0,0.0,0.0,0.0,0.0,0.0,0.0,0.0,0.0,0.0,0.0,0.0,0.0,0.0,0.0,0.0,0.0,3.3993,3.4188,3.4332,3.441,3.441,3.4856,3.5126,3.5198,3.5391,3.55,3.55,3.55,3.55,3.55,3.55,3.55,3.55,3.55,3.55,3.55,0.0,0.0,0.0,0.0,0.0,0.0,0.0,0.0,0.0,0.0,0.0,0.0,0.0,0.0,0.0,3.6462,3.6696,3.7081,3.8838,3.93,4.0262,4.4282,4.3186,4.2493,4.7793,4.624,4.4759,4.8524,4.6778,4.5413,4.8202,4.7966,4.8231,5.095,5.2574,5.3482,5.353,5.3356,5.3239,5.3239,5.3592,5.3259,5.1774,5.2887,5.3066,0.0,0.0,0.0,4.9238,4.7988,4.707,4.6621,4.6406,4.6308,4.6308,4.6308,4.6247,4.6147,4.6247,4.6247,4.6148,4.6247,4.6308,4.6269,4.5536,4.5637,4.623,4.5516,4.5657,4.6308,4.6308,4.6308,4.6308,4.6308,4.6308,4.6269,0.0,0.0,0.0,0.0,0.0,0.0,0.0,0.0,0.0,0.0,0.0,0.0,0.0,0.0,0.0,0.0,0.0,0.0,0.0,0.0,3.4189,3.4194,3.475,3.5034,3.5034,3.5083,3.5219,3.546,3.5493,3.55,3.55,3.55,3.55,3.55,3.55,3.55,3.55,3.55,3.55,3.55,3.55,0.0,0.0,0.0,0.0,0.0,0.0,0.0,0.0,0.0,0.0,0.0,0.0,0.0,3.5654,3.6462,3.6696,3.7081,3.8838,3.93,4.0127,4.3532,4.3643,4.4432,5.0293,4.8413,4.6821,5.1818,5.076,4.9264,5.0322,4.9144,4.8975,5.1845,5.2416,5.3384,5.5954,5.5625,5.5117,5.5117,5.4433,5.3613,5.2695,5.2715,5.2402,0.0,0.0,0.0,5.0078,4.7754,4.6738,4.748,4.6719,4.6308,4.6308,4.6308,4.6308,4.6289,4.6308,4.6289,4.6289,4.6308,4.6308,4.6308,4.623,4.623,4.6289,4.623,4.623,4.6308,4.6308,4.6308,4.6308,4.6308,4.6308,4.6172,0.0,0.0,0.0,0.0,0.0,0.0,0.0,0.0,0.0,0.0,0.0,0.0,0.0,0.0,0.0,0.0,0.0,0.0,0.0,3.4147,3.4366,3.4736,3.499,3.5186,3.5354,3.5354,3.5391,3.55,3.55,3.55,3.55,3.55,3.55,3.55,3.55,3.55,3.55,3.55,3.55,3.55,3.55,3.55,0.0,0.0,0.0,0.0,0.0,0.0,0.0,0.0,3.55,3.55,3.55,3.55,3.575,3.71,3.7507,3.7873,3.9588,4.0435,4.1546,4.4397,4.4474,4.5124,5.0048,4.9495,4.8817,5.1774,5.0798,4.9354,4.9227,4.9966,5.1187,5.2981,5.326,5.3859,5.5546,5.5039,5.4492,5.4492,5.4199,5.3437,5.2031,5.1894,0.0,0.0,0.0,0.0,4.8594,4.7656,4.7012,4.6797,4.6465,4.6308,4.6308,4.6308,4.6308,4.6308,4.6308,4.6308,4.6308,4.6308,4.6308,4.6308,4.6308,4.6308,4.6308,4.6308,4.6308,4.6308,4.6308,4.6308,4.6308,4.6308,4.6308,4.6172,0.0,0.0,0.0,0.0,0.0,0.0,0.0,0.0,0.0,0.0,0.0,0.0,0.0,0.0,0.0,0.0,0.0,0.0,3.4345,3.4445,3.4671,3.5088,3.5186,3.5308,3.5497,3.55,3.55,3.55,3.55,3.55,3.55,3.55,3.55,3.55,3.55,3.55,3.55,3.55,3.55,3.55,3.55,3.5346,0.0,0.0,0.0,0.0,0.0,0.0,0.0,0.0,3.55,3.549,3.5391,3.5435,3.5816,3.7417,3.8136,3.878,4.0454,4.1354,4.2408,4.4955,4.4936,4.549,5.0029,5.0202,5.0183,5.2933,5.2183,5.0687,4.9629,5.0658,5.1936,5.2749,5.313,5.3677,5.468,5.4101,5.3496,5.3203,5.2949,5.2226,5.0742,5.0605,0.0,0.0,0.0,0.0,0.0,4.7344,4.6914,4.6328,4.6308,4.6308,4.6308,4.6308,4.6308,4.6308,4.6308,4.6308,4.6308,4.6308,4.6308,4.6308,4.6308,4.6308,4.6308,4.6308,4.6308,4.6308,4.6308,4.6133,4.5898,4.5898,4.5723,4.5351,0.0,0.0,0.0,0.0,0.0,0.0,0.0,0.0,0.0,0.0,0.0,0.0,0.0,0.0,0.0,0.0,0.0,0.0,3.4699,3.4954,3.51,3.5105,3.5361,3.55,3.55,3.55,3.55,3.55,3.55,3.55,3.55,3.55,3.55,3.55,3.5519,3.5519,3.5481,3.55,3.55,3.5481,3.5481,3.4965,3.4279,0.0,0.0,0.0,0.0,0.0,0.0,0.0,3.5462,3.5427,3.5171,3.5266,3.575,3.7194,3.8416,3.9642,4.1331,4.1808,4.2427,4.4955,4.4955,4.5663,5.0716,5.0601,5.0861,5.592,5.5631,5.3933,5.2197,5.1241,5.0758,5.0882,5.1674,5.2643,5.3656,5.3136,5.2344,5.1484,5.0683,4.9844,4.8965,4.8887,0.0,0.0,0.0,0.0,0.0,4.6777,4.6308,4.6308,4.6308,4.6308,4.6308,4.6308,4.6308,4.6308,4.6308,4.6308,4.6308,4.6308,4.6308,4.6308,4.6308,4.6308,4.6308,4.6308,4.6308,4.6289,4.6289,4.5742,4.498,4.5,4.4453,4.3574,0.0,0.0,0.0,0.0,0.0,0.0,0.0,0.0,0.0,0.0,0.0,0.0,0.0,0.0,0.0,0.0,0.0,0.0,3.4967,3.5062,3.519,3.5372,3.5453,3.55,3.55,3.55,3.55,3.55,3.55,3.55,3.55,3.55,3.55,3.5558,3.6734,3.6257,3.4661,3.585,3.5311,3.3676,3.3676,3.3526,3.3314,0.0,0.0,0.0,0.0,0.0,0.0,0.0,0.0,0.0,3.4023,3.4246,3.4856,3.7699,3.8281,3.858,4.1118,4.2086,4.2737,4.4301,4.5836,4.7528,4.9663,5.0659,5.1755,5.3895,5.3428,5.2159,5.0452,5.1414,5.2122,5.1071,5.1123,5.1678,5.2731,5.1686,5.0748,5.0586,4.9805,4.8945,4.8066,4.7988,0.0,0.0,0.0,0.0,0.0,4.6445,4.6308,4.6308,4.6308,4.6308,4.6308,4.6308,4.6308,4.6308,4.6308,4.6308,4.6308,4.6308,4.6308,4.6308,4.6308,4.6308,4.6308,4.6308,4.5937,4.5391,4.5391,4.4844,4.416,4.4766,4.4453,4.3652,0.0,0.0,0.0,0.0,0.0,0.0,0.0,0.0,0.0,0.0,3.4396,0.0,0.0,0.0,0.0,0.0,0.0,0.0,0.0,3.5266,3.5323,3.5497,3.55,3.55,3.55,3.55,3.55,3.55,3.55,3.55,3.55,3.55,3.533,3.5023,3.6045,3.5453,3.376,3.4757,3.4292,3.2891,3.2891,3.2718,3.2468,0.0,0.0,0.0,0.0,0.0,0.0,0.0,0.0,0.0,3.2927,3.385,3.521,3.7162,3.8679,4.0166,4.2221,4.3279,4.4269,4.6328,4.7353,4.8266,4.9791,5.1607,5.3274,5.4453,5.376,5.2524,5.1164,5.187,5.2271,5.1011,5.0863,5.0992,5.1314,5.0221,4.9336,4.9112,4.8626,4.7985,4.7168,4.707,0.0,0.0,0.0,0.0,0.0,4.6308,4.6308,4.6308,4.6308,4.6308,4.6308,4.6308,4.6308,4.6308,4.6308,4.6308,4.6289,4.5937,4.5781,4.5762,4.543,4.5273,4.5273,4.5273,4.4961,4.4473,4.4473,4.3945,4.3242,4.3769,4.3437,4.2715,0.0,0.0,0.0,0.0,0.0,0.0,0.0,0.0,0.0,0.0,3.4748,3.4846,0.0,0.0,0.0,0.0,0.0,0.0,0.0,0.0,3.5385,3.5385,3.5462,3.55,3.55,3.55,3.55,3.55,3.55,3.55,3.55,3.55,3.5023,3.4205,3.4356,3.3817,3.2795,3.2949,3.2872,3.2679,3.2679,3.2237,3.1657,3.2391,0.0,0.0,0.0,0.0,0.0,0.0,0.0,0.0,3.1829,3.3605,3.5881,3.5944,3.9095,4.2808,4.3863,4.4758,4.6209,4.9572,4.9127,4.8498,5.1018,5.3044,5.4799,5.6343,5.5324,5.3933,5.3217,5.2428,5.1601,5.0726,5.0681,5.0464,4.9591,4.8849,4.8119,4.7462,4.7312,4.7002,4.6347,0.0,0.0,0.0,0.0,0.0,0.0,4.6308,4.6308,4.6308,4.6308,4.6269,4.6172,4.6172,4.6133,4.6055,4.6055,4.6055,4.6035,4.5332,4.4961,4.4844,4.4043,4.3691,4.3691,4.3691,4.3652,4.3574,4.3574,4.3047,4.2305,4.2363,4.1894,4.1211,0.0,0.0,0.0,0.0,0.0,0.0,0.0,0.0,0.0,0.0,0.0,0.0,0.0,0.0,0.0,0.0,0.0,0.0,0.0,0.0,3.4472,3.4472,3.5138,3.55,3.55,3.55,3.55,3.55,3.55,3.55,3.55,3.55,3.5023,3.4263,3.5584,3.46,3.2045,3.3356,3.2776,3.0942,3.0942,3.0827,3.0692,3.0865,3.0827,0.0,0.0,0.0,0.0,0.0,0.0,0.0,3.0745,3.1316,3.2357,3.4927,3.7001,3.913,4.2216,4.3406,4.4497,4.7451,4.9333,5.1061,5.33,5.3642,5.3587,5.3933,5.2688,5.165,5.2101,5.2019,5.1409,4.9913,4.9691,4.9466,4.8687,4.7844,4.7306,4.7254,4.6641,4.6208,4.614,0.0,0.0,0.0,0.0,0.0,4.6308,4.6308,4.6308,4.6308,4.6308,4.5976,4.5293,4.5273,4.4941,0.0,4.4258,4.4258,4.4277,4.4766,4.4629,4.3965,4.3789,4.3691,4.3691,4.3691,4.3301,4.2676,4.2676,4.2187,4.1523,4.2168,4.1894,4.1289,0.0,0.0,0.0,0.0,0.0,0.0,0.0,0.0,0.0,0.0,0.0,0.0,0.0,0.0,0.0,0.0,0.0,0.0,0.0,0.0,3.376,3.4186,3.5023,3.55,3.55,3.55,3.55,3.55,3.55,3.55,3.55,3.55,3.4811,3.3625,3.4487,3.3465,3.1138,3.2006,3.1618,3.0404,3.0404,3.0404,3.0404,3.0404,3.0404,3.0404,3.0404,0.0,0.0,0.0,0.0,0.0,0.0,0.0,3.2174,3.3898,3.6304,3.898,4.1681,4.3578,4.5413,4.8081,5.0491,5.234,5.2849,5.2762,5.2582,5.2582,5.187,5.1395,5.1827,5.1236,5.0414,4.9548,4.8721,4.8074,4.7677,4.6878,4.6373,4.6516,4.6122,4.5881,4.599,0.0,0.0,0.0,0.0,4.6308,4.6308,4.6308,4.6113,4.5683,4.5683,4.5254,4.4394,4.4375,4.4141,4.3691,4.3691,4.3476,4.3086,4.3555,4.3301,4.25,4.25,4.25,4.25,4.25,4.2246,4.1836,4.1836,4.1562,4.125,4.168,4.1562,4.1269,0.0,0.0,0.0,0.0,0.0,0.0,0.0,0.0,0.0,0.0,0.0,0.0,0.0,0.0,0.0,0.0,0.0,0.0,0.0,0.0,0.0,3.3933,3.4946,3.5423,3.5273,3.5273,3.5346,3.55,3.5346,3.558,3.6157,3.6157,3.5234,3.3564,3.3564,3.2388,3.0404,3.0404,3.0404,3.0404,3.0404,3.0404,3.0404,3.0404,3.0404,3.0404,3.0404,3.0238,2.9973,2.9763,0.0,0.0,0.0,0.0,3.2485,3.2577,3.5542,3.9175,4.0914,4.3907,4.7062,4.933,5.1346,5.2546,5.1612,5.1617,5.1776,5.1707,5.1697,5.1659,5.1505,5.0337,4.9317,4.9009,4.7793,4.6851,4.6697,4.6052,4.5643,4.5754,4.5772,4.5803,4.5877,0.0,0.0,0.0,0.0,4.6268,4.6268,4.6289,4.5898,4.5039,4.5,4.4512,4.3496,4.3476,4.3418,4.3262,4.3262,4.2891,4.2187,4.2187,4.1836,4.1191,4.1191,4.1191,4.1191,4.1191,4.1191,4.1191,4.1191,4.1191,4.1191,4.1191,4.1191,4.1191,0.0,0.0,0.0,0.0,0.0,0.0,0.0,0.0,0.0,0.0,3.4962,3.4453,0.0,0.0,0.0,0.0,0.0,0.0,3.0788,0.0,0.0,3.3064,3.4638,3.5157,3.4395,3.4375,3.4737,3.55,3.4737,3.5895,3.88,3.88,3.7853,3.6196,3.6196,3.4038,3.0404,3.0404,3.0404,3.0404,3.0404,3.0404,3.0404,3.0404,3.0404,3.0404,3.0404,3.0238,2.9973,2.9763,2.9561,0.0,0.0,0.0,2.9704,3.0379,3.273,3.5606,3.7916,4.2686,4.7346,4.8722,5.0101,5.1233,5.1713,5.1581,5.1278,5.0927,5.0861,5.063,4.9875,4.9548,4.8913,4.7466,4.7043,4.6639,4.5879,4.5667,4.5603,4.5614,4.5637,4.5684,4.5799,0.0,0.0,0.0,4.6046,4.6139,4.6139,4.6246,4.5898,4.5039,4.5,4.4219,4.2598,4.2578,4.2226,4.1523,4.1523,4.1465,4.1367,4.1367,4.1308,4.1191,4.1191,4.1191,4.1191,4.1191,4.1191,4.1191,4.1191,4.1191,4.1191,4.1191,4.1191,4.1191,0.0,0.0,0.0,0.0,0.0,0.0,0.0,0.0,0.0,0.0,0.0,3.3597,0.0,0.0,0.0,3.1167,3.1105,3.092,3.0535,3.1611,3.2287,3.2287,3.3416,3.3853,3.349,3.3471,3.366,3.4042,3.366,3.5949,4.07,4.07,3.9273,3.6773,3.8696,3.6154,3.0538,3.2442,3.2154,3.0404,3.0404,3.0692,3.108,3.0596,3.0692,3.1061,3.0577,3.0155,2.9817,2.9735,2.9465,2.9162,2.9045,0.0,0.0,0.0,3.1396,3.3739,3.8405,4.2158,4.5471,4.8444,4.894,4.9033,5.0235,4.9849,4.923,4.925,4.924,4.9279,4.9375,4.8625,4.7755,4.7024,4.649,4.6033,4.5648,4.5594,4.5594,4.5594,4.5594,4.5614,4.5688,0.0,0.0,0.0,4.5931,4.5988,4.5988,4.5646,4.5083,4.4244,4.3787,4.2969,4.1738,4.1738,4.1543,4.1191,4.1191,4.1191,4.1191,4.1191,4.1191,4.1191,4.1191,4.1191,4.1191,4.1191,4.1191,4.1191,4.1191,4.1191,4.1191,4.1191,4.1191,4.1191,0.0,0.0,0.0,0.0,0.0,0.0,0.0,0.0,0.0,0.0,0.0,0.0,0.0,0.0,0.0,0.0,3.0616,3.0604,3.0604,3.1375,3.1728,3.1486,3.2389,3.2813,3.2602,3.2604,3.27,3.2891,3.27,3.5332,4.0523,4.1389,4.0312,3.7777,4.0331,3.8196,3.2772,3.4465,3.3696,3.1368,3.1368,3.1368,3.1311,3.0885,3.1138,3.1618,3.0962,3.0431,2.9996,2.9761,2.9387,2.8999,2.8999,2.8999,0.0,0.0,0.0,3.2601,3.8127,4.0785,4.2888,4.6631,4.7097,4.6962,4.8226,4.796,4.755,4.7903,4.789,4.7985,4.8644,4.7735,4.6831,4.6601,4.6013,4.5594,4.5594,4.5594,4.5594,4.5594,4.5594,4.5594,4.5594,0.0,0.0,0.0,4.583,4.5872,4.5872,4.5179,4.4405,4.3583,4.2796,4.199,4.1169,4.1171,4.1191,4.1191,4.1191,4.1191,4.1191,4.1191,4.1191,4.1191,4.1191,4.1191,4.1191,4.1191,4.1191,4.1191,4.1191,4.1191,4.1191,4.1191,4.1191,4.1191,0.0,0.0,0.0,0.0,0.0,0.0,0.0,0.0,0.0,0.0,0.0,0.0,3.2187,3.1296,3.0692,3.0692,3.0644,3.0604,3.0604,3.1412,3.151,3.0602,3.2126,0.0,3.1775,3.1817,3.2206,3.2891,3.2206,3.3606,3.7042,4.0273,4.1258,4.0304,4.0496,3.9915,3.8646,3.5568,3.4164,3.3991,3.3991,3.2583,3.0558,3.1349,3.1657,3.1695,3.1657,3.132,3.0811,2.9973,2.9387,2.8999,2.8999,2.8999,2.9005,0.0,0.0,0.0,3.5067,3.7661,3.9983,4.2067,4.4001,4.5507,4.5979,4.6572,4.7129,4.7545,4.7269,4.6985,4.7024,4.6966,4.662,4.5802,4.5633,4.5594,4.5594,4.5594,4.5594,4.5594,4.5594,4.5594,4.5594,0.0,0.0,0.0,4.5729,4.5812,4.5812,4.5109,4.4318,4.3436,4.2686,4.1898,4.1019,4.1148,4.1191,4.1191,4.1191,4.1191,4.1191,4.1191,4.1191,4.1191,4.1191,4.1191,4.1191,4.1191,4.1191,4.1191,4.1191,4.1191,4.1191,4.1191,4.1191,4.1191,0.0,0.0,0.0,0.0,0.0,0.0,0.0,0.0,0.0,0.0,0.0,0.0,0.0,3.1034,3.0836,3.0836,3.0811,3.0785,3.0785,3.0997,3.0971,3.0639,3.1113,3.1263,3.1006,3.0936,3.1047,3.1356,3.1047,3.2635,3.5962,3.7173,3.8738,4.0689,4.5094,4.3243,3.7023,3.9604,3.7238,3.2042,3.5315,3.4776,3.2157,3.3599,3.4465,3.4696,3.3064,3.2539,3.2401,3.1004,2.9854,2.8999,2.8999,2.8999,2.8999,2.8999,2.9763,3.1243,3.4055,3.5677,3.7453,4.1253,4.202,4.2277,4.3912,4.4461,4.4524,4.4143,4.5128,4.5834,4.5117,4.5572,4.5956,4.5648,4.5594,4.5594,4.5594,4.5594,4.5594,4.5594,4.5594,4.5594,4.5594,0.0,0.0,0.0,0.0,4.5422,4.4862,4.4147,4.3361,4.2524,4.1735,4.1227,4.0995,4.1128,4.1191,4.1191,4.1191,4.1191,4.1191,4.1191,4.1191,4.1191,4.1191,4.1191,4.1191,4.1191,4.1191,4.1191,4.1191,4.1191,4.1191,4.1191,4.1191,4.1191,0.0,0.0,0.0,0.0,0.0,0.0,0.0,0.0,0.0,3.2266,0.0,0.0,0.0,0.0,3.0898,3.0898,3.0898,3.0898,3.0898,3.0816,3.0746,3.0695,3.0604,3.0578,3.0603,3.0535,3.0498,3.0501,3.0475,3.1618,3.3808,3.4962,3.6696,3.9069,4.4744,4.384,3.8311,4.2239,4.0142,3.4462,3.7296,3.6892,3.4718,3.558,3.6077,3.6196,3.5353,3.4615,3.3954,3.3394,3.1964,3.0407,3.0407,2.9757,2.8999,2.8999,2.9372,3.0324,3.2732,3.3789,3.5081,3.8839,3.9644,3.9906,4.148,4.2598,4.3152,4.2617,4.4144,4.5377,4.4614,4.5092,4.5594,4.5594,4.5594,4.5594,4.5594,4.5594,4.5594,4.5594,4.5594,4.5594,4.5594,4.5594,0.0,0.0,0.0,0.0,4.4359,4.3848,4.3091,4.2027,4.1198,4.0832,4.0995,4.1081,4.115,4.1191,4.1191,4.1171,4.1129,4.1171,4.1171,4.1148,4.1171,4.1191,4.1191,4.1191,4.1191,4.1191,4.1191,4.1191,4.1191,4.1191,4.1191,4.1191,0.0,0.0,0.0,0.0,0.0,0.0,0.0,0.0,0.0,3.2168,0.0,0.0,0.0,0.0,0.0,3.0898,3.0898,3.0898,3.0898,3.0898,3.0838,3.0718,3.0695,3.0675,3.0613,3.0671,3.0624,3.0505,3.0561,3.0525,3.0462,3.3808,3.5346,3.55,3.8857,4.1281,4.2854,4.3028,4.247,4.135,4.0031,3.8838,3.7777,3.7138,3.6346,3.5904,3.8434,3.7555,3.5452,3.7092,3.5657,3.3181,3.3096,3.1197,2.8999,2.8999,2.8999,2.9354,0.0,0.0,0.0,3.4564,3.6784,3.8608,3.8644,4.101,4.3196,4.3215,4.4466,4.5547,4.5547,4.559,4.5594,4.5594,4.5594,4.5594,4.5594,4.5594,4.5594,4.5594,4.5594,4.5594,4.5594,4.5594,0.0,0.0,4.5594,4.5225,4.4359,4.4239,4.352,4.1999,4.114,4.0793,4.099,4.0992,4.1055,4.1191,4.1191,4.1127,4.0997,4.1129,4.1126,4.0996,4.1128,4.1191,4.1191,4.1191,4.1191,4.1191,4.1191,4.1191,4.1191,4.1191,4.1191,4.1191,0.0,0.0,0.0,0.0,0.0,0.0,3.1562,3.1406,3.1269,0.0,0.0,0.0,3.0898,3.0898,3.0898,3.0898,3.0898,3.0898,3.0898,3.0898,3.0879,3.0857,3.0747,3.0741,3.0811,3.0691,3.0616,3.057,3.0548,3.0486,3.0423,3.1365,3.1808,3.1962,3.5369,3.6796,3.6934,4.1277,3.9408,3.4154,4.1089,4.0012,3.4814,3.9546,3.9662,3.7565,3.9473,3.9175,3.7927,3.839,3.6159,3.2839,3.0802,2.9623,2.8999,2.8999,2.8999,2.9225,3.024,0.0,0.0,0.0,0.0,0.0,3.7558,3.9129,4.0506,4.1086,4.2896,4.4374,4.4374,4.5045,4.5594,4.5594,4.5594,4.5594,4.5594,4.5594,4.5594,4.5594,4.5594,4.5594,4.5594,0.0,0.0,0.0,4.5594,4.5225,4.4359,4.3143,4.2013,4.096,4.0775,4.074,4.0777,4.0824,4.092,4.1054,4.1054,4.1048,4.0996,4.1048,4.0988,4.086,4.0884,4.0962,4.1056,4.1151,4.1191,4.1191,4.1191,4.1191,4.1191,4.1191,4.1191,4.1191,0.0,0.0,0.0,0.0,0.0,3.0761,3.0761,3.0791,3.0816,0.0,0.0,0.0,3.0898,3.0898,3.0898,3.0898,3.0898,3.0898,3.0898,3.0898,3.0898,3.0898,3.0836,3.0816,3.0898,3.073,3.0636,3.0604,3.0533,3.0472,3.0404,3.0404,3.0404,3.05,3.2481,3.3099,3.291,3.745,3.7757,3.5615,4.0858,4.105,3.8569,4.1854,4.1643,3.9854,4.1897,4.1547,4.0268,4.1331,3.868,3.4623,3.298,3.0863,2.9223,3.0407,2.9927,2.9244,3.0393,3.1042,3.1801,3.3403,0.0,0.0,3.6229,3.8255,4.0034,4.0503,4.2742,4.447,4.3982,4.4446,4.4882,4.4882,4.4882,4.5068,4.5524,4.5594,4.5594,4.5594,4.5594,4.5594,4.5594,4.5594,4.5594,4.5594,4.5594,4.5225,4.4359,4.2716,4.1562,4.1066,4.0774,4.0633,4.0697,4.0744,4.0805,4.0917,4.0917,4.0899,4.0884,4.0902,4.085,4.0767,4.0798,4.0832,4.092,4.0996,4.1103,4.1191,4.1191,4.1191,4.1191,4.1191,4.1191,4.1191,0.0,0.0,3.0688,3.0688,3.0648,3.0604,3.0604,3.0658,3.0688,0.0,3.0793,3.0879,3.0898,3.0898,3.0898,3.0898,3.0898,3.0898,3.0898,3.0898,3.0898,3.0898,3.0898,3.0898,3.0898,3.0769,3.0672,3.0604,3.0533,3.0472,3.0404,3.0404,3.0404,3.0404,3.0404,3.0404,3.0558,3.2814,3.6565,4.0889,3.995,4.1724,4.4782,4.3763,4.2662,4.2004,4.4648,4.4008,4.2273,4.4414,4.1843,3.7648,3.7043,3.3502,3.0013,3.2119,3.1015,2.9427,3.076,3.1262,3.1721,3.3073,3.4149,0.0,3.4876,3.7659,4.031,4.0534,4.2808,4.4518,4.3713,4.3576,4.3595,4.3691,4.3781,4.4232,4.5389,4.5577,4.5581,4.5555,4.5577,4.5594,4.5594,4.5594,4.5594,4.5594,4.5594,4.5225,4.4359,4.2793,4.1908,4.1793,4.0954,4.0559,4.067,4.0674,4.0713,4.0781,4.0781,4.0764,4.0703,4.0752,4.0752,4.068,4.0733,4.0788,4.0781,4.0781,4.0947,4.1171,4.1171,4.1191,4.1191,4.1191,4.1191,4.1191,0.0,3.067,3.0627,3.0627,3.0614,3.0604,3.0604,3.0617,3.0627,3.0627,3.0699,3.0771,3.0898,3.0898,3.0898,3.0898,3.0898,3.0898,3.0898,3.0898,3.0898,3.0898,3.0898,3.0898,3.0898,3.0769,3.0672,3.0604,3.0533,3.0472,3.0404,3.0404,3.0404,3.0404,3.0404,3.0404,3.0423,3.0923,3.291,3.601,3.9796,4.1008,4.0858,4.3936,4.3301,4.1185,4.4436,4.4417,4.2776,4.2353,4.1504,3.9833,3.5404,3.37,3.2873,3.0501,2.9889,2.9892,2.9555,3.0411,3.1317,3.0999,3.2485,0.0,3.402,3.513,3.6613,3.8234,3.9045,3.9898,4.1236,4.1491,4.1694,4.2353,4.2998,4.3837,4.503,4.5429,4.5499,4.5227,4.5434,4.5594,4.5594,4.5594,4.5594,4.5594,4.5594,4.5225,4.4359,4.3374,4.2523,4.1812,4.0954,4.0516,4.0534,4.0534,4.0606,4.0724,4.0724,4.0707,4.07,4.071,4.0642,4.0534,4.0554,4.063,4.0724,4.0724,4.0856,4.1048,4.1048,4.1104,4.1191,4.1191,4.1191,4.1191,3.0663,3.0601,3.0559,3.0559,3.0515,3.0494,3.0494,3.0525,3.0559,3.0559,3.0647,3.0721,3.0793,3.0858,3.0898,3.0898,3.0898,3.0898,3.0898,3.0898,3.0898,3.0898,3.0898,3.0898,3.0898,3.0734,3.0622,3.0604,3.0494,3.0422,3.0404,3.0404,3.0404,3.0404,3.0404,3.0404,3.0404,3.0404,3.1868,3.4529,3.8373,4.0162,4.0912,4.4301,4.4536,4.3267,4.4979,4.5051,4.4135,4.2722,4.188,0.0,3.8676,3.6306,3.405,0.0,3.0983,3.0112,2.9708,0.0,0.0,3.1305,0.0,0.0,0.0,3.49,3.6177,3.72,3.8165,3.8968,3.9376,3.9451,3.9601,3.9996,4.0735,4.1613,4.2617,4.4244,4.5347,4.5347,4.5499,4.5594,4.5594,4.5594,4.5594,4.5594,4.5594,4.5225,4.4359,4.3912,4.3124,4.185,4.1373,4.0935,4.0496,4.0496,4.0526,4.0596,4.0596,4.0596,4.0596,4.0596,4.0566,4.0496,4.0496,4.053,4.0596,4.0596,4.0704,4.0844,4.0891,4.0988,4.1103,4.1103,4.1149,4.1191,3.0595,3.0523,3.0484,3.0484,3.0449,3.0404,3.0404,3.0451,3.0493,3.0496,3.0614,3.0925,3.1588,3.1209,3.1152,3.1794,3.1833,3.158,3.0937,3.1483,3.1561,3.0937,3.0898,3.0898,3.0898,3.0691,3.0604,3.0604,3.0467,3.0404,3.0404,3.0404,3.0404,3.0404,3.0404,3.0673,3.1135,3.1135,3.2602,3.5145,3.7719,3.9677,4.1408,4.4436,4.5302,4.4936,4.5417,4.5594,4.5316,4.3417,4.2198,4.1509,4.1628,3.832,0.0,0.0,0.0,0.0,0.0,0.0,0.0,0.0,0.0,3.2497,0.0,0.0,0.0,3.5994,3.7353,3.833,3.756,3.7427,0.0,3.765,0.0,0.0,0.0,4.2404,0.0,4.4771,4.4897,4.4925,4.4925,4.514,4.5358,4.559,4.5594,4.5282,4.459,4.4397,4.3682,4.2312,4.1966,4.147,4.0762,4.0573,4.0496,4.0496,4.0496,4.0496,4.0496,4.0496,4.0496,4.0496,4.0496,4.0496,4.0496,4.0496,4.0566,4.067,4.0757,4.085,4.0959,4.0959,4.1026,4.1127,3.0503,3.0455,3.0411,3.0411,3.0416,3.0404,3.0404,3.0418,3.0422,3.0485,3.0561,3.1769,3.4802,3.2596,3.2066,3.4991,3.5239,3.4014,3.1094,3.363,3.3937,3.1035,3.0898,3.0898,3.0898,3.0691,3.0604,3.0604,3.0467,3.0404,3.0404,3.0404,3.0404,3.0404,3.0404,3.1657,3.376,3.376,3.5241,3.7796,4.0331,4.0196,3.8969,4.3763,4.4205,4.2523,4.4782,4.5594,4.5184,0.0,4.1514,4.1008,0.0,3.63,3.4257,3.355,0.0,0.0,0.0,0.0,0.0,0.0,3.0479,0.0,0.0,0.0,3.3089,3.3089,0.0,3.4658,3.5234,0.0,0.0,0.0,0.0,0.0,3.8212,3.9804,4.1222,4.1967,4.2329,4.251,0.0,4.3479,4.4518,4.5519,4.5594,4.5556,4.5455,4.4724,4.4201,4.4028,4.2562,4.1754,4.1658,4.0896,4.0496,4.0496,4.0496,4.0496,4.0496,4.0496,4.0496,4.0496,4.0496,4.0496,4.0496,4.0496,4.0508,4.0549,4.0664,4.0752,4.0816,4.0816,4.0824,4.0852,3.0443,3.0411,3.0404,3.0404,3.0404,3.0404,3.0404,3.0404,3.0408,3.0433,3.0533,3.1892,3.5273,3.4502,3.5086,3.8404,3.8706,3.7891,3.6008,3.5825,3.4988,3.3123,3.1677,3.0858,3.0792,3.0656,3.0581,3.0548,3.0451,3.0404,3.0404,3.0404,3.0404,3.0404,3.0404,3.1811,3.4205,3.4205,3.5664,3.8084,3.9161,3.895,3.8565,4.3666,4.4936,4.4008,4.4109,4.4763,4.5043,0.0,4.1812,0.0,0.0,0.0,0.0,3.6371,0.0,0.0,0.0,0.0,0.0,0.0,0.0,0.0,3.3294,0.0,3.2045,0.0,0.0,0.0,0.0,0.0,0.0,0.0,3.5525,0.0,0.0,0.0,3.8804,0.0,0.0,0.0,4.3082,0.0,0.0,0.0,4.4417,4.4359,4.4821,4.4494,4.4297,4.4297,4.3162,4.2312,4.1793,4.0935,4.0496,4.0496,4.0496,4.0496,4.0496,4.0496,4.0496,4.0496,4.0496,4.0496,4.0496,4.0496,4.0496,4.0504,4.0563,4.0642,4.0732,4.0732,4.0761,4.0799,3.0459,3.0422,3.0404,3.0404,3.0404,3.0404,3.0404,3.1209,3.1804,3.1804,3.1905,3.3262,3.6619,3.5469,3.6268,4.0743,4.0922,4.0636,0.0,3.8287,3.6791,3.5979,3.2702,3.1166,3.1704,3.098,3.0563,3.0501,3.0422,3.0404,3.0404,3.0404,3.0404,3.0404,3.0404,3.1811,3.4244,3.4952,3.6699,3.9104,3.9796,4.0085,4.0416,4.3416,4.4994,4.5436,4.4224,4.4571,4.5028,4.119,4.1927,0.0,4.06,0.0,3.8314,0.0,0.0,0.0,3.392,0.0,0.0,0.0,0.0,0.0,0.0,0.0,0.0,0.0,0.0,0.0,0.0,0.0,3.3807,3.3807,0.0,3.4674,0.0,3.5415,0.0,0.0,0.0,0.0,0.0,0.0,0.0,4.39,4.3431,4.3355,4.3932,4.4182,4.4297,4.4297,4.3528,4.2797,4.2158,4.105,4.0496,4.0496,4.0496,4.0496,4.0496,4.0496,4.0496,4.0496,4.0496,4.0496,4.0496,4.0496,4.0496,4.0496,4.0496,4.0563,4.0652,4.0652,4.067,4.0723,3.0581,3.0493,3.0404,3.0404,3.0404,3.0404,3.0404,3.3204,3.5339,3.5339,3.5447,3.6792,4.0076,3.4822,3.3998,4.1325,4.125,4.1116,4.1868,0.0,4.0255,3.9373,0.0,3.1955,3.4238,3.1859,3.0563,3.0501,3.0422,3.0404,3.0404,3.0404,3.0404,3.0404,3.0404,3.1811,3.4356,3.6834,3.9354,4.1889,4.4359,4.5364,4.509,0.0,4.3451,4.5594,4.5537,0.0,0.0,4.2378,4.149,0.0,0.0,0.0,0.0,0.0,0.0,0.0,0.0,0.0,0.0,3.3899,0.0,0.0,0.0,0.0,3.0467,0.0,0.0,0.0,0.0,0.0,3.3807,3.3807,3.3825,0.0,0.0,0.0,0.0,0.0,0.0,0.0,0.0,4.1512,4.2752,4.3107,4.3104,4.3104,4.3143,4.3874,4.4297,4.4297,4.3528,4.3085,4.3066,4.1358,4.0496,4.0496,4.0496,4.0496,4.0496,4.0496,4.0496,4.0496,4.0496,4.0496,4.0496,4.0496,4.0496,4.0496,4.0496,4.05,4.0504,4.0504,4.0508,4.0516,3.0927,3.0556,3.0529,3.0529,3.0058,2.9664,2.9664,3.1134,3.3241,3.6005,3.6483,3.8854,4.4902,4.3645,4.3158,4.5141,4.7052,4.6843,4.3795,4.3337,0.0,4.2763,3.8235,3.556,0.0,0.0,3.2191,3.0425,3.0411,3.0404,3.0404,3.0404,3.0404,3.0404,3.0404,3.1811,3.4379,3.6911,3.9465,4.1889,4.2739,4.3085,4.3181,0.0,4.4859,4.5594,4.5594,4.5594,0.0,4.258,4.2793,4.3892,4.2194,4.09,4.0559,4.3358,4.0912,0.0,0.0,0.0,3.979,3.886,0.0,0.0,0.0,0.0,0.0,0.0,0.0,0.0,0.0,0.0,3.3807,3.3807,3.3807,3.3807,0.0,3.402,0.0,3.4614,3.6205,3.7915,0.0,0.0,0.0,4.2114,4.17,4.1627,4.2216,4.3047,4.3739,4.4278,4.3528,4.3104,4.3104,4.1377,4.0496,4.0496,4.0496,4.0496,4.0496,4.0496,4.0496,4.0496,4.0496,4.0496,4.0496,4.0496,4.0496,4.0496,4.0496,4.0496,4.0496,4.0496,4.0496,4.0496,3.1173,3.0712,3.0681,3.0613,3.0133,3.0168,3.1364,3.2048,3.433,3.9695,3.9452,4.1055,4.7052,4.6677,4.6275,4.6943,4.7569,4.7695,4.7108,4.347,0.0,4.604,4.0501,3.778,0.0,0.0,0.0,3.3561,3.1442,3.0865,3.1734,3.0827,3.0404,3.0404,3.0404,3.1311,3.3064,3.6526,3.895,4.0523,4.1446,4.2331,0.0,0.0,4.4801,4.5594,0.0,4.5594,4.534,4.3701,4.4244,4.5302,4.3662,4.3032,4.3257,4.5059,4.3057,4.0645,4.2474,4.2928,0.0,4.1648,4.0077,0.0,3.7524,0.0,0.0,0.0,0.0,0.0,0.0,0.0,3.4625,3.3925,3.3807,3.3807,0.0,3.3807,3.3807,3.3807,3.5383,3.6973,3.8222,3.8756,3.9537,4.0811,4.0666,4.0743,0.0,0.0,4.3335,4.3855,4.3643,4.3393,4.3104,4.1681,4.08,4.0496,4.0496,4.0496,4.0496,4.0496,4.0496,4.0496,4.0496,4.0496,4.0496,4.0496,4.0496,4.0496,4.0496,4.0496,4.0496,4.0496,4.0496,4.0496,3.1367,3.0898,3.0835,3.0659,3.0717,3.1873,3.5055,3.5778,3.8534,4.5725,4.4117,4.3521,4.6703,4.436,4.3686,4.6513,4.329,4.4028,5.0909,4.1867,0.0,0.0,4.1077,3.8898,4.4175,0.0,0.0,0.0,3.3465,3.1868,3.4148,3.1599,3.0404,3.0404,3.0404,3.0404,3.0731,3.583,3.8065,3.8392,4.0696,4.3143,4.5148,4.2716,4.3374,4.5594,4.5594,4.5594,4.5594,4.5594,4.5594,4.5594,4.5594,4.5594,4.5594,4.5594,4.5594,4.5594,4.5594,4.5594,4.4959,4.2288,0.0,0.0,0.0,0.0,3.7518,0.0,0.0,0.0,0.0,0.0,0.0,3.4263,3.3857,3.3807,3.3807,3.3802,3.3815,3.3815,3.5528,3.6472,3.5929,3.8317,3.9702,3.9254,3.9969,4.0439,0.0,0.0,4.3066,4.3104,4.3797,4.3835,4.3104,4.2196,4.1316,4.0496,4.0496,4.0496,4.0496,4.0496,4.0496,4.0496,4.0496,4.0496,4.0496,4.0496,4.0496,4.0496,4.0496,4.0496,4.0496,4.0496,4.0496,4.0496,3.1366,3.0898,3.0878,3.0834,3.2304,3.3795,3.4657,3.7461,4.0397,4.2933,4.5212,4.6937,4.7809,4.9358,4.8422,4.3706,4.4592,0.0,0.0,0.0,0.0,5.012,4.6871,4.4743,4.4301,4.2837,4.0839,3.8334,0.0,3.4196,3.4148,3.1599,3.0404,3.0404,3.0404,3.0404,3.0731,3.583,3.9084,4.0715,3.9465,4.0508,4.2696,0.0,4.3374,4.5594,4.5594,4.5594,4.5594,4.5594,4.5594,4.5594,4.5594,4.5594,4.5594,4.5594,4.5594,4.5594,4.5594,4.5594,4.5427,4.4691,4.2947,4.1213,0.0,0.0,0.0,0.0,0.0,0.0,0.0,0.0,0.0,3.6118,3.4787,3.3807,3.3807,3.3974,3.4111,3.4111,3.4778,3.5329,3.5575,3.6438,3.7271,3.7987,3.9011,3.9608,3.9608,0.0,0.0,4.3085,4.2677,4.2639,4.3104,4.1589,4.0723,4.0496,4.0496,4.0496,4.0496,4.0496,4.0496,4.0496,4.0496,4.0496,4.0496,4.0496,4.0496,4.0496,4.0496,4.0496,4.0496,4.0496,4.0496,4.0496,3.1366,3.0898,3.0898,3.0898,3.4411,3.7368,3.7729,3.9162,4.1704,4.5796,4.6773,4.7666,4.9129,5.1294,5.0788,4.6197,4.4879,0.0,4.5097,0.0,0.0,5.0414,4.8361,4.6367,4.4898,4.4494,0.0,4.0239,0.0,3.5257,3.578,3.2118,3.0404,3.0404,3.0404,3.0404,3.0731,3.583,3.9465,4.1677,4.0235,4.12,0.0,4.2216,4.3374,4.5594,4.5594,4.5594,4.5594,4.5594,4.5594,4.5594,4.5594,4.5594,4.5594,4.5594,4.5594,4.5594,4.5594,4.5594,4.5594,4.5594,4.4404,4.3234,4.3234,4.2044,4.0936,0.0,0.0,0.0,0.0,0.0,0.0,3.5585,3.468,0.0,0.0,0.0,0.0,3.431,3.5144,3.5571,3.4986,3.563,3.6392,3.7153,3.8143,3.8896,0.0,0.0,0.0,4.2523,4.2777,4.2777,4.2523,4.1566,4.0877,4.0496,4.0496,4.0496,4.0496,4.0496,4.0496,4.0496,4.0496,4.0496,4.0496,4.0496,4.0496,4.0496,4.0496,4.0496,4.0496,4.0496,4.0496,4.0496,3.1366,3.0898,3.1035,3.1464,3.6303,4.0704,4.2393,4.1781,0.0,5.0374,0.0,4.741,4.9787,5.1058,5.1284,5.0139,4.4778,4.3886,4.9677,4.1914,4.1128,5.013,4.7732,4.6047,4.5787,4.5128,4.4355,0.0,0.0,3.5933,3.7892,3.2769,3.0404,3.0404,3.0404,3.0769,3.1654,3.5757,3.9181,4.1793,4.1793,4.3124,4.4898,4.3008,4.3662,4.5594,4.5594,4.5594,4.5594,4.5594,4.5594,4.5594,4.5594,4.5594,4.5594,4.5594,4.5594,4.5594,4.5594,4.5594,4.5594,4.5594,4.5594,4.5594,4.5594,4.5594,4.5594,4.5594,4.5594,4.508,0.0,0.0,0.0,3.4465,0.0,0.0,0.0,0.0,3.6505,3.4504,0.0,0.0,0.0,3.5453,3.6239,3.6472,3.732,0.0,0.0,0.0,0.0,4.1619,4.3047,4.3201,4.1985,0.0,4.1316,4.0666,4.0458,4.04,4.0496,4.0496,4.0496,4.0496,4.0496,4.0496,4.0496,4.0496,4.0496,4.0496,4.0496,4.0496,4.0496,4.0496,4.0496,4.0496,3.1366,3.0898,3.1755,3.4475,3.5906,3.8809,4.5153,4.8181,4.9283,4.8028,4.9587,4.9738,4.6889,4.9165,4.9739,4.6831,4.5516,0.0,0.0,0.0,0.0,4.9461,4.9076,4.8094,4.6697,4.7178,4.6682,0.0,0.0,3.8261,3.7892,3.2769,3.0404,3.0404,3.0404,3.2731,3.6584,3.5376,0.0,4.1793,4.1793,4.2062,4.2639,4.4301,4.5205,4.5594,4.5594,4.5594,4.5594,4.5594,4.5594,4.5594,4.5594,4.5594,4.5594,4.5594,4.5594,4.5594,4.5594,4.5594,4.5594,4.5594,4.5594,4.5594,4.5594,4.5594,4.5594,4.5594,4.5594,4.5504,4.5147,0.0,0.0,0.0,0.0,0.0,0.0,0.0,0.0,0.0,0.0,3.7183,0.0,0.0,3.5327,3.5388,3.6339,0.0,0.0,0.0,0.0,0.0,4.1012,0.0,0.0,0.0,4.1012,4.1562,4.0165,3.9861,4.0496,4.0496,4.0496,4.0496,4.0496,4.0496,4.0496,4.0496,4.0496,4.0496,4.0496,4.0496,4.0496,4.0496,4.0496,4.0496,3.3667,3.2066,3.1405,3.2975,3.6444,0.0,0.0,4.8671,5.1183,4.9191,4.9903,4.9846,4.7842,4.946,5.0048,4.842,4.6704,4.6445,4.8182,4.6241,4.6333,4.9269,4.8971,4.7528,4.4985,4.6601,4.6216,4.3624,0.0,0.0,3.7892,3.2769,3.0404,3.0462,3.1772,3.3737,3.6126,0.0,0.0,4.1927,4.3239,4.3778,4.3893,4.5128,4.5594,4.5594,4.5594,4.5594,4.5594,4.5594,4.5594,4.5594,4.5594,4.5594,4.5594,4.5594,4.5594,4.5594,4.5594,4.5594,4.5494,4.5032,4.5263,4.5475,4.5032,4.5282,4.5594,4.5594,4.5594,4.5205,4.3874,4.2548,0.0,0.0,0.0,0.0,0.0,0.0,3.7411,0.0,0.0,0.0,0.0,0.0,0.0,0.0,0.0,0.0,0.0,0.0,0.0,0.0,0.0,0.0,0.0,0.0,0.0,4.1773,4.0531,4.0131,4.0496,4.0496,4.0496,4.0496,4.0496,4.0496,4.0496,4.0496,4.0496,4.0496,4.0496,4.0496,4.0496,4.0496,4.0496,4.0496,3.6854,3.478,3.3225,3.3918,3.8302,4.2219,4.3639,4.7681,5.0678,5.0919,5.0207,4.9687,4.9687,5.0284,5.0414,4.9696,4.7713,4.7069,4.8453,4.6444,4.605,4.7975,4.7913,4.6528,4.3682,4.5605,4.5293,0.0,0.0,0.0,0.0,3.333,3.1215,3.133,0.0,0.0,0.0,0.0,4.2119,4.2777,4.4782,4.5594,4.5594,4.5594,4.5594,4.5594,4.5594,4.5594,4.5594,4.5594,4.5594,4.5594,4.5594,4.5594,4.5594,4.5594,4.5594,4.5594,4.5594,4.5594,4.5436,4.4744,4.509,4.5417,4.4724,4.5109,4.5594,4.5594,4.5594,4.4994,4.2989,4.2874,0.0,0.0,0.0,0.0,0.0,0.0,3.7609,0.0,0.0,0.0,3.7502,0.0,0.0,0.0,0.0,0.0,3.6657,0.0,0.0,0.0,0.0,4.1158,4.1523,0.0,4.1446,4.1793,4.0743,4.0323,4.0496,4.0496,4.0496,4.0496,4.0496,4.0496,4.0496,4.0496,4.0496,4.0496,4.0496,4.0496,4.0496,4.0496,4.0496,4.0496,4.0339,4.0077,4.0808,0.0,0.0,4.2941,4.8966,4.7837,4.7603,5.1289,5.1087,5.0572,5.0572,5.0649,4.9474,4.6426,4.7949,4.6911,4.1889,4.5444,4.6542,4.3816,4.5812,4.6509,4.5398,4.559,4.5552,0.0,0.0,4.0254,0.0,0.0,0.0,0.0,0.0,0.0,0.0,4.16,4.3124,4.5263,4.5494,4.5594,4.5594,4.5594,4.5594,4.5594,4.5594,4.5594,4.5594,4.5594,4.5594,4.5594,4.5594,4.5594,4.5594,4.5594,4.5594,4.5594,4.5594,4.5594,4.5575,4.5498,4.5537,4.5575,4.5498,4.5537,4.5594,4.5594,4.5594,4.5537,4.5282,4.407,4.2277,0.0,0.0,0.0,0.0,0.0,3.6723,3.646,0.0,0.0,3.6863,3.6066,0.0,0.0,3.55,0.0,0.0,0.0,0.0,3.8065,0.0,3.9084,4.0612,3.9896,4.0296,4.1773,4.0185,3.9785,4.0496,4.0496,4.0496,4.0496,4.0496,4.0496,4.0496,4.0496,4.0496,4.0496,4.0496,4.0496,4.0496,4.0496,4.0496,4.0496,0.0,0.0,0.0,0.0,0.0,0.0,0.0,4.8274,4.9295,5.0962,5.0899,5.0707,5.0707,5.0226,4.9384,4.8037,4.8354,4.7609,4.5266,4.6521,4.6774,4.5447,4.5855,4.5956,4.5614,4.5594,4.5594,0.0,0.0,0.0,0.0,0.0,0.0,0.0,0.0,4.085,4.1908,4.3431,4.4667,4.5594,4.5594,4.5594,4.5594,4.5594,4.5594,4.5594,4.5594,4.5594,4.5594,4.5594,4.5594,4.5594,4.5594,4.5594,4.5594,4.5594,4.5594,4.5498,4.4955,4.5205,4.5359,4.4359,4.4859,4.534,4.434,4.4474,4.4821,4.4821,4.5244,4.5594,4.5594,4.5051,4.3763,0.0,0.0,0.0,0.0,0.0,0.0,3.9497,0.0,3.8257,3.8915,3.7311,0.0,0.0,0.0,0.0,0.0,0.0,0.0,3.8723,0.0,3.9838,4.2051,4.0704,4.0627,4.1793,4.0589,4.0189,4.0496,4.0496,4.0496,4.0496,4.0496,4.0496,4.0496,4.0496,4.0496,4.0481,4.0326,4.025,4.0236,4.0029,4.0086,4.025,4.7167,0.0,4.3718,0.0,4.5629,4.6754,4.5514,4.8373,5.024,4.9007,4.9711,5.0418,5.0668,4.9918,4.899,4.8015,4.782,4.7003,4.5261,4.6012,4.6178,4.5427,4.5532,0.0,4.5594,4.5594,4.5594,4.5594,4.1993,0.0,0.0,0.0,0.0,0.0,4.1777,4.2912,4.3047,4.484,4.5594,4.5594,4.5594,4.5594,4.5594,4.5594,4.5594,4.5594,4.5594,4.5594,4.5594,4.5594,4.5594,4.5594,4.5594,4.5594,4.5594,4.5594,4.5417,4.5071,4.4474,4.4744,4.4936,4.3739,4.434,4.4917,4.372,4.3893,4.4378,4.4628,4.5167,4.5594,4.5594,4.5594,4.4763,4.2216,0.0,0.0,0.0,3.9088,0.0,4.0542,3.8658,3.7815,3.9242,3.7542,0.0,0.0,0.0,0.0,0.0,0.0,0.0,0.0,0.0,0.0,0.0,4.0512,4.045,4.1793,4.0916,4.0496,4.0496,4.0496,4.0496,4.0496,4.0496,4.0496,4.0496,4.0496,4.0496,4.0481,4.0281,4.0167,4.0076,3.9829,3.9829,3.9943,5.0635,5.0616,5.0582,5.0582,5.0616,4.9234,4.5055,4.7998,4.9195,4.5017,4.7358,4.9745,5.0611,4.9918,4.8068,4.4741,4.5956,4.4432,3.8606,4.2861,4.4494,0.0,0.0,4.5594,4.5594,4.5594,4.5594,4.5594,0.0,0.0,4.1754,0.0,4.1716,4.1869,4.4417,4.5556,4.5556,4.5594,4.5594,4.5594,4.5594,4.5594,4.5594,4.5594,4.5594,4.5594,4.5594,4.5594,4.5594,4.5594,4.5594,4.5594,4.5594,4.5594,4.5594,4.5594,4.4994,4.4316,4.4297,4.4316,4.4316,4.4297,4.4297,4.4316,4.4297,4.4297,4.4532,4.5417,4.5594,4.5594,4.5594,4.5594,4.4763,4.2216,0.0,0.0,0.0,0.0,0.0,3.8046,3.6561,3.5846,3.6677,3.6,0.0,0.0,0.0,0.0,0.0,0.0,0.0,3.6715,3.5962,0.0,3.9319,3.8469,3.9296,4.1793,4.0916,4.0496,4.0496,4.0496,4.0496,4.0496,4.0496,4.0496,4.0496,4.0496,4.0496,4.0496,4.0492,4.0339,4.0096,4.0096,3.9891,3.9605,4.2731,4.6783,4.962,4.62,4.8415,4.9856,4.7313,4.8576,4.9124,4.7178,4.784,4.8625,4.8894,4.8182,4.7277,0.0,4.4457,4.3352,0.0,4.3095,4.3412,4.4359,4.3508,4.3008,4.3008,4.3008,4.3008,4.3008,0.0,0.0,0.0,4.1793,4.2739,4.4436,4.5244,4.5594,4.5594,4.5594,4.5594,4.5594,4.5594,4.5594,4.5594,4.5594,4.5594,4.5594,4.5594,4.5594,4.5594,4.5594,4.5594,4.5594,4.5594,4.5594,4.5475,4.4898,4.4513,4.4047,4.2912,4.3028,4.3335,4.2735,4.3047,4.3335,4.2735,4.3066,4.3566,4.3835,4.4801,4.5594,4.5594,4.5594,4.4763,4.2216,4.3258,0.0,0.0,0.0,3.9492,3.8954,3.7892,3.7546,3.8392,3.8238,0.0,0.0,0.0,0.0,0.0,0.0,0.0,0.0,3.9927,0.0,4.2685,4.0704,4.0412,4.1793,4.0916,4.08,4.1373,4.0762,4.0819,4.1354,4.0762,4.0496,4.0496,4.0496,4.0496,4.0481,4.0304,4.0172,4.0037,3.9593,3.9505,3.957,4.2981,4.6886,4.9716,4.6555,4.8333,4.9317,4.6667,4.7772,4.8162,4.605,4.6863,4.7658,4.7658,4.6913,0.0,4.687,4.4639,4.3893,4.5498,4.4109,4.3932,4.5537,4.409,4.3239,4.3239,4.3239,0.0,4.3239,4.3239,4.3239,4.3239,4.3239,4.409,4.5594,4.5594,4.5594,4.5594,4.5594,4.5594,4.5594,4.5594,4.5594,4.5594,4.5594,4.5594,4.5594,4.5594,4.5594,4.5594,4.5594,4.5594,4.5594,4.5594,4.5379,4.4994,4.4455,4.4297,4.4008,4.2639,4.2912,4.3355,4.2504,4.2701,4.2874,4.2004,4.2216,4.2797,4.3412,4.4378,4.5205,4.5537,4.5594,4.5071,4.3489,4.4551,4.4748,4.2262,0.0,0.0,0.0,0.0,0.0,0.0,3.9746,3.9396,0.0,0.0,0.0,0.0,0.0,0.0,4.1258,4.1316,0.0,4.3835,4.1954,4.1585,4.2735,4.1877,4.1758,4.2273,4.172,4.1777,4.2235,4.1373,4.0993,4.0954,4.0627,4.0496,4.0481,4.0321,4.0186,4.0027,3.9499,3.9333,3.9377,4.8749,4.9639,5.05,0.0,4.9654,0.0,4.3986,4.6005,4.6606,4.2677,4.4864,4.6812,4.6812,4.609,4.5936,4.6735,0.0,0.0,0.0,4.5436,4.5417,4.5594,4.5436,4.534,4.534,4.534,4.5417,4.5594,4.5594,4.5594,4.5594,4.5594,4.5594,4.5594,4.5594,4.5594,4.5594,4.5594,4.5594,4.5594,4.5594,4.5594,4.5594,4.5594,4.5594,4.5594,4.5594,4.5594,4.5594,4.5594,4.5594,4.5594,4.5594,4.5032,4.4378,4.4239,4.422,4.4047,4.3239,4.3566,4.3951,4.3201,4.2951,4.272,4.1889,4.1754,4.2235,4.3797,4.4162,4.4474,4.534,4.5518,4.5518,4.5518,4.5518,4.5148,4.4109,0.0,0.0,0.0,0.0,0.0,0.0,4.0708,4.0419,0.0,0.0,0.0,0.0,0.0,3.82,4.0689,4.0823,4.1627,4.3258,4.2408,4.2735,4.4201,4.3451,4.3124,4.3181,4.3124,4.3124,4.3124,4.2196,4.1793,4.1735,4.0858,4.0496,4.0496,4.0496,4.0351,4.0072,3.9737,3.9395,3.9104,0.0,0.0,4.8503,4.465,4.6435,4.7634,4.5379,4.6257,4.6595,4.4936,4.5415,4.5917,4.5917,4.5725,4.5686,4.5898,4.3932,4.3528,4.5475,4.3778,4.3566,4.5518,4.3739,4.2696,4.2696,4.2696,4.3643,4.5594,4.5594,4.5594,4.5594,4.5594,4.5594,4.5594,4.5594,4.5594,4.5594,4.5594,4.5594,4.5594,4.5594,4.5594,4.5594,4.5594,4.5594,4.5594,4.5594,4.5594,4.5594,4.5594,4.5594,4.5594,4.5594,4.5455,4.5032,4.3758,4.3374,4.3201,4.2331,4.2254,4.235,4.2158,4.1604,4.105,4.0858,4.1316,4.1908,4.2312,4.2912,4.3624,4.4455,4.4609,4.4609,4.4609,4.4609,4.3647,4.0877,3.9954,0.0,0.0,3.8777,4.0108,4.1373,4.2643,4.2797,0.0,0.0,0.0,0.0,4.0812,4.1466,4.3339,4.4051,4.459,4.4994,4.4143,4.3605,4.3374,4.3181,4.3412,4.3989,4.3374,4.3431,4.3932,4.2446,4.1793,4.1735,4.0858,4.0496,4.0496,4.0496,4.0465,4.0332,3.98,3.9558,3.9483,4.2152,4.5756,4.8417,4.5285,4.6298,4.7235,4.6336,4.6259,4.6144,4.5667,4.5594,4.5594,4.5594,4.5594,4.5594,4.5594,4.434,4.4128,4.5518,4.4321,4.4147,4.5537,4.4263,4.3547,4.3547,4.3547,4.4205,4.5594,4.5594,4.5594,4.5594,4.5594,4.5594,4.5594,4.5594,4.5594,4.5594,4.5594,4.5594,4.5594,4.5594,4.5594,4.5594,4.5594,4.5594,4.5594,4.5594,4.5594,4.5594,4.5594,4.5594,4.5594,4.5594,4.5321,4.4821,4.3912,4.3932,4.3974,4.2739,4.2658,4.2754,4.1985,4.1143,4.0496,4.0496,4.0877,4.1316,4.1716,4.2177,4.2758,4.3605,4.3758,4.3758,4.3758,4.3089,4.1801,3.9608,3.8607,0.0,3.8411,3.9665,4.13,4.3335,4.4359,4.4359,4.3047,4.1797,0.0,4.2874,4.2216,4.2754,4.4821,4.534,4.5594,4.5594,4.5128,4.4667,4.4244,4.4244,4.4474,4.4878,4.4436,4.4474,4.4801,4.3124,4.2389,4.2293,4.1012,4.0496,4.0496,4.0496,4.0496,4.0457,3.9984,4.0052,4.0319,4.7312,4.8048,4.8798,4.8043,4.7255,4.6697,4.6697,4.609,4.5594,4.5594,4.5594,4.5594,4.5594,4.5594,4.5594,4.5594,4.5594,4.5594,4.5594,4.5594,4.5594,4.5594,4.5594,4.5594,4.5594,4.5594,4.5594,4.5594,4.5594,4.5594,4.5594,4.5594,4.5594,4.5594,4.5594,4.5594,4.5594,4.5594,4.5594,4.5594,4.5594,4.5594,4.5594,4.5594,4.5594,4.5594,4.5594,4.5594,4.5594,4.5594,4.5594,4.5594,4.5594,4.509,4.4494,4.4494,4.5013,4.5225,4.3566,4.3508,4.3547,4.1985,4.105,4.0496,4.0496,4.0496,4.0704,4.145,4.16,4.1869,4.2739,4.2893,4.2816,4.2566,4.1281,3.9958,3.8877,0.0,3.795,4.0227,4.0843,4.2266,4.5306,4.5594,4.5282,4.4551,4.3181,4.2989,4.4417,4.3143,4.3374,4.5537,4.5594,4.5594,4.5594,4.5594,4.5594,4.5594,4.5594,4.5594,4.5594,4.5594,4.5594,4.5518,4.384,4.3104,4.2951,4.1223,4.0496,4.0496,4.0496,4.0573,4.0642,4.0252,4.0697,4.1353,4.6985,4.7101,4.7255,4.7101,4.6374,4.5802,4.5802,4.5686,4.5594,4.5594,4.5594,4.5594,4.5594,4.5594,4.5594,4.5594,4.5594,4.5594,4.5594,4.5594,4.5594,4.5594,4.5594,4.5594,4.5594,4.5594,4.5594,4.5594,4.5594,4.5594,4.5594,4.5594,4.5594,4.5594,4.5594,4.5594,4.5594,4.5594,4.5594,4.5594,4.5594,4.5594,4.5594,4.5594,4.5594,4.5594,4.5594,4.5594,4.5594,4.5594,4.5594,4.5594,4.5594,4.5518,4.5398,4.5398,4.5494,4.5225,4.3566,4.2643,4.1946,4.0954,4.0593,4.0496,4.0496,4.0496,4.0535,4.0666,4.0704,4.0973,4.1831,4.2004,4.1542,4.0127,3.9665,3.8684,3.6407,0.0,3.93,4.0362,4.2397,4.4205,4.5479,4.5594,4.5537,4.5417,4.5167,4.5128,4.5379,4.5148,4.5186,4.5594,4.5594,4.5594,4.5594,4.5594,4.5594,4.5594,4.5594,4.5594,4.5594,4.5594,4.5594,4.5518,4.384,4.3104,4.2951,4.1223,4.0496,4.0496,4.0496,4.0954,4.148,4.0463,4.1083,4.2335,4.6374,4.6586,4.6755,4.6278,4.5879,4.5594,4.5594,4.5594,4.5594,4.5594,4.5594,4.5594,4.5594,4.5594,4.5594,4.5594,4.5594,4.5594,4.5594,4.5594,4.5594,4.5594,4.5594,4.5594,4.5594,4.5594,4.5594,4.5594,4.5594,4.5594,4.5594,4.5594,4.5594,4.5594,4.5594,4.5594,4.5594,4.5594,4.5594,4.5594,4.5594,4.5594,4.5594,4.5594,4.5594,4.5594,4.5594,4.5594,4.5594,4.5594,4.5594,4.5594,4.5594,4.5594,4.5594,4.5594,4.4955,4.409,4.3316,4.2124,4.0993,4.0593,4.0496,4.0496,4.0496,4.0496,4.0496,4.0496,4.0496,4.0631,4.1031,4.1104,4.1008,4.07,3.9508,0.0,0.0,3.8838,3.9761,4.1046,4.3028,4.4648,4.5518,4.5594,4.5594,4.5594,4.5594,4.5594,4.5594,4.5594,4.5594,4.5594,4.5594,4.5594,4.5594,4.5594,4.5594,4.5594,4.5594,4.5594,4.5594,4.5594,4.5594,4.5518,4.384,4.3355,4.3585,4.1397,4.0781,4.12,4.12,4.145,4.18,4.1741,4.2472,4.3364,4.584,4.6144,4.6394,4.5725,4.5594,4.5594,4.5594,4.5594,4.5594,4.5594,4.5594,4.5594,4.5594,4.5594,4.5594,4.5594,4.5594,4.5594,4.5594,4.5594,4.5594,4.5594,4.5594,4.5594,4.5594,4.5594,4.5594,4.5594,4.5594,4.5594,4.5594,4.5594,4.5594,4.5594,4.5594,4.5594,4.5594,4.5594,4.5594,4.5594,4.5594,4.5594,4.5594,4.5594,4.5594,4.5594,4.5594,4.5594,4.5594,4.5594,4.5594,4.5594,4.5594,4.5594,4.5594,4.5594,4.4417,4.3104,4.3104,4.1974,4.0743,4.0554,4.0496,4.0496,4.0496,4.0496,4.0496,4.0496,4.0496,4.0554,4.0762,4.08,4.0954,4.1431,0.0,0.0,0.0,4.0146,4.0431,4.1927,4.3585,4.4782,4.5244,4.5475,4.5594,4.5594,4.5594,4.5594,4.5594,4.5594,4.5594,4.5594,4.5594,4.5594,4.5594,4.5594,4.5594,4.5594,4.5594,4.5594,4.5594,4.5594,4.5594,4.5518,4.4032,4.372,4.4124,4.1993,4.1489,4.21,4.21,4.2216,4.2446,4.2912,4.3739,4.4359,4.5614,4.5648,4.5686,4.5614,4.5594,4.5594,4.5594,4.5594,4.5594,4.5594,4.5594,4.5594,4.5594,4.5594,4.5594,4.5594,4.5594,4.5594,4.5594,4.5594,4.5594,4.5594,4.5594,4.5594,4.5594,4.5594,4.5594,4.5594,4.5594,4.5594,4.5594,4.5594,4.5594,4.5594,4.5594,4.5594,4.5594,4.5594,4.5594,4.5594,4.5594,4.5594,4.5594,4.5594,4.5594,4.5594,4.5594,4.5594,4.5594,4.5594,4.5594,4.5594,4.5594,4.5594,4.5594,4.5594,4.4417,4.3104,4.3104,4.2431,4.1504,4.0704,4.0496,4.0496,4.0496,4.0496,4.0496,4.0496,4.0496,4.0743,4.1562,4.1696,4.147,4.0723,0.0,0.0,4.0477,4.1143,4.1966,4.2893,4.4474,4.5205,4.4474,4.5128,4.5594,4.5594,4.5594,4.5594,4.5594,4.5594,4.5594,4.5594,4.5594,4.5594,4.5594,4.5594,4.5594,4.5594,4.5594,4.5594,4.5594,4.5594,4.5594,4.5556,4.4628,4.4239,4.422,4.3297,4.2951,4.3008,4.3008,4.3451,4.4028,4.3355,4.4128,4.5263,4.5594,4.5594,4.5594,4.5594,4.5594,4.5594,4.5594,4.5594,4.5594,4.5594,4.5594,4.5594,4.5594,4.5594,4.5594,4.5594,4.5594,4.5594,4.5594,4.5594,4.5594,4.5594,4.5594,4.5594,4.5594,4.5594,4.5594,4.5594,4.5594,4.5594,4.5594,4.5594,4.5594,4.5594,4.5594,4.5594,4.5594,4.5594,4.5594,4.5594,4.5594,4.5594,4.5594,4.5594,4.5594,4.5594,4.5594,4.5594,4.5594,4.5594,4.5594,4.5594,4.5594,4.5225,4.4705,4.4205,4.3605,4.2989,4.2446,4.1662,4.0916,4.0573,4.0496,4.0496,4.0496,4.0496,4.0496,4.0496,4.0496,4.0762,4.1639,4.1793,4.1869,4.2085,0.0,4.2281,4.2782,4.3143,4.3662,4.4551,4.5205,4.5475,4.5148,4.5417,4.5594,4.5594,4.5594,4.5594,4.5594,4.5594,4.5594,4.5594,4.5594,4.5594,4.5594,4.5594,4.5594,4.5594,4.5594,4.5594,4.5594,4.5594,4.5594,4.5556,4.4686,4.4609,4.4994,4.3643,4.3104,4.3143,4.3643,4.372,4.3643,4.4378,4.5051,4.5436,4.5594,4.5594,4.5594,4.5594,4.5594,4.5594,4.5594,4.5594,4.5594,4.5594,4.5594,4.5594,4.5594,4.5594,4.5594,4.5594,4.5594,4.5594,4.5594,4.5594,4.5594,4.5594,4.5594,4.5594,4.5594,4.5594,4.5594,4.5594,4.5594,4.5594,4.5594,4.5594,4.5594,4.5594,4.5594,4.5594,4.5594,4.5594,4.5594,4.5594,4.5594,4.5594,4.5594,4.5594,4.5594,4.5594,4.5594,4.5594,4.5594,4.5594,4.5417,4.5186,4.5186,4.4609,4.3816,4.3258,4.2912,4.2562,4.1966,4.1162,4.0496,4.0496,4.0496,4.0496,4.0496,4.0496,4.0496,4.0496,4.0723,4.1162,4.2043,4.2216,4.2485,4.3335,4.347,4.3585,4.3874,4.4378,4.4724,4.4801,4.5282,4.5494,4.5225,4.5436,4.5594,4.5594,4.5594,4.5594,4.5594,4.5594,4.5594,4.5594,4.5594,4.5594,4.5594,4.5594,4.5594,4.5594,4.5594,4.5594,4.5594,4.5594,4.5594,4.5575,4.4975,4.5051,4.5518,4.4359,4.3897,4.3936,4.4494,4.4378,4.4013,4.5186,4.5594,4.5436,4.5594,4.5594,4.5594,4.5594,4.5594,4.5594,4.5594,4.5594,4.5594,4.5594,4.5594,4.5594,4.5594,4.5594,4.5594,4.5594,4.5594,4.5594,4.5594,4.5594,4.5594,4.5594,4.5594,4.5594,4.5594,4.5594,4.5594,4.5594,4.5594,4.5594,4.5594,4.5594,4.5594,4.5594,4.5594,4.5594,4.5594,4.5594,4.5594,4.5594,4.5594,4.5594,4.5594,4.5594,4.5594,4.5594,4.5594,4.5594,4.5594,4.5594,4.5013,4.4297,4.4278,4.372,4.3085,4.3085,4.2466,4.1793,4.1793,4.1162,4.0496,4.0496,4.0496,4.0496,4.0496,4.0516,4.0516,4.0516,4.12,4.2062,4.2951,4.3104,4.3355,4.4162,4.4297,4.4028,4.3201,4.4532,4.4975,4.3316,4.459,4.5263,4.4397,4.509,4.5594,4.5594,4.5594,4.5594,4.5594,4.5594,4.5594,4.5594,4.5594,4.5594,4.5594,4.5594,4.5594,4.5594,4.5594,4.5594,4.5594,4.5594,4.5594,4.5594,4.5594,4.5594,4.5594,4.5594,4.5594,4.5594,4.5594,4.5594,4.5594,4.5594,4.5594,4.5359,4.5594,4.5594,4.5594,4.5594,4.5594,4.5594,4.5594,4.5594,4.5594,4.5594,4.5594,4.5594,4.5594,4.5594,4.5594,4.5594,4.5594,4.5594,4.5594,4.5594,4.5594,4.5594,4.5594,4.5594,4.5594,4.5594,4.5594,4.5594,4.5594,4.5594,4.5594,4.5594,4.5594,4.5594,4.5594,4.5594,4.5594,4.5594,4.5594,4.5594,4.5594,4.5225,4.4744,4.5359,4.5225,4.4763,4.5379,4.5594,4.5518,4.4898,4.4513,4.4085,4.2931,4.2389,4.2062,4.1454,4.1089,4.0896,4.0896,4.0704,4.0496,4.0496,4.0496,4.0496,4.0496,4.0973,4.1412,4.1412,4.1619,4.2235,4.3682,4.2989,4.2466,4.3316,4.3932,4.4028,4.3201,4.4532,4.5417,4.4917,4.5302,4.5498,4.5244,4.5455,4.5594,4.5594,4.5594,4.5594,4.5594,4.5594,4.5594,4.5594,4.5594,4.5594,4.5594,4.5594,4.5594,4.5594,4.5594,4.5594,4.5594,4.5594,4.5594,4.5594,4.5594,4.5594,4.5594,4.5594,4.5244,4.4744,4.5359,4.5225,4.4763,4.5359,4.5594,4.5537,4.5594,4.5594,4.5594,4.5594,4.5594,4.5594,4.5594,4.5594,4.5594,4.5594,4.5594,4.5594,4.5594,4.5594,4.5594,4.5594,4.5594,4.5594,4.5594,4.5594,4.5594,4.5594,4.5594,4.5594,4.5594,4.5594,4.5594,4.5594,4.5594,4.5594,4.5594,4.5594,4.5594,4.5594,4.5594,4.5417,4.5109,4.5455,4.5398,4.509,4.509,4.4763,4.4316,4.4532,4.4282,4.3893,4.4417,4.4609,4.4532,4.3989,4.3605,4.3066,4.172,4.1296,4.1181,4.0646,4.0496,4.0496,4.0496,4.0496,4.0496,4.0496,4.0496,4.0593,4.0935,4.1431,4.1908,4.2235,4.2562,4.3104,4.4105,4.347,4.297,4.3489,4.397,4.4028,4.3201,4.4532,4.5475,4.5128,4.5398,4.5594,4.5594,4.5594,4.5594,4.5594,4.5594,4.5594,4.5594,4.5594,4.5594,4.5594,4.5594,4.5594,4.5594,4.5594,4.5594,4.5594,4.5594,4.5594,4.5594,4.5594,4.5594,4.5594,4.5594,4.5594,4.5594,4.5594,4.5282,4.4878,4.5398,4.5282,4.4878,4.5417,4.5594,4.5556,4.559,4.5594,4.5594,4.5594,4.5594,4.5594,4.5594,4.5594,4.5594,4.5594,4.5594,4.5594,4.5594,4.5594,4.5594,4.5594,4.5594,4.5594,4.5594,4.5594,4.5594,4.5594,4.5594,4.5594,4.5594,4.5594,4.5594,4.5594,4.5594,4.5594,4.5594,4.5594,4.5594,4.5594,4.5594,4.5128,4.4355,4.5148,4.4975,4.4182,4.4182,4.4143,4.4008,4.3355,4.3047,4.2989,4.3066,4.3104,4.3085,4.3008,4.2389,4.1542,4.0743,4.0496,4.0496,4.0496,4.0496,4.0496,4.0496,4.0496,4.0496,4.0496,4.0554,4.0819,4.1619,4.1927,4.2254,4.3047,4.3797,4.4316,4.4397,4.4297,4.422,4.4297,4.4297,4.4047,4.3316,4.459,4.5302,4.4513,4.5128,4.5594,4.5594,4.5594,4.5594,4.5594,4.5594,4.5594,4.5594,4.5594,4.5594,4.5594,4.5594,4.5594,4.5594,4.5594,4.5594,4.5594,4.5594,4.5594,4.5594,4.5594,4.5594,4.5594,4.5594,4.5594,4.5594,4.5594,4.5594,4.5594,4.5594,4.5594,4.5594,4.5594,4.5556,4.534,4.5555,4.5594,4.5594,4.5594,4.5594,4.5594,4.5594,4.5594,4.5594,4.5594,4.5594,4.5594,4.5594,4.5594,4.5594,4.5594,4.5594,4.5594,4.5594,4.5594,4.5594,4.5594,4.5594,4.5594,4.5594,4.5594,4.5594,4.5594,4.5594,4.5594,4.5594,4.5594,4.5594,4.5594,4.5594,4.5128,4.4316,4.4494,4.4105,4.3355,4.3355,4.2951,4.2408,4.2912,4.2681,4.2177,4.2854,4.3104,4.3008,4.2312,4.1508,4.0743,4.0554,4.0496,4.0496,4.0496,4.0496,4.0496,4.0496,4.0496,4.0496,4.0496,4.1012,4.1562,4.1754,4.2816,4.3816,4.3989,4.4182,4.4513,4.5186,4.4244,4.3566,4.4201,4.4297,4.4239,4.4066,4.4936,4.5537,4.534,4.5475,4.5594,4.5594,4.5594,4.5594,4.5594,4.5594,4.5594,4.5594,4.5594,4.5594,4.5594,4.5594,4.5594,4.5594,4.5594,4.5594,4.5594,4.5594,4.5594,4.5594,4.5594,4.5594,4.5594,4.5594,4.5594,4.5594,4.5594,4.5594,4.5594,4.5594,4.5594,4.5594,4.5594,4.5167,4.4378,4.5527,4.5594,4.5594,4.5594,4.5594,4.5594,4.5594,4.5594,4.5594,4.5594,4.5594,4.5594,4.5594,4.5594,4.5594,4.5594,4.5594,4.5594,4.5594,4.5594,4.5594,4.5594,4.5594,4.5594,4.5594,4.5594,4.5594,4.5594,4.5594,4.5594,4.5594,4.5594,4.5379,4.4975,4.4975,4.4282,4.3124,4.3547,4.3239,4.2485,4.2485,4.2216,4.1793,4.1835,4.1589,4.1239,4.1704,4.1858,4.1781,4.1335,4.0877,4.0496,4.0496,4.0496,4.0496,4.0496,4.0496,4.0496,4.0496,4.0496,4.0593,4.1012,4.1777,4.2312,4.1889,4.3104,4.4297,4.4297,4.4628,4.5051,4.5518,4.4878,4.4436,4.4859,4.4917,4.4917,4.4917,4.5302,4.5594,4.5594,4.5594,4.5594,4.5594,4.5594,4.5594,4.5594,4.5594,4.5594,4.5594,4.5594,4.5594,4.5594,4.5594,4.5594,4.5594,4.5594,4.5594,4.5594,4.5594,4.5594,4.5594,4.5594,4.5594,4.5594,4.5594,4.5594,4.5594,4.5594,4.5594,4.5594,4.5594,4.5594,4.5556,4.5128,4.4686,4.4066,4.5443,4.5564,4.5594,4.5594,4.5594,4.5594,4.5594,4.5594,4.5594,4.5594,4.5594,4.5594,4.5594,4.5594,4.5594,4.5594,4.5594,4.5594,4.5594,4.5594,4.5594,4.5594,4.5594,4.5594,4.5594,4.5594,4.5594,4.5594,4.5594,4.5594,4.5594,4.5594,4.5128,4.4297,4.4297,4.3374,4.185,4.2562,4.2374,4.1581,4.1581,4.1581,4.1504,4.0781,4.0496,4.0496,4.0496,4.0496,4.0496,4.0496,4.0496,4.0496,4.0496,4.0496,4.0496,4.0496,4.0612,4.0723,4.0723,4.0819,4.1127,4.1831,4.2681,4.3085,4.2216,4.3316,4.4513,4.4513,4.509,4.5594,4.5594,4.5594,4.5594,4.5594,4.5594,4.5594,4.5594,4.5594,4.5594,4.5594,4.5594,4.5594,4.5594,4.5594,4.5594,4.5594,4.5594,4.5594,4.5594,4.5594,4.5594,4.5594,4.5594,4.5594,4.5594,4.5594,4.5594,4.5594,4.5594,4.5594,4.5594,4.5594,4.5594,4.5594,4.5594,4.5594,4.5594,4.5594,4.5594,4.5594,4.5594,4.5518,4.5263,4.4239,4.4047,4.4047,4.5102,4.5405,4.5594,4.5594,4.5594,4.5594,4.5594,4.5594,4.5594,4.5594,4.5594,4.5594,4.5594,4.5594,4.5594,4.5594,4.5594,4.5594,4.5594,4.5594,4.5594,4.5594,4.5594,4.5594,4.5594,4.5594,4.5594,4.5594,4.5594,4.5594,4.5594,4.5594,4.5128,4.4297,4.4297,4.3374,4.1812,4.1927,4.147,4.0685,4.0685,4.0685,4.0666,4.0535,4.0496,4.0496,4.0496,4.0496,4.0496,4.0496,4.0496,4.0496,4.0496,4.0496,4.0496,4.0496,4.1031,4.1619,4.1619,4.2162,4.2777,4.2893,4.3547,4.3912,4.3104,4.4224,4.5417,4.5417,4.5518,4.5594,4.5594,4.5594,4.5594,4.5594,4.5594,4.5594,4.5594,4.5594,4.5594,4.5594,4.5594,4.5594,4.5594,4.5594,4.5594,4.5594,4.5594,4.5594,4.5594,4.5594,4.5594,4.5594,4.5594,4.5594,4.5594,4.5594,4.5594,4.5594,4.5594,4.5594,4.5594,4.5594,4.5594,4.5594,4.5594,4.5594,4.5594,4.5594,4.5594,4.5594,4.5594,4.5148,4.4301,4.2716,4.3066,4.3955,4.4983,4.5217,4.539,4.5568,4.5594,4.5594,4.5594,4.5594,4.5594,4.5594,4.5594,4.5594,4.5594,4.5594,4.5594,4.5594,4.5594,4.5594,4.5594,4.5594,4.5594,4.5594,4.5594,4.5594,4.5594,4.5594,4.5594,4.5594,4.5594,4.5594,4.5594,4.509,4.4436,4.3605,4.3124,4.222,4.1066,4.1066,4.0858,4.0496,4.0496,4.0496,4.0496,4.0496,4.0496,4.0496,4.0496,4.0496,4.0496,4.0496,4.0496,4.0496,4.0496,4.0496,4.0593,4.1085,4.1504,4.1908,4.2389,4.2816,4.3201,4.3662,4.4047,4.434,4.4474,4.5071,4.5455,4.4975,4.5263,4.5594,4.5594,4.5594,4.5594,4.5594,4.5594,4.5594,4.5594,4.5594,4.5594,4.5594,4.5594,4.5594,4.5594,4.5594,4.5594,4.5594,4.5594,4.5594,4.5594,4.5594,4.5594,4.5594,4.5594,4.5594,4.5594,4.5594,4.5594,4.5594,4.5594,4.5594,4.5594,4.5594,4.5594,4.5594,4.5594,4.5594,4.5594,4.5594,4.5594,4.5594,4.5594,4.5071,4.4201,4.347,4.3662,4.4066]}]]